[[{"header":{"parameterUnit":"m.s-1","parameterCategory":1,"la1":30.6,"la2":28.766,"lo1":-90.7593,"lo2":-88.6598,"dy":0.0162,"dx":0.0183,"nx":116,"ny":114,"refTime":"2023-03-21T12:00:00:Z","depth":0,"parameterNumber":2,"parameterNumberName":"U-component_of_WINDS"},"data":[0.0,0.0,0.0,0.0,0.0,0.0,0.0,0.0,0.0,0.0,0.0,0.0,0.0,0.0,0.0,0.0,0.0,0.0,0.0,0.0,0.0,0.0,0.0,0.0,0.0,0.0,0.0,0.0,0.0,0.0,0.0,0.0,0.0,0.0,0.0,0.0,0.0,0.0,0.0,0.0,0.0,0.0,0.0,0.0,0.0,0.0,0.0,0.0,0.0,0.0,0.0,0.0,0.0,0.0,0.0,0.0,0.0,0.0,0.0,0.0,0.0,0.0,0.0,0.0,0.0,0.0,0.0,0.0,0.0,0.0,0.0,0.0,0.0,0.0,0.0,0.0,0.0,0.0,0.0,0.0,0.0,0.0,0.0,0.0,0.0,0.0,0.0,0.0,0.0,0.0,0.0,0.0,0.0,0.0,0.0,0.0,0.0,0.0,0.0,0.0,0.0,0.0,0.0,0.0,0.0,0.0,0.0,0.0,0.0,0.0,0.0,0.0,0.0,0.0,0.0,0.0,0.0,0.0,0.0,0.0,0.0,0.0,0.0,0.0,0.0,0.0,0.0,0.0,0.0,0.0,0.0,0.0,0.0,0.0,0.0,0.0,0.0,0.0,0.0,0.0,0.0,0.0,0.0,0.0,0.0,0.0,0.0,0.0,0.0,0.0,0.0,0.0,0.0,0.0,0.0,0.0,0.0,0.0,0.0,0.0,0.0,0.0,0.0,0.0,0.0,0.0,0.0,0.0,0.0,0.0,0.0,0.0,0.0,0.0,0.0,0.0,0.0,0.0,0.0,0.0,0.0,0.0,0.0,0.0,0.0,0.0,0.0,0.0,0.0,0.0,0.0,0.0,0.0,0.0,0.0,0.0,0.0,0.0,0.0,0.0,0.0,0.0,0.0,0.0,0.0,0.0,0.0,0.0,0.0,0.0,0.0,0.0,0.0,0.0,0.0,0.0,0.0,0.0,0.0,0.0,0.0,0.0,0.0,0.0,0.0,0.0,0.0,0.0,0.0,0.0,0.0,0.0,0.0,0.0,0.0,0.0,0.0,0.0,0.0,0.0,0.0,0.0,0.0,0.0,0.0,0.0,0.0,0.0,0.0,0.0,0.0,0.0,0.0,0.0,0.0,0.0,0.0,0.0,0.0,0.0,0.0,0.0,0.0,0.0,0.0,0.0,0.0,0.0,0.0,0.0,0.0,0.0,0.0,0.0,0.0,0.0,0.0,0.0,0.0,0.0,0.0,0.0,0.0,0.0,0.0,0.0,0.0,0.0,0.0,0.0,0.0,0.0,0.0,0.0,0.0,0.0,0.0,0.0,0.0,0.0,0.0,0.0,0.0,0.0,0.0,0.0,0.0,0.0,0.0,0.0,0.0,0.0,0.0,0.0,0.0,0.0,0.0,0.0,0.0,0.0,0.0,0.0,0.0,0.0,0.0,0.0,0.0,0.0,0.0,0.0,0.0,0.0,0.0,0.0,0.0,0.0,0.0,0.0,0.0,0.0,0.0,0.0,0.0,0.0,0.0,0.0,0.0,0.0,0.0,0.0,0.0,0.0,0.0,0.0,0.0,0.0,0.0,0.0,0.0,0.0,0.0,0.0,0.0,0.0,0.0,0.0,0.0,0.0,0.0,0.0,0.0,0.0,0.0,0.0,0.0,0.0,0.0,0.0,0.0,0.0,0.0,0.0,0.0,0.0,0.0,0.0,0.0,0.0,0.0,0.0,0.0,0.0,0.0,0.0,0.0,0.0,0.0,0.0,0.0,0.0,0.0,0.0,0.0,0.0,0.0,0.0,0.0,0.0,0.0,0.0,0.0,0.0,0.0,0.0,0.0,0.0,0.0,0.0,0.0,0.0,0.0,0.0,0.0,0.0,0.0,0.0,0.0,0.0,0.0,0.0,0.0,0.0,0.0,0.0,0.0,0.0,0.0,0.0,0.0,0.0,0.0,0.0,0.0,0.0,0.0,0.0,0.0,0.0,0.0,0.0,0.0,0.0,0.0,0.0,0.0,0.0,0.0,0.0,0.0,0.0,0.0,0.0,0.0,0.0,0.0,0.0,0.0,0.0,0.0,0.0,0.0,0.0,0.0,0.0,0.0,0.0,0.0,0.0,0.0,0.0,0.0,0.0,0.0,0.0,0.0,0.0,0.0,0.0,0.0,0.0,0.0,0.0,0.0,0.0,0.0,0.0,0.0,0.0,0.0,0.0,0.0,0.0,0.0,0.0,0.0,0.0,0.0,0.0,0.0,0.0,0.0,0.0,0.0,0.0,0.0,0.0,0.0,0.0,0.0,0.0,0.0,0.0,0.0,0.0,0.0,0.0,0.0,0.0,0.0,0.0,0.0,0.0,0.0,0.0,0.0,0.0,0.0,0.0,0.0,0.0,0.0,0.0,0.0,0.0,0.0,0.0,0.0,0.0,0.0,0.0,0.0,0.0,0.0,0.0,0.0,0.0,0.0,0.0,0.0,0.0,0.0,0.0,0.0,0.0,0.0,0.0,0.0,0.0,0.0,0.0,0.0,0.0,0.0,0.0,0.0,0.0,0.0,0.0,0.0,0.0,0.0,0.0,0.0,0.0,0.0,0.0,0.0,0.0,0.0,0.0,0.0,0.0,0.0,0.0,0.0,0.0,0.0,0.0,0.0,0.0,0.0,0.0,0.0,0.0,0.0,0.0,0.0,0.0,0.0,0.0,0.0,0.0,0.0,0.0,0.0,0.0,0.0,0.0,0.0,0.0,0.0,0.0,0.0,0.0,0.0,0.0,0.0,0.0,0.0,0.0,0.0,0.0,0.0,0.0,0.0,0.0,0.0,0.0,0.0,0.0,0.0,0.0,0.0,0.0,0.0,0.0,0.0,0.0,0.0,0.0,0.0,0.0,0.0,0.0,0.0,0.0,0.0,0.0,0.0,0.0,0.0,0.0,0.0,0.0,0.0,0.0,0.0,0.0,0.0,0.0,0.0,0.0,0.0,0.0,0.0,0.0,0.0,0.0,0.0,0.0,0.0,0.0,0.0,0.0,0.0,0.0,0.0,0.0,0.0,0.0,0.0,0.0,0.0,0.0,0.0,0.0,0.0,0.0,0.0,0.0,0.0,0.0,0.0,0.0,0.0,0.0,0.0,0.0,0.0,0.0,0.0,0.0,0.0,0.0,0.0,0.0,0.0,0.0,0.0,0.0,0.0,0.0,0.0,0.0,0.0,0.0,0.0,0.0,0.0,0.0,0.0,0.0,0.0,0.0,0.0,0.0,0.0,0.0,0.0,0.0,0.0,0.0,0.0,0.0,0.0,0.0,0.0,0.0,0.0,0.0,0.0,0.0,0.0,0.0,0.0,0.0,0.0,0.0,0.0,0.0,0.0,0.0,0.0,0.0,0.0,0.0,0.0,0.0,0.0,0.0,0.0,0.0,0.0,0.0,0.0,0.0,0.0,0.0,0.0,0.0,0.0,0.0,0.0,0.0,0.0,0.0,0.0,0.0,0.0,0.0,0.0,0.0,0.0,0.0,0.0,0.0,0.0,0.0,0.0,0.0,0.0,0.0,0.0,0.0,0.0,0.0,0.0,0.0,0.0,0.0,0.0,0.0,0.0,0.0,0.0,0.0,0.0,0.0,0.0,0.0,0.0,0.0,0.0,0.0,0.0,0.0,0.0,0.0,0.0,0.0,0.0,0.0,0.0,0.0,0.0,0.0,0.0,0.0,0.0,0.0,0.0,0.0,0.0,0.0,0.0,0.0,0.0,0.0,0.0,0.0,0.0,0.0,0.0,0.0,0.0,0.0,0.0,0.0,0.0,0.0,0.0,0.0,0.0,0.0,0.0,0.0,0.0,0.0,0.0,0.0,0.0,0.0,0.0,0.0,0.0,0.0,0.0,0.0,0.0,0.0,0.0,0.0,0.0,0.0,0.0,0.0,0.0,0.0,0.0,0.0,0.0,0.0,0.0,0.0,0.0,0.0,0.0,0.0,0.0,0.0,0.0,0.0,0.0,0.0,0.0,0.0,0.0,0.0,0.0,0.0,0.0,0.0,0.0,0.0,0.0,0.0,0.0,0.0,0.0,0.0,0.0,0.0,0.0,0.0,0.0,0.0,0.0,0.0,0.0,0.0,0.0,0.0,0.0,0.0,0.0,0.0,0.0,0.0,0.0,0.0,0.0,0.0,0.0,0.0,0.0,0.0,0.0,0.0,0.0,0.0,0.0,0.0,0.0,0.0,0.0,0.0,0.0,0.0,0.0,0.0,0.0,0.0,0.0,0.0,0.0,0.0,0.0,0.0,0.0,0.0,0.0,0.0,0.0,0.0,0.0,0.0,0.0,0.0,0.0,0.0,0.0,0.0,0.0,0.0,0.0,0.0,0.0,0.0,0.0,0.0,0.0,0.0,0.0,0.0,0.0,0.0,0.0,0.0,0.0,0.0,0.0,0.0,0.0,0.0,0.0,0.0,0.0,0.0,0.0,0.0,0.0,0.0,0.0,0.0,0.0,0.0,0.0,0.0,0.0,0.0,0.0,0.0,0.0,0.0,0.0,0.0,0.0,0.0,0.0,0.0,0.0,0.0,0.0,0.0,0.0,0.0,0.0,0.0,0.0,0.0,0.0,0.0,0.0,0.0,0.0,0.0,0.0,0.0,0.0,0.0,0.0,0.0,0.0,0.0,0.0,0.0,0.0,0.0,0.0,0.0,0.0,0.0,0.0,0.0,0.0,0.0,0.0,0.0,0.0,0.0,0.0,0.0,0.0,0.0,0.0,0.0,0.0,0.0,0.0,0.0,0.0,0.0,0.0,0.0,0.0,0.0,0.0,0.0,0.0,0.0,0.0,0.0,0.0,0.0,0.0,0.0,0.0,0.0,0.0,0.0,0.0,0.0,0.0,0.0,0.0,0.0,0.0,0.0,0.0,0.0,0.0,0.0,0.0,0.0,0.0,0.0,0.0,0.0,0.0,0.0,0.0,0.0,0.0,0.0,0.0,0.0,0.0,0.0,0.0,0.0,0.0,0.0,0.0,0.0,0.0,0.0,0.0,0.0,0.0,0.0,0.0,0.0,0.0,0.0,0.0,0.0,0.0,0.0,0.0,0.0,0.0,0.0,0.0,0.0,0.0,0.0,0.0,0.0,0.0,0.0,0.0,0.0,0.0,0.0,0.0,0.0,0.0,0.0,0.0,0.0,0.0,0.0,0.0,0.0,0.0,0.0,0.0,0.0,0.0,0.0,0.0,0.0,0.0,0.0,0.0,0.0,0.0,0.0,0.0,0.0,0.0,0.0,0.0,0.0,0.0,0.0,0.0,0.0,0.0,0.0,0.0,0.0,0.0,0.0,0.0,0.0,0.0,0.0,0.0,0.0,0.0,0.0,0.0,0.0,0.0,0.0,0.0,0.0,0.0,0.0,0.0,0.0,0.0,0.0,0.0,0.0,0.0,0.0,0.0,0.0,0.0,0.0,0.0,0.0,0.0,0.0,0.0,0.0,0.0,0.0,0.0,0.0,0.0,0.0,0.0,0.0,0.0,0.0,0.0,0.0,0.0,0.0,0.0,0.0,0.0,0.0,0.0,0.0,0.0,0.0,0.0,0.0,0.0,0.0,0.0,0.0,0.0,0.0,0.0,0.0,0.0,0.0,0.0,0.0,0.0,0.0,0.0,0.0,0.0,0.0,0.0,0.0,0.0,0.0,0.0,0.0,0.0,0.0,0.0,0.0,0.0,0.0,0.0,0.0,0.0,0.0,0.0,0.0,0.0,0.0,0.0,0.0,0.0,0.0,0.0,0.0,0.0,0.0,0.0,0.0,0.0,0.0,0.0,0.0,0.0,0.0,0.0,0.0,0.0,0.0,0.0,0.0,0.0,0.0,0.0,0.0,0.0,0.0,0.0,0.0,0.0,0.0,0.0,0.0,0.0,0.0,0.0,0.0,0.0,0.0,0.0,0.0,0.0,0.0,0.0,0.0,0.0,0.0,0.0,0.0,0.0,0.0,0.0,0.0,0.0,0.0,0.0,0.0,0.0,0.0,0.0,0.0,0.0,0.0,0.0,0.0,0.0,0.0,0.0,0.0,0.0,0.0,0.0,0.0,0.0,0.0,0.0,0.0,0.0,0.0,-4.1304,-4.1592,0.0,0.0,0.0,0.0,0.0,0.0,0.0,0.0,0.0,0.0,0.0,0.0,0.0,0.0,0.0,0.0,0.0,0.0,0.0,0.0,0.0,0.0,0.0,0.0,0.0,0.0,0.0,0.0,0.0,0.0,0.0,0.0,0.0,0.0,0.0,0.0,0.0,0.0,0.0,0.0,0.0,0.0,0.0,0.0,0.0,0.0,0.0,0.0,0.0,0.0,0.0,0.0,0.0,0.0,0.0,0.0,0.0,0.0,0.0,0.0,0.0,0.0,0.0,0.0,0.0,0.0,0.0,0.0,0.0,0.0,0.0,0.0,0.0,0.0,0.0,0.0,0.0,0.0,0.0,0.0,0.0,0.0,0.0,0.0,0.0,0.0,0.0,0.0,0.0,0.0,0.0,0.0,0.0,0.0,0.0,0.0,0.0,0.0,0.0,0.0,0.0,0.0,0.0,0.0,0.0,0.0,0.0,0.0,0.0,0.0,0.0,0.0,0.0,0.0,-4.136,-4.1069,0.0,0.0,0.0,0.0,0.0,0.0,0.0,0.0,0.0,0.0,0.0,0.0,0.0,0.0,0.0,0.0,0.0,0.0,0.0,0.0,0.0,0.0,0.0,0.0,0.0,0.0,0.0,0.0,0.0,0.0,0.0,0.0,0.0,0.0,0.0,0.0,0.0,0.0,0.0,0.0,0.0,0.0,0.0,0.0,0.0,0.0,0.0,0.0,0.0,0.0,0.0,0.0,0.0,0.0,0.0,0.0,0.0,0.0,0.0,0.0,0.0,0.0,0.0,0.0,0.0,0.0,0.0,0.0,0.0,0.0,0.0,0.0,0.0,0.0,0.0,0.0,0.0,0.0,0.0,0.0,0.0,0.0,0.0,0.0,0.0,0.0,0.0,0.0,0.0,0.0,0.0,0.0,0.0,0.0,0.0,0.0,0.0,0.0,0.0,0.0,0.0,0.0,0.0,0.0,0.0,0.0,0.0,0.0,-4.2837,-4.3412,-4.499,-4.4377,-4.3456,-4.2327,-4.2154,-4.1135,-3.9627,-4.0126,0.0,0.0,0.0,0.0,0.0,0.0,0.0,0.0,0.0,0.0,0.0,0.0,0.0,0.0,0.0,0.0,0.0,0.0,0.0,0.0,0.0,0.0,0.0,0.0,0.0,0.0,0.0,0.0,0.0,0.0,0.0,0.0,0.0,0.0,0.0,0.0,0.0,0.0,-4.2089,-4.3649,-4.4751,-4.5432,-4.4947,0.0,0.0,0.0,0.0,0.0,0.0,0.0,0.0,0.0,0.0,0.0,0.0,0.0,0.0,0.0,0.0,0.0,0.0,0.0,0.0,0.0,0.0,0.0,0.0,0.0,0.0,0.0,0.0,0.0,0.0,0.0,0.0,0.0,0.0,0.0,0.0,0.0,0.0,0.0,0.0,0.0,0.0,0.0,-4.5755,-4.4948,0.0,0.0,0.0,0.0,0.0,0.0,0.0,0.0,0.0,0.0,0.0,0.0,0.0,-4.2625,-4.3842,-4.3329,-4.3522,-4.4404,-4.4302,-4.4408,-4.4661,-4.4558,-4.4045,-4.3223,-4.3212,0.0,-3.9968,-3.9197,0.0,0.0,0.0,0.0,0.0,0.0,0.0,0.0,0.0,0.0,0.0,0.0,0.0,0.0,0.0,0.0,0.0,0.0,0.0,0.0,0.0,0.0,0.0,0.0,0.0,0.0,0.0,0.0,0.0,0.0,0.0,0.0,0.0,0.0,0.0,0.0,-4.1035,-4.1562,-4.2236,-4.3339,-4.4139,-4.4698,-4.4497,-4.5082,-4.6146,-4.5541,0.0,0.0,0.0,0.0,0.0,0.0,0.0,0.0,0.0,0.0,0.0,0.0,0.0,0.0,0.0,0.0,0.0,0.0,0.0,0.0,0.0,0.0,0.0,0.0,0.0,0.0,0.0,0.0,0.0,0.0,0.0,0.0,0.0,0.0,0.0,0.0,0.0,0.0,0.0,-4.5847,-4.5424,-4.4176,-4.4163,-4.3829,0.0,0.0,0.0,0.0,0.0,0.0,0.0,0.0,0.0,-4.3138,-4.2946,-4.3355,-4.4465,-4.4228,-4.4654,-4.5821,-4.5415,-4.5652,-4.643,-4.5602,-4.5026,-4.4688,-4.4248,-4.3267,-4.1822,-4.0141,-3.8948,-3.8225,0.0,0.0,0.0,0.0,-3.9323,-3.9328,0.0,0.0,0.0,0.0,0.0,0.0,0.0,0.0,0.0,0.0,0.0,0.0,0.0,0.0,0.0,-4.1204,0.0,0.0,0.0,0.0,0.0,0.0,0.0,0.0,0.0,0.0,0.0,0.0,-4.188,-4.2439,-4.3183,-4.3927,-4.4514,-4.4955,-4.5286,-4.5505,-4.5569,-4.5038,-4.4938,0.0,0.0,0.0,0.0,0.0,0.0,0.0,0.0,0.0,0.0,0.0,0.0,0.0,0.0,0.0,0.0,0.0,0.0,0.0,0.0,0.0,0.0,0.0,0.0,0.0,0.0,0.0,0.0,0.0,0.0,0.0,0.0,0.0,0.0,0.0,0.0,0.0,0.0,-4.5388,-4.5296,-4.3698,-4.3905,-4.3756,0.0,0.0,0.0,0.0,0.0,0.0,-4.1721,-4.1762,-4.2455,-4.3933,-4.3984,-4.4468,-4.5415,-4.5432,-4.6075,-4.7361,-4.6819,-4.7124,-4.8125,-4.7056,-4.6346,-4.5957,-4.5382,-4.4485,-4.3257,-4.1414,-3.98,-3.8497,-3.8853,-3.8548,-3.8041,-3.9123,-3.9174,-3.8802,0.0,0.0,0.0,0.0,0.0,0.0,0.0,0.0,0.0,0.0,0.0,0.0,0.0,0.0,-4.1204,-4.1204,-4.1204,-4.1187,0.0,0.0,0.0,0.0,0.0,0.0,0.0,0.0,0.0,-4.2236,-4.3718,-4.479,-4.5551,-4.6278,-4.6646,-4.6709,-4.7411,-4.7249,-4.6306,-4.4343,-4.3936,-4.451,0.0,0.0,0.0,0.0,0.0,0.0,0.0,0.0,0.0,0.0,0.0,0.0,0.0,0.0,0.0,0.0,0.0,0.0,0.0,0.0,0.0,0.0,0.0,0.0,0.0,0.0,0.0,0.0,0.0,0.0,0.0,0.0,0.0,0.0,0.0,0.0,0.0,0.0,0.0,-4.3698,-4.4414,0.0,0.0,0.0,0.0,-4.1239,-4.1798,-4.2482,-4.324,-4.3274,-4.3984,-4.5551,-4.5585,-4.6295,-4.7703,-4.772,-4.8139,-4.8883,-4.8849,-4.8883,-4.8951,-4.8866,-4.8071,-4.6735,-4.6701,-4.5449,-4.3325,-4.2523,-4.1305,-3.9926,-3.9242,-3.8548,-3.7922,-3.799,-3.799,-3.7973,0.0,0.0,0.0,0.0,0.0,0.0,0.0,0.0,0.0,0.0,0.0,0.0,0.0,-4.1035,-4.139,-4.1863,-4.1474,-4.1204,-4.1204,0.0,0.0,0.0,0.0,0.0,0.0,0.0,-4.2049,-4.3785,-4.4807,-4.5686,-4.6413,-4.7158,-4.7513,-4.7547,-4.8291,-4.8158,-4.7277,-4.5586,-4.4485,-4.3735,-4.2669,-4.2398,0.0,0.0,0.0,0.0,0.0,0.0,0.0,0.0,0.0,0.0,0.0,0.0,0.0,0.0,0.0,0.0,0.0,0.0,0.0,0.0,0.0,0.0,0.0,0.0,0.0,0.0,0.0,0.0,0.0,0.0,0.0,0.0,0.0,0.0,0.0,0.0,0.0,-4.5299,-4.6126,0.0,-4.3622,-4.3115,-4.2847,-4.2625,-4.2878,-4.3572,-4.4823,-4.4891,-4.5585,-4.709,-4.7111,-4.7614,-4.8612,-4.8612,-4.8748,-4.9001,-4.9001,-4.9001,-4.8984,-4.8528,-4.775,-4.6769,-4.6295,-4.5348,-4.4096,-4.3335,-4.2151,-4.0781,-4.051,-3.9969,-3.9334,-3.9334,-3.9334,-3.9334,0.0,0.0,0.0,0.0,0.0,0.0,0.0,0.0,0.0,0.0,0.0,-4.0646,-4.1153,-4.1644,-4.2151,-4.2625,-4.1999,-4.1576,-4.1576,0.0,0.0,0.0,0.0,0.0,0.0,-4.2083,-4.3318,-4.5359,-4.6075,-4.6819,-4.7547,-4.8054,-4.8409,-4.868,-4.9424,-4.934,-4.8595,-4.7597,-4.5872,-4.3724,-4.2709,-4.2439,-4.2489,0.0,0.0,0.0,0.0,0.0,0.0,0.0,0.0,0.0,0.0,0.0,0.0,0.0,0.0,0.0,0.0,0.0,0.0,0.0,0.0,0.0,0.0,0.0,0.0,0.0,0.0,0.0,0.0,0.0,0.0,0.0,0.0,0.0,0.0,-4.654,-4.7304,-4.6603,-4.7234,-4.6928,-4.4862,-4.436,-4.417,-4.417,-4.4626,-4.5353,-4.6397,-4.6684,-4.7276,-4.8257,-4.8291,-4.8528,-4.9001,-4.9001,-4.9001,-4.9001,-4.9001,-4.9001,-4.8984,-4.8494,-4.7733,-4.6769,-4.6278,-4.55,-4.4564,-4.4012,-4.2929,-4.1542,-4.1305,-4.0747,-4.0096,-4.0096,-4.0096,-4.0096,0.0,0.0,0.0,0.0,0.0,0.0,0.0,0.0,0.0,0.0,-4.073,-4.1221,-4.1238,-4.2513,-4.3392,-4.3392,-4.2726,-4.2286,-4.2252,-4.0925,0.0,0.0,0.0,0.0,-4.2337,-4.387,-4.5376,-4.6819,-4.7581,-4.8308,-4.9001,-4.9001,-4.939,-5.0118,-5.0862,-5.0777,-5.0118,-5.0101,-4.8003,-4.4615,-4.3031,-4.2828,-4.3189,0.0,0.0,0.0,0.0,0.0,0.0,0.0,0.0,0.0,0.0,0.0,0.0,0.0,0.0,0.0,0.0,0.0,0.0,0.0,0.0,0.0,0.0,0.0,0.0,0.0,0.0,0.0,0.0,0.0,0.0,0.0,0.0,0.0,-4.6159,-4.7534,-4.8307,-4.7493,-4.7713,-4.7251,-4.564,-4.568,-4.5788,-4.5771,-4.7124,-4.7922,-4.7922,-4.8612,-4.9001,-4.9001,-4.9001,-4.9001,-4.9001,-4.9001,-4.9001,-4.9001,-4.9001,-4.9001,-4.9001,-4.8984,-4.8173,-4.6786,-4.6769,-4.5952,-4.4615,-4.4564,-4.3667,-4.2252,-4.1525,-4.0764,-4.0096,-4.0096,-4.0096,-4.0096,0.0,0.0,0.0,0.0,0.0,0.0,0.0,0.0,0.0,0.0,-4.073,-4.1407,-4.1931,-4.2844,-4.3392,-4.3392,-4.2726,-4.2066,-4.1542,0.0,0.0,0.0,0.0,0.0,-4.3938,-4.4908,-4.6126,-4.7614,-4.8342,-4.8798,-4.9001,-4.9001,-4.939,-5.0101,-5.0304,-5.0591,-5.0879,-5.0321,-4.9204,-4.7614,-4.5585,-4.457,-4.4181,0.0,0.0,0.0,0.0,0.0,0.0,0.0,0.0,0.0,0.0,0.0,0.0,0.0,0.0,0.0,0.0,0.0,0.0,0.0,0.0,0.0,0.0,0.0,0.0,0.0,0.0,0.0,0.0,0.0,0.0,0.0,-4.8599,-4.9719,-4.9481,-5.0366,-5.0796,-5.0129,-5.0186,-4.9459,-4.7413,-4.7738,-4.7885,-4.7344,-4.8173,-4.8714,-4.8714,-4.89,-4.9001,-4.9001,-4.9001,-4.9001,-4.9001,-4.9001,-4.9001,-4.9001,-4.9001,-4.9001,-4.8984,-4.846,-4.7699,-4.6752,-4.6227,-4.5466,-4.4513,-4.3369,-4.2997,-4.3031,-4.2286,-4.1204,-4.0096,-4.0096,-4.0096,-4.0096,0.0,0.0,0.0,0.0,0.0,0.0,0.0,0.0,0.0,0.0,-4.1001,-4.1813,-4.2236,-4.2963,-4.3392,-4.3392,-4.2455,-4.166,-4.1238,0.0,0.0,0.0,0.0,-4.3521,-4.5495,-4.6244,-4.7179,-4.8376,-4.8798,-4.9171,-4.9458,-4.9458,-5.0016,-5.1014,-5.1014,-5.1268,-5.164,-5.12,-5.0591,-4.9813,-4.8528,-4.7192,-4.5906,-4.5297,-4.4959,-4.4756,-4.413,-4.4422,-4.5047,-4.4627,0.0,0.0,0.0,0.0,0.0,0.0,0.0,0.0,0.0,0.0,0.0,0.0,0.0,0.0,0.0,0.0,0.0,0.0,0.0,0.0,0.0,0.0,0.0,0.0,-5.093,-5.2546,-5.3225,-5.2881,-5.2424,-5.2085,-5.1854,-5.0934,-4.8995,-4.9204,-4.9154,-4.8426,-4.8765,-4.9001,-4.9001,-4.9001,-4.9001,-4.9001,-4.9001,-4.9001,-4.9001,-4.9001,-4.9001,-4.9001,-4.9001,-4.9001,-4.8984,-4.8257,-4.7513,-4.6752,-4.6024,-4.528,-4.453,-4.3633,-4.3132,-4.2878,0.0,0.0,0.0,0.0,-4.0096,-4.0096,0.0,0.0,0.0,0.0,0.0,0.0,0.0,0.0,0.0,0.0,0.0,-4.2168,-4.2168,-4.2828,-4.3223,-4.3156,-4.1965,-4.1204,0.0,0.0,0.0,-4.2506,-4.4039,-4.5512,-4.6887,-4.7665,-4.8359,-4.9001,-4.9086,-4.9458,-5.0084,-5.0185,-5.0963,-5.23,-5.23,-5.235,-5.2435,-5.2334,-5.1928,-5.1303,-5.1303,-5.0067,-4.802,-4.6701,-4.6498,-4.6752,-4.5461,-4.5038,-4.5089,-4.5004,0.0,0.0,0.0,0.0,0.0,0.0,0.0,0.0,0.0,0.0,0.0,0.0,0.0,0.0,0.0,0.0,0.0,0.0,0.0,0.0,0.0,0.0,0.0,0.0,-5.3555,-5.5207,-5.673,-5.5138,-5.3752,-5.3566,-5.2863,-5.1821,-5.0365,-5.0219,-4.9915,-4.9187,-4.912,-4.9086,-4.9001,-4.9001,0.0,0.0,0.0,-4.9001,-4.9001,-4.8934,-4.8934,-4.9001,-4.8917,-4.8883,-4.8849,-4.8122,-4.7378,-4.6616,-4.5906,-4.5196,-4.4598,-4.4513,-4.3606,-4.2202,-4.1407,-4.1136,-4.1119,-4.0383,-4.0096,-4.0096,0.0,0.0,0.0,0.0,0.0,0.0,0.0,0.0,0.0,-4.0096,-4.0865,-4.1407,-4.1407,-4.2066,-4.2269,-4.1694,-4.1373,-4.1204,0.0,0.0,-4.2692,-4.409,-4.5596,-4.6786,-4.7682,-4.8426,-4.8866,-4.9001,-4.9593,-4.9949,-5.0101,-5.071,-5.1471,-5.23,-5.23,-5.2655,-5.323,-5.2587,-5.2232,-5.2097,-5.2097,-5.1116,-4.9644,-4.9357,-4.8595,-4.7665,-4.7378,-4.7648,-4.8054,-4.7462,-4.8054,-4.8781,-4.7432,0.0,0.0,0.0,0.0,0.0,0.0,0.0,0.0,0.0,0.0,0.0,0.0,0.0,0.0,0.0,0.0,0.0,0.0,0.0,0.0,-5.2663,-5.4858,-5.6675,-5.7629,-5.7372,-5.64,-5.457,-5.316,-5.197,-5.1065,-5.0997,-5.0693,-4.9932,-4.9881,-4.9627,-4.9035,-4.9001,-4.9001,-4.9001,-4.9001,-4.9001,-4.9001,-4.8426,-4.8426,-4.9001,-4.8409,0.0,-4.8075,-4.7344,-4.6616,-4.5872,-4.5111,-4.4733,-4.4564,-4.391,-4.3115,-4.2151,-4.084,-4.0679,-4.1119,-4.0383,-4.0096,-4.0096,0.0,0.0,0.0,0.0,0.0,0.0,0.0,0.0,0.0,0.0,-4.073,-4.1204,-4.1204,-4.1525,-4.1593,-4.1238,-4.0865,0.0,0.0,-4.2439,-4.3876,-4.6143,-4.731,-4.8426,-4.9511,-4.9932,-5.0118,-5.0118,-5.0473,-5.0845,-5.12,-5.1589,-5.2164,-5.2909,-5.2909,-5.3129,-5.3467,-5.3078,-5.2909,-5.2909,-5.2909,-5.2469,-5.1758,-5.1352,-5.0524,-4.9545,-4.9545,-4.956,-4.9492,-4.9137,-4.9255,-4.9357,-4.8257,-4.7382,-4.6667,0.0,0.0,0.0,0.0,0.0,0.0,0.0,0.0,0.0,0.0,0.0,0.0,0.0,0.0,-4.7011,0.0,0.0,-5.258,-5.4195,-5.6104,-5.7404,-5.7443,-5.7449,-5.7021,-5.5883,-5.4711,-5.357,-5.2478,-5.166,-5.0896,-5.0152,-4.9746,-4.939,-4.9018,-4.9001,-4.9001,-4.9001,-4.9001,-4.9001,-4.9001,-4.8291,-4.8291,-4.9001,-4.8257,-4.7889,-4.7855,-4.7141,-4.6397,-4.5669,-4.4936,-4.4615,-4.4513,-4.3335,-4.2625,-4.2134,-4.0688,-4.0544,-4.1119,-4.0383,-4.0096,-4.0096,0.0,0.0,0.0,0.0,0.0,0.0,0.0,0.0,0.0,0.0,-4.0612,-4.0984,-4.0984,-4.0984,-4.0984,0.0,0.0,0.0,0.0,-4.3352,-4.5116,-4.8003,-4.8968,-4.9982,-5.1183,-5.1185,-5.1185,-5.1185,-5.132,-5.1725,-5.23,-5.2469,-5.2892,-5.3501,-5.3501,-5.3501,-5.3501,-5.3501,-5.3501,-5.3501,-5.3501,-5.3501,-5.3433,-5.279,-5.2164,-5.1657,-5.1657,-5.1082,-5.0338,-5.0473,-5.0033,-4.9323,-4.8717,-4.843,-4.8054,-4.6566,-4.6346,0.0,0.0,0.0,0.0,0.0,0.0,0.0,0.0,0.0,-4.4404,-4.5623,-4.6591,-4.7966,-5.0486,-5.2217,-5.3734,-5.524,-5.6782,-5.7522,-5.6773,-5.6791,-5.6843,-5.6686,-5.6104,-5.519,-5.3832,-5.2601,-5.1494,-5.0606,-4.9847,-4.9373,-4.9221,-4.9086,-4.9001,-4.9001,-4.9001,-4.9001,-4.9001,-4.8291,-4.8291,-4.9001,-4.8257,-4.7889,-4.7855,-4.7141,-4.6397,-4.5669,-4.4936,-4.4615,-4.4479,-4.2956,-4.2286,-4.2134,-4.0688,-4.0468,-4.0916,-4.0333,-4.0096,-4.0096,0.0,0.0,0.0,0.0,0.0,0.0,0.0,0.0,0.0,0.0,0.0,0.0,0.0,0.0,0.0,0.0,0.0,0.0,-4.3122,-4.4654,-4.6481,-4.8781,-5.0219,-5.1016,-5.1185,-5.1185,-5.1185,-5.1185,-5.186,-5.2232,-5.2317,-5.3044,-5.3416,-5.3501,-5.3501,-5.3501,-5.3501,-5.3501,-5.3501,-5.3501,-5.3501,-5.3501,-5.3501,-5.3399,-5.3315,-5.3247,-5.3247,-5.2317,-5.12,-5.1826,-5.1572,-5.0931,-5.0879,-5.0388,-4.956,-4.8105,0.0,-4.5331,-4.3031,-4.1525,-4.1044,-4.2844,-4.2912,-4.32,0.0,0.0,-4.6663,-4.7467,-4.8734,-4.9998,-5.098,-5.241,-5.3713,-5.452,-5.5972,-5.6747,-5.5948,-5.6465,-5.6642,-5.592,-5.5734,-5.5373,-5.456,-5.4337,-5.3616,-5.2162,-5.1386,-5.0676,-4.9999,-4.9357,-4.9001,-4.9001,-4.9001,-4.9001,-4.9001,-4.8291,-4.8291,-4.9001,-4.8257,-4.7889,-4.7855,-4.7141,-4.6397,-4.5669,-4.4936,-4.4615,-4.4479,-4.2956,-4.2286,-4.2134,-4.0688,-4.0146,-4.0214,-4.013,-4.0096,-4.0096,0.0,0.0,0.0,0.0,0.0,0.0,0.0,0.0,0.0,0.0,0.0,0.0,0.0,0.0,0.0,0.0,0.0,0.0,-4.4536,-4.5348,-4.7259,-5.0777,-5.1522,-5.2063,-5.2536,-5.2553,-5.2553,-5.2553,-5.2858,-5.301,-5.301,-5.3348,-5.3501,-5.3501,-5.3501,-5.3737,-5.4143,-5.4143,-5.4397,-5.4786,-5.4786,-5.4532,-5.4093,-5.367,-5.2689,-5.1522,-5.1522,-5.0828,0.0,0.0,-4.983,-4.9999,-5.0422,-4.9763,-4.8612,-4.7581,-4.621,0.0,-4.2794,-4.2151,-4.2134,-4.2642,-4.3842,-4.5246,-4.6498,-4.7462,-4.8409,-4.9593,-5.0659,-5.1602,-5.2413,-5.3401,-5.4226,0.0,-5.5483,-5.592,-5.5161,-5.5724,-5.5761,-5.4548,-5.5202,-5.5408,-5.4665,-5.3788,-5.281,-5.1757,-5.098,-5.0236,-4.9492,-4.9171,-4.9001,-4.9001,-4.9001,-4.9001,-4.9001,-4.7851,-4.7631,-4.8359,-4.7192,-4.6633,-4.6616,-4.6312,-4.5754,-4.501,-4.4231,-4.3656,-4.3166,-4.21,-4.1407,-4.0976,-4.035,-4.0096,-4.0096,-4.0096,-4.0096,-4.0096,0.0,0.0,0.0,0.0,0.0,0.0,0.0,0.0,0.0,0.0,0.0,0.0,0.0,0.0,0.0,0.0,0.0,0.0,0.0,-4.5788,-4.78,-5.1826,-5.2401,-5.2909,-5.3501,-5.3501,-5.3501,-5.3501,-5.3704,-5.3805,-5.3805,-5.4025,-5.4126,-5.4126,-5.4126,-5.4397,-5.4905,-5.4905,-5.5209,-5.5664,-5.5497,-5.4955,-5.416,-5.2993,-5.1285,-4.9509,-4.9712,-4.8934,0.0,0.0,-4.7513,-4.7919,-4.8646,-4.8291,-4.7411,-4.6464,-4.4976,-4.3504,-4.2794,-4.2844,-4.3183,-4.347,-4.5331,-4.7208,-4.7614,-4.8849,-5.0219,-5.1302,-5.2114,-5.2807,-5.3399,-5.3946,-5.4296,-5.4296,-5.4909,-5.5131,-5.4405,-5.4939,-5.4834,-5.337,-5.4096,-5.4638,-5.4339,-5.3642,-5.2846,-5.1924,-5.1157,-5.0331,-4.934,-4.912,-4.9001,-4.9001,-4.9001,-4.89,-4.8714,-4.7648,-4.7276,-4.7597,-4.6515,-4.6007,-4.6007,-4.5788,-4.5297,-4.4581,-4.3978,-4.3301,-4.254,-4.1813,-4.1068,-4.0383,-4.018,-4.0096,-4.013,-4.0333,-4.0282,-4.0096,0.0,0.0,0.0,0.0,0.0,0.0,0.0,0.0,0.0,0.0,0.0,0.0,0.0,0.0,0.0,0.0,0.0,0.0,0.0,-4.5957,-4.8105,-5.1083,-5.2672,-5.3484,-5.3501,-5.3501,-5.3501,-5.3501,-5.4211,-5.4566,-5.4566,-5.531,-5.5614,-5.5614,-5.5614,-5.5666,-5.5683,-5.5683,-5.5664,-5.5649,-5.4921,-5.4194,-5.3298,-5.1048,-4.9272,-4.8041,-4.8781,0.0,0.0,0.0,-4.5314,-4.4869,-4.5602,-4.6295,0.0,-4.5106,-4.3064,0.0,0.0,0.0,-4.3014,-4.5923,-4.7276,-4.8257,-4.9661,-5.1133,-5.2215,-5.2266,-5.2909,-5.3467,-5.3501,-5.3534,-5.3534,-5.3534,-5.4154,-5.4374,-5.3651,-5.4154,-5.4063,-5.2499,-5.2382,-5.269,0.0,-5.4776,-5.4998,-5.3528,-5.2765,-5.1662,-5.0147,-4.939,-4.9001,-4.9001,-4.9001,-4.8663,-4.7922,-4.7872,-4.753,-4.6819,-4.6786,-4.6752,-4.6735,-4.6024,-4.5297,-4.4615,-4.4581,-4.4096,-4.3291,-4.2574,-4.183,-4.1102,-4.0383,-4.0096,-4.0197,-4.0899,-4.0696,-4.0096,0.0,0.0,0.0,0.0,0.0,0.0,0.0,0.0,0.0,0.0,0.0,0.0,0.0,0.0,0.0,0.0,0.0,0.0,0.0,-4.6161,-4.8059,-5.0982,-5.2609,-5.3447,-5.351,-5.3495,-5.375,-5.4232,-5.4482,-5.4583,-5.4617,-5.5361,-5.5681,-5.5681,-5.5681,-5.5987,-5.6444,-5.6444,-5.6444,-5.6376,-5.5632,-5.46,-5.3247,-5.0963,-4.8578,-4.6346,0.0,0.0,0.0,0.0,0.0,0.0,-4.4664,0.0,0.0,-4.2174,0.0,0.0,0.0,0.0,-4.5754,-4.775,-4.9187,-5.0371,-5.1336,-5.2367,-5.3095,-5.3095,-5.2114,-5.1234,-5.1234,-5.1234,-5.1234,-5.1234,-5.2731,-5.3766,-5.3534,-5.3717,-5.329,-5.1757,-5.2445,0.0,0.0,-5.2898,-5.3445,-5.344,-5.2283,-5.1146,-5.0076,-4.9362,-4.8781,-4.8308,-4.8291,-4.7936,-4.7175,-4.6684,-4.6329,-4.6058,-4.5568,-4.5359,-4.5343,-4.506,-4.4852,-4.4581,-4.4045,-4.3369,-4.2608,-4.188,-4.1136,-4.0468,-4.0197,-4.0096,-4.013,-4.0383,-4.0316,-4.018,0.0,0.0,0.0,0.0,0.0,0.0,0.0,0.0,0.0,0.0,0.0,0.0,0.0,0.0,0.0,0.0,0.0,0.0,0.0,0.0,-4.7474,-5.0495,-5.1575,-5.2248,-5.2567,-5.2572,-5.2783,-5.327,-5.4126,-5.4527,-5.4561,-5.5917,-5.6519,-5.6519,-5.6519,-5.6794,-5.7207,-5.6898,-5.6623,-5.6229,-5.4926,-5.347,-5.1826,-4.9082,-4.6845,0.0,0.0,0.0,0.0,0.0,0.0,0.0,0.0,0.0,0.0,0.0,0.0,0.0,0.0,-4.6859,-4.847,-5.0479,-5.1709,-5.2547,-5.3022,-5.3505,-5.3747,-5.3178,-5.1488,-5.0016,-4.9746,-4.9492,-4.9221,-4.8951,-5.0371,-5.1691,-5.2215,-5.2063,-5.1826,-5.164,-5.2192,-5.2368,0.0,0.0,-5.2463,-5.2971,-5.2119,-5.1133,-5.0067,-4.9359,-4.8781,-4.8325,-4.8308,-4.7817,-4.6802,-4.6329,-4.5838,-4.5297,-4.4835,-4.4615,-4.4615,-4.4615,-4.4615,-4.4581,-4.4045,-4.325,-4.2252,-4.1779,-4.0984,-4.0096,-4.0096,-4.0096,-4.013,-4.0417,-4.0476,-4.051,0.0,0.0,0.0,0.0,0.0,0.0,0.0,0.0,0.0,0.0,0.0,0.0,0.0,0.0,0.0,0.0,0.0,0.0,0.0,0.0,0.0,-4.9533,-4.9694,-5.0064,-5.0814,-5.0841,-5.0894,-5.0955,-5.3188,-5.4282,-5.4335,-5.667,-5.7747,-5.7747,-5.7747,-5.7747,-5.7694,-5.6935,-5.6111,-5.5065,-5.2788,-5.0991,-4.9265,-4.5743,0.0,0.0,0.0,0.0,0.0,0.0,0.0,0.0,0.0,0.0,0.0,0.0,0.0,-4.5346,-4.9068,-5.0187,-5.0965,-5.3876,-5.4636,-5.4645,-5.4578,-5.4537,-5.4112,-5.253,-5.0947,-4.9644,0.0,0.0,-4.7581,-4.6904,-4.7564,-4.8646,-5.0067,-4.9661,-4.9999,0.0,0.0,0.0,0.0,0.0,-5.2236,-5.2298,-5.2254,-5.1606,-5.0148,-4.9394,-4.8984,-4.8951,-4.8917,-4.8223,-4.6802,-4.6752,-4.6007,-4.4615,-4.4615,-4.4615,-4.4615,-4.4615,-4.4615,-4.4615,-4.4615,-4.3768,-4.2354,-4.2354,-4.15,-4.0163,-4.0163,-4.0163,-4.0248,-4.0933,-4.1204,-4.1102,0.0,0.0,0.0,0.0,0.0,0.0,0.0,0.0,0.0,0.0,0.0,0.0,0.0,0.0,0.0,0.0,0.0,0.0,0.0,0.0,0.0,0.0,0.0,0.0,0.0,0.0,0.0,0.0,0.0,-5.2594,-5.2657,-5.3792,-5.4367,-5.4367,-5.4367,-5.4367,-5.4349,-5.4127,-5.3246,-5.188,0.0,-4.9704,-4.8655,0.0,0.0,0.0,0.0,0.0,0.0,0.0,0.0,0.0,0.0,-4.3002,-4.3638,0.0,0.0,-4.7941,-4.9627,-5.1343,-5.2964,-5.4256,-5.5022,-5.5118,-5.4039,-5.3788,-5.318,-5.1087,-4.8612,-4.6599,0.0,0.0,0.0,-4.6735,-4.9255,0.0,-5.2503,-5.2469,0.0,-5.23,0.0,-5.2475,-5.1568,-5.1928,-5.2232,-5.2294,-5.1747,-5.1272,-5.0911,-4.9684,-4.8748,-4.8206,-4.7648,-4.7175,-4.6786,-4.6261,-4.5517,-4.4615,-4.4615,-4.4615,-4.4615,-4.4615,-4.4615,-4.4615,-4.4615,-4.4028,-4.3132,-4.3132,-4.2252,-4.0916,-4.0916,-4.0916,-4.0933,-4.1136,-4.1204,-4.117,0.0,0.0,0.0,0.0,0.0,0.0,0.0,0.0,0.0,0.0,0.0,0.0,0.0,0.0,0.0,0.0,0.0,0.0,0.0,0.0,0.0,0.0,0.0,0.0,0.0,0.0,0.0,0.0,0.0,0.0,0.0,-5.2454,-5.2956,-5.2633,-5.2992,-5.3135,-5.3117,-5.2777,0.0,0.0,0.0,0.0,0.0,0.0,0.0,0.0,0.0,0.0,0.0,0.0,0.0,-4.316,-4.3675,-4.4715,-4.6071,-4.7649,0.0,-5.0626,-5.2533,-5.396,-5.5033,-5.5453,-5.5889,-5.5577,-5.3112,-5.2535,-5.1691,-4.8761,-4.6527,-4.4766,-4.3762,-4.4412,-4.5039,0.0,0.0,0.0,-5.1369,-5.1539,-5.186,0.0,-5.2878,0.0,-5.1757,-5.2321,-5.248,-5.1871,-5.1054,-5.0784,-5.1176,-4.9786,-4.8815,-4.8409,-4.7986,-4.7445,-4.6802,-4.6075,-4.5331,-4.4615,-4.4615,-4.4615,-4.4615,-4.4615,-4.4615,-4.4615,-4.4615,-4.3944,-4.2946,-4.3257,-4.2513,-4.1238,-4.1559,-4.1677,-4.1677,-4.1677,-4.1474,-4.1204,0.0,0.0,0.0,0.0,0.0,0.0,0.0,0.0,0.0,0.0,0.0,0.0,0.0,0.0,0.0,0.0,0.0,0.0,0.0,0.0,0.0,0.0,0.0,0.0,0.0,0.0,0.0,0.0,0.0,0.0,0.0,0.0,0.0,0.0,0.0,0.0,0.0,0.0,0.0,0.0,0.0,0.0,0.0,0.0,0.0,0.0,0.0,0.0,0.0,0.0,-4.597,-4.4691,-4.5186,-4.6526,-4.8419,-5.0799,-5.1938,-5.3073,-5.6029,-5.6878,-5.6955,-5.6841,-5.679,-5.5773,-5.2004,-5.1072,-4.9936,-4.626,-4.4734,-4.3692,-4.2577,-4.3348,-4.3906,-4.3136,0.0,-4.7666,-4.934,-4.9509,-5.0456,-5.3179,-5.2892,-5.2469,-5.2469,-5.286,-5.2612,-5.1419,-5.0412,-5.0224,-5.1001,-4.9756,-4.8968,-4.8866,-4.8951,-4.8291,-4.6802,-4.6261,-4.5568,-4.475,-4.475,-4.4699,-4.4615,-4.4615,-4.4615,-4.4615,-4.4615,-4.3853,-4.2642,-4.3301,-4.2743,-4.1559,-4.2202,-4.2439,-4.2439,-4.2439,-4.1982,-4.1356,0.0,0.0,0.0,0.0,0.0,0.0,0.0,0.0,0.0,0.0,-4.8306,-4.8306,0.0,0.0,0.0,0.0,0.0,0.0,0.0,0.0,0.0,0.0,0.0,0.0,0.0,0.0,0.0,0.0,0.0,0.0,0.0,0.0,0.0,0.0,0.0,0.0,0.0,0.0,0.0,0.0,0.0,0.0,0.0,0.0,0.0,0.0,0.0,0.0,0.0,0.0,-4.7497,-4.6532,-4.8501,-4.9392,-5.0119,-5.2428,-5.3641,-5.4616,-5.6391,-5.7359,-5.7709,-5.7036,-5.6437,-5.4979,-5.1176,-4.9851,0.0,0.0,-4.3518,-4.2672,-4.2777,-4.3119,-4.4111,-4.6308,-4.7623,-4.9397,-5.2298,-5.2147,-5.2181,0.0,-5.3382,-5.3298,-5.3298,-5.2261,-5.1719,-5.208,-5.0294,-4.9505,-5.0252,-4.9483,-4.8731,-4.8122,-4.8697,-4.8291,-4.6802,-4.7293,-4.6853,-4.5517,-4.5517,-4.5179,-4.4615,-4.4615,-4.4615,-4.4615,-4.4615,-4.4462,-4.4225,-4.4344,-4.3842,-4.302,-4.3139,-4.3189,-4.3189,-4.3189,-4.2743,-4.21,0.0,0.0,0.0,0.0,0.0,0.0,0.0,-4.86,-4.8471,-4.8912,-4.8967,-4.8802,-4.8361,-4.8306,0.0,0.0,0.0,0.0,0.0,0.0,0.0,0.0,0.0,0.0,0.0,0.0,0.0,0.0,0.0,0.0,0.0,0.0,0.0,0.0,0.0,0.0,0.0,0.0,0.0,0.0,0.0,0.0,0.0,0.0,0.0,0.0,0.0,0.0,0.0,0.0,-4.9102,-4.9084,-5.0767,-5.1834,-5.2743,-5.4211,-5.5206,-5.616,-5.7654,-5.8365,-5.8488,-5.7717,-5.6609,-5.4509,-4.9996,0.0,0.0,0.0,-4.1808,-4.1619,-4.1834,-4.2595,0.0,-4.5434,-4.651,-4.8189,-5.1196,-5.1357,-5.1742,-5.3315,-5.3501,-5.3501,-5.3501,-5.2841,-5.2384,-5.23,-5.0963,-5.0135,-5.0084,-4.9407,-4.8849,-4.8494,-4.8832,-4.8477,-4.7394,-4.7344,-4.6786,-4.5703,-4.5314,-4.4925,-4.4615,-4.4615,-4.4615,-4.4615,-4.4615,-4.435,-4.4012,-4.4445,-4.413,-4.3426,-4.3859,-4.4012,-4.4012,-4.4012,-4.3284,-4.2286,0.0,0.0,0.0,0.0,0.0,0.0,0.0,-4.9022,-4.8893,-4.9757,-4.9867,-4.9517,-4.8673,-4.8581,-4.8508,0.0,0.0,0.0,0.0,0.0,0.0,0.0,0.0,0.0,0.0,0.0,0.0,0.0,0.0,0.0,0.0,0.0,0.0,0.0,0.0,0.0,0.0,0.0,0.0,0.0,0.0,0.0,0.0,0.0,0.0,0.0,0.0,0.0,0.0,0.0,-5.0357,-5.0991,-5.1995,-5.3346,-5.4695,-5.5256,-5.6383,-5.7691,-5.9024,-5.9425,-5.928,-5.853,-5.6844,-5.4068,-4.9044,-4.7159,0.0,-4.1119,-4.0521,-4.085,-4.1223,-4.209,-4.3134,0.0,-4.5121,-4.6674,-4.9742,-5.026,-5.1121,0.0,-5.3501,0.0,-5.3501,-5.3348,0.0,-5.235,-5.1471,-5.0642,-4.9898,-4.9306,-4.9001,-4.9001,-4.9001,-4.8731,-4.8125,-4.7564,-4.6904,-4.6177,-4.5415,-4.5004,-4.4852,-4.4682,-4.4615,-4.4615,-4.4615,-4.4231,-4.3724,-4.4333,-4.4215,-4.3724,-4.4333,-4.4615,-4.4615,-4.4615,-4.3707,-4.254,0.0,0.0,0.0,0.0,0.0,0.0,0.0,-4.9537,-4.9776,-5.0582,-5.0692,-5.038,-4.9574,-4.9482,-4.915,0.0,0.0,0.0,0.0,0.0,0.0,0.0,0.0,0.0,0.0,0.0,0.0,0.0,0.0,0.0,0.0,0.0,0.0,0.0,0.0,0.0,0.0,0.0,0.0,0.0,0.0,0.0,0.0,0.0,0.0,0.0,0.0,0.0,0.0,0.0,0.0,-5.0945,-5.1782,-5.3156,-5.4518,-5.4517,0.0,0.0,-6.0066,-6.0292,-6.012,-5.9365,-5.6933,-5.3516,-4.8933,0.0,-4.4765,-4.149,-4.0473,-4.0666,-4.2241,-4.1801,-4.2271,-4.5569,0.0,-4.6602,-5.0538,-5.1045,-5.163,-5.3297,0.0,0.0,-5.3501,-5.2841,-5.2384,-5.2317,-5.0997,-4.9881,-4.9137,-4.9035,-4.9001,-4.9001,-4.9001,-4.8968,-4.89,-4.8832,-4.8443,-4.7669,-4.6955,-4.6244,-4.5585,-4.4919,-4.4615,-4.4615,-4.4615,-4.4564,-4.4513,-4.4581,-4.4564,-4.4513,-4.4581,-4.4615,-4.4615,-4.4615,-4.4045,-4.3291,0.0,0.0,0.0,0.0,0.0,0.0,-4.9482,-4.9132,-4.9297,-5.0637,-5.0802,-5.0674,-5.0362,-5.0306,-4.9774,0.0,0.0,0.0,0.0,0.0,0.0,0.0,0.0,0.0,0.0,0.0,0.0,-4.8306,-4.882,0.0,0.0,0.0,0.0,0.0,0.0,0.0,0.0,0.0,0.0,0.0,0.0,0.0,0.0,0.0,0.0,0.0,0.0,0.0,0.0,0.0,0.0,0.0,-4.927,-5.0853,0.0,0.0,-5.6053,-5.8211,-5.9935,-6.0409,-6.0329,-6.0028,-5.6909,-5.2948,-4.9437,0.0,-4.4073,-4.1053,-4.0254,-4.041,-4.1424,-4.1263,-4.1661,0.0,0.0,0.0,-4.7294,-4.7427,-4.826,-5.1097,-5.1454,0.0,0.0,0.0,-5.2638,-5.1725,-5.1099,-5.0253,-4.9069,-4.9001,-4.9001,-4.9001,-4.9001,-4.9001,-4.9001,-4.8578,-4.8176,-4.7872,-4.7141,-4.665,-4.6346,-4.5602,-4.5263,-4.5229,-4.4801,-4.4615,-4.4615,-4.4615,-4.4615,-4.4615,-4.4615,-4.4615,-4.4615,-4.4615,-4.4079,-4.3392,0.0,0.0,0.0,0.0,0.0,-4.86,-4.9482,-4.9077,-4.9187,-5.0618,-5.0802,-5.0802,-5.0802,-5.0582,-4.9976,-4.8783,0.0,0.0,0.0,0.0,0.0,0.0,0.0,0.0,0.0,0.0,-4.8434,-4.8673,-4.9317,-4.9427,0.0,0.0,0.0,0.0,0.0,0.0,0.0,0.0,0.0,0.0,0.0,0.0,0.0,0.0,0.0,0.0,0.0,0.0,0.0,0.0,0.0,0.0,0.0,0.0,0.0,0.0,-5.4813,-5.7227,-5.887,-5.9686,-6.0004,-5.9755,-5.6522,-5.2636,0.0,0.0,-4.3798,-4.1265,-4.04,-4.0347,-4.1114,-4.0929,-4.111,0.0,0.0,-4.316,-4.5196,-4.5323,-4.6249,-4.9117,0.0,-5.0253,-5.23,-5.3293,-5.3282,-5.196,-5.1657,-5.0901,-4.9371,-4.9107,-4.9001,-4.9001,-4.9001,-4.9001,-4.9001,-4.8494,-4.824,-4.824,-4.7479,-4.7124,-4.7107,-4.6363,-4.6024,-4.5974,-4.5246,-4.4925,-4.4891,-4.4699,-4.4615,-4.4615,-4.4615,-4.4615,-4.4615,-4.4615,-4.4231,-4.3758,0.0,0.0,0.0,0.0,0.0,0.0,0.0,-4.9592,-4.9886,-5.0692,-5.0802,-5.0802,-5.0802,-5.0106,-4.961,-4.9592,0.0,0.0,0.0,0.0,0.0,0.0,0.0,0.0,0.0,0.0,-4.8728,-4.9592,-4.961,-4.9994,-5.0802,-5.161,-5.1977,0.0,0.0,0.0,0.0,0.0,0.0,0.0,0.0,0.0,0.0,0.0,0.0,0.0,0.0,0.0,0.0,0.0,0.0,0.0,0.0,0.0,0.0,0.0,-5.2983,-5.6799,-5.6818,-5.7992,-5.9042,-5.8311,-5.5742,-5.2617,0.0,0.0,-4.4067,-4.259,-4.1128,-4.0517,-4.1833,-4.0996,-4.0559,-4.1892,0.0,0.0,-4.5479,-4.6203,-4.6911,0.0,-4.7906,-4.8528,-4.9982,-5.2846,-5.4234,-5.3429,-5.2752,-5.1691,-5.0091,-4.9359,-4.9001,-4.9001,-4.9001,-4.9001,-4.9001,-4.9001,-4.8984,-4.8984,-4.8227,-4.7872,-4.7855,-4.7124,-4.6786,-4.6735,-4.6007,-4.5703,-4.5635,-4.4919,-4.4615,-4.4615,-4.4615,-4.4615,-4.4615,-4.4615,-4.4598,-4.4598,0.0,0.0,0.0,0.0,0.0,0.0,0.0,-4.871,-4.9022,-4.9886,-4.9996,-5.0178,-5.0747,-5.0068,-4.961,-4.961,0.0,0.0,0.0,0.0,0.0,0.0,0.0,0.0,0.0,0.0,-4.8728,-4.961,-5.0141,-5.0545,-5.0839,-5.2197,-5.2527,-5.2032,-5.2839,0.0,0.0,0.0,0.0,0.0,0.0,0.0,0.0,0.0,0.0,0.0,0.0,0.0,0.0,0.0,0.0,0.0,0.0,0.0,0.0,0.0,0.0,0.0,-5.4711,-5.5537,-5.5752,-5.5064,-5.221,-4.9208,-4.7806,-4.4777,-4.2108,-4.1645,-4.0764,-4.0214,-4.066,-4.0693,-4.1006,-4.2074,-4.2806,0.0,0.0,0.0,0.0,-4.7733,-5.0611,-5.2647,-5.3129,-5.4503,-5.4811,-5.3568,-5.2792,-5.1726,-5.0131,-4.9379,-4.9001,-4.9001,-4.9001,-4.9001,-4.9001,-4.9001,-4.9001,-4.9001,-4.8765,-4.8663,-4.8646,-4.7902,-4.7564,-4.7496,-4.6244,-4.5703,-4.5652,-4.4919,-4.4615,-4.4615,-4.4615,-4.4615,-4.4615,-4.4615,-4.4615,-4.4615,0.0,0.0,0.0,0.0,0.0,0.0,0.0,-4.8306,-4.8489,-4.904,-4.9095,-4.9426,-5.0251,-4.9609,-4.9243,-4.9574,0.0,0.0,0.0,0.0,0.0,0.0,0.0,0.0,0.0,-4.8948,-4.9499,-5.0949,-5.1463,-5.1867,-5.2179,-5.3188,-5.3225,-5.2472,-5.2986,0.0,0.0,0.0,0.0,0.0,0.0,0.0,-5.3185,0.0,0.0,0.0,0.0,0.0,0.0,0.0,0.0,0.0,0.0,0.0,0.0,0.0,0.0,0.0,0.0,-5.3039,-5.339,-5.2714,-5.0169,0.0,0.0,-4.3909,-4.1627,-4.1627,-4.0968,-4.0502,-4.0785,-4.1075,-4.1423,-4.2026,-4.2714,0.0,0.0,0.0,0.0,-4.7703,-5.0841,-5.3139,-5.3706,-5.4957,-5.532,-5.4409,-5.3671,-5.2561,-5.1011,-4.995,-4.9289,-4.9018,-4.9001,-4.9001,-4.9001,-4.9001,-4.9001,-4.9001,-4.9001,-4.9001,-4.8984,-4.8528,-4.8173,-4.7821,-4.6633,-4.5957,0.0,-4.4919,-4.4615,-4.4615,-4.4615,-4.4615,-4.4615,-4.4615,-4.4615,-4.4615,0.0,0.0,0.0,0.0,0.0,0.0,0.0,0.0,0.0,-4.8306,-4.8306,-4.8618,-4.9427,-4.8783,-4.8636,-4.9445,0.0,0.0,0.0,0.0,0.0,0.0,0.0,0.0,0.0,-5.0051,-5.0802,-5.3115,-5.3115,-5.3537,-5.4308,-5.4308,-5.3922,-5.3185,-5.3185,-5.3185,0.0,0.0,0.0,0.0,0.0,0.0,0.0,0.0,0.0,0.0,0.0,0.0,0.0,0.0,0.0,0.0,0.0,0.0,0.0,0.0,0.0,0.0,0.0,-5.0383,-5.1604,-5.0858,-4.9109,0.0,0.0,-4.3775,0.0,-4.2202,-4.1483,-4.1092,-4.1899,-4.185,-4.1717,-4.1823,-4.2573,0.0,0.0,-4.5299,0.0,0.0,-4.9548,-5.1022,-5.2356,-5.4521,-5.5838,-5.5797,-5.5098,-5.3982,-5.2404,-5.0964,-4.9808,-4.9035,-4.9001,-4.9001,-4.9001,-4.9001,-4.9001,-4.9001,-4.9001,-4.9001,-4.9001,-4.9001,-4.8646,-4.7922,-4.7192,-4.6464,-4.572,-4.4976,-4.4649,-4.4615,-4.4615,-4.4615,-4.4615,-4.4615,-4.4615,-4.4615,0.0,0.0,0.0,0.0,0.0,0.0,0.0,0.0,0.0,0.0,-4.8306,-4.8379,-4.8581,-4.8416,-4.8379,0.0,0.0,0.0,0.0,0.0,0.0,0.0,0.0,0.0,-4.9867,-5.0288,-5.1096,-5.227,-5.227,-5.2692,-5.3482,-5.3482,-5.339,-5.3185,-5.3185,-5.3185,0.0,0.0,0.0,0.0,0.0,0.0,0.0,0.0,0.0,0.0,-5.2289,-5.1481,0.0,0.0,0.0,0.0,0.0,0.0,0.0,0.0,-4.4903,0.0,-4.4657,0.0,-4.7431,-4.6766,-4.5481,-4.4293,0.0,0.0,0.0,-4.1339,-4.0824,-4.0525,-4.1265,-4.0922,-4.0866,-4.1988,-4.2372,-4.2966,-4.4327,-4.7157,-4.9407,-5.0306,-5.2766,-5.4079,-5.3319,-5.5793,-5.7218,-5.6667,-5.5944,-5.4616,-5.2502,-5.1523,-5.0399,-4.9049,-4.9001,-4.9001,-4.9001,-4.9001,-4.9001,-4.9001,-4.9001,-4.9001,-4.9001,-4.9001,-4.8917,-4.8714,-4.797,-4.7225,-4.6481,-4.5754,-4.5094,-4.4615,-4.4615,-4.4615,-4.4615,-4.4615,-4.4615,-4.4615,0.0,0.0,0.0,0.0,0.0,0.0,0.0,0.0,0.0,0.0,0.0,0.0,0.0,0.0,0.0,0.0,0.0,0.0,0.0,0.0,0.0,0.0,0.0,-4.9959,-5.0694,-5.1132,-5.1922,-5.3096,-5.3096,-5.3316,-5.3757,-5.3757,-5.3555,-5.3185,-5.3185,-5.3185,0.0,0.0,0.0,0.0,-5.3185,0.0,0.0,0.0,0.0,0.0,-5.1444,-5.0857,0.0,-4.9407,-4.83,-4.7342,0.0,0.0,0.0,0.0,-4.3769,-4.3629,-4.2705,-4.3629,-4.4789,-4.4425,-4.3568,-4.2766,-4.2451,0.0,0.0,0.0,-4.0576,-4.0593,-4.0996,-4.0948,-4.1248,-4.24,-4.2644,0.0,0.0,0.0,-4.9627,-5.1016,-5.2654,-5.3601,-5.3515,-5.5274,-5.6268,-5.5854,-5.5785,-5.4792,-5.2537,-5.2027,-5.0952,-4.9066,-4.9001,-4.9001,-4.9001,-4.9001,-4.9001,-4.9001,-4.9001,-4.9001,-4.9001,-4.9001,-4.8832,-4.8477,-4.8058,-4.731,-4.6261,-4.5872,-4.5263,-4.4615,-4.4615,-4.4615,-4.4615,-4.4615,-4.4615,-4.4615,0.0,0.0,0.0,0.0,0.0,0.0,0.0,0.0,0.0,0.0,0.0,0.0,0.0,0.0,0.0,0.0,0.0,0.0,0.0,0.0,0.0,0.0,0.0,-5.0308,-5.1775,-5.194,-5.2729,-5.4216,-5.4216,-5.4216,-5.4216,-5.4344,-5.4051,-5.339,-5.324,-5.3185,0.0,0.0,0.0,0.0,-5.3185,0.0,0.0,0.0,0.0,0.0,0.0,0.0,0.0,-4.8831,-4.7785,-4.6981,-4.6312,0.0,0.0,0.0,0.0,0.0,-4.1748,-4.2416,-4.315,-4.3128,-4.2629,-4.1965,-4.1339,0.0,0.0,0.0,-4.0449,-4.0814,-4.0935,-4.1353,-4.1952,-4.2685,-4.3343,-4.4627,-4.7128,-4.8122,-4.9207,-5.0982,-5.15,-5.214,-5.3226,-5.4298,-5.4909,-5.4787,-5.536,-5.4758,-5.2507,-5.2275,-5.1244,-4.9083,-4.9001,-4.9001,-4.9001,-4.9001,-4.9001,-4.9001,-4.9001,-4.9001,-4.9001,-4.9001,-4.8663,-4.8058,-4.8058,-4.7242,-4.5872,-4.5872,-4.5365,-4.4615,-4.4615,-4.4615,-4.4615,-4.4615,-4.4682,-4.4784,0.0,0.0,0.0,0.0,0.0,0.0,0.0,0.0,0.0,0.0,0.0,0.0,0.0,0.0,0.0,0.0,0.0,0.0,0.0,0.0,0.0,0.0,-4.9225,-5.0013,-5.0967,-5.1646,-5.2454,-5.339,-5.339,-5.339,-5.3387,-5.4087,-5.4326,-5.4197,-5.35,-5.3185,-5.3185,-5.3185,-5.3185,-5.3185,-5.3185,0.0,0.0,0.0,0.0,0.0,0.0,0.0,0.0,-4.8634,-4.7326,-4.5678,-4.4958,0.0,0.0,0.0,0.0,0.0,-4.1316,-4.1861,-4.2432,-4.2317,-4.1808,-4.1339,-4.1238,0.0,0.0,0.0,0.0,0.0,0.0,-4.1231,-4.1529,-4.2261,-4.4555,-4.7242,-5.0118,-5.1166,-5.1522,-5.1219,-5.2895,-5.3691,-5.2684,-5.498,-5.6259,-5.5581,-5.5687,-5.4786,-5.252,-5.1818,-5.071,-4.9049,-4.9001,-4.9001,-4.9001,-4.9001,-4.9001,-4.9001,-4.9001,-4.9001,-4.9001,-4.9001,-4.8951,-4.8832,-4.8832,-4.7986,-4.6616,-4.6616,-4.5821,-4.4615,-4.4615,-4.4615,-4.4615,-4.4615,-4.4993,-4.5534,0.0,0.0,0.0,0.0,0.0,0.0,0.0,0.0,0.0,0.0,0.0,0.0,0.0,0.0,0.0,0.0,0.0,0.0,0.0,0.0,0.0,-4.8967,-4.939,-4.9996,-5.0784,-5.1591,-5.2601,-5.3849,-5.3849,-5.4069,-5.4491,-5.4436,-5.4399,-5.4363,-5.3573,-5.3185,-5.3185,-5.3185,-5.3185,-5.3185,0.0,0.0,0.0,0.0,0.0,0.0,0.0,0.0,0.0,0.0,-4.6557,-4.5373,-4.4618,0.0,0.0,0.0,0.0,0.0,-4.0595,-4.0832,-4.118,-4.1536,-4.1707,-4.1593,-4.0781,-4.035,0.0,0.0,0.0,0.0,0.0,-4.1863,-4.3047,-4.501,-4.6819,-4.846,-4.983,-5.0304,-5.0693,-5.1134,-5.213,-5.2829,-5.2983,-5.4256,-5.4913,-5.453,-5.4536,-5.3736,-5.1847,-5.145,-5.059,-4.9049,-4.9001,-4.9001,-4.9001,-4.9001,-4.9001,-4.9001,-4.9001,-4.9001,-4.9001,-4.9001,-4.9001,-4.9001,-4.9001,-4.8156,-4.6819,-4.7225,-4.6532,-4.5229,-4.5618,-4.5799,-4.5799,-4.5799,-4.5737,-4.5703,0.0,0.0,0.0,0.0,0.0,0.0,0.0,0.0,0.0,0.0,0.0,0.0,0.0,0.0,0.0,0.0,0.0,0.0,0.0,0.0,-4.8733,-4.9594,-4.9307,-4.9731,-5.1059,-5.1867,-5.2968,-5.4399,-5.4583,-5.5078,-5.5849,-5.4858,-5.4491,-5.4638,-5.3647,-5.3185,-5.3185,-5.3185,-5.3185,-5.3185,0.0,0.0,0.0,0.0,0.0,0.0,0.0,0.0,0.0,0.0,0.0,0.0,0.0,0.0,0.0,-4.1153,-4.0527,-4.0146,-4.0316,-4.0485,-4.0722,-4.1102,-4.1491,-4.161,-4.1001,-4.0756,-4.0722,-4.1077,0.0,0.0,0.0,-4.2919,-4.4846,-4.7686,-4.8934,-4.9644,-4.9999,-5.005,-5.0473,-5.1591,-5.1758,-5.2215,-5.3399,-5.3668,-5.3616,-5.323,-5.3224,-5.2557,-5.1012,-5.0836,-5.0227,-4.9049,-4.9001,-4.9001,-4.9001,-4.9001,-4.9001,-4.9001,-4.9001,-4.9001,-4.9001,-4.9001,-4.9001,-4.9001,-4.9001,-4.8257,-4.7107,-4.7682,-4.7141,-4.6007,-4.6583,-4.6786,-4.6802,-4.6989,-4.6583,-4.5957,0.0,0.0,0.0,0.0,0.0,0.0,0.0,0.0,0.0,0.0,0.0,0.0,0.0,0.0,0.0,0.0,0.0,0.0,0.0,0.0,-4.8912,-4.9663,-4.8454,-4.9049,-5.1846,-5.2711,-5.3555,-5.4399,-5.5133,-5.5923,-5.6693,-5.5133,-5.4803,-5.5445,-5.3904,-5.3185,-5.3185,-5.3185,-5.3185,-5.3185,-5.3185,0.0,0.0,0.0,0.0,0.0,0.0,0.0,0.0,0.0,0.0,0.0,0.0,0.0,-4.1136,-4.0417,-4.0146,-4.0265,-4.0933,-4.161,-4.1982,-4.1356,-4.0713,-4.0773,-4.2726,-4.2642,-4.254,-4.3988,-4.4276,-4.4045,-4.3386,-4.4519,-4.6278,-4.8562,-5.0118,-5.1555,-5.2976,-5.3179,-5.323,-5.3331,-5.3331,-5.3382,-5.3501,-5.4139,-5.3923,-5.2501,-5.243,-5.1813,-5.0265,-4.9537,-4.9114,-4.9001,-4.9001,-4.9001,-4.9001,-4.9001,-4.9001,-4.9001,-4.9001,-4.9001,-4.9001,-4.9001,-4.9001,-4.9001,-4.9001,-4.8562,-4.7804,-4.7872,-4.7445,-4.6718,-4.6769,-4.6786,-4.687,-4.7581,-4.7361,-4.6718,0.0,0.0,0.0,0.0,0.0,0.0,0.0,0.0,0.0,0.0,0.0,0.0,0.0,0.0,0.0,0.0,0.0,0.0,0.0,0.0,-4.8413,-4.9649,-4.8841,-4.9332,-5.1407,-5.2144,-5.3622,-5.5904,-5.6246,-5.6077,-5.5428,-5.4774,-5.4366,-5.414,-5.3474,-5.3185,-5.3185,-5.3185,-5.2937,-5.2531,-5.2531,-5.2107,0.0,0.0,0.0,0.0,0.0,0.0,0.0,0.0,-4.4232,-4.3257,0.0,0.0,-4.1068,-4.0333,-4.0096,-4.0163,-4.0426,-4.0739,-4.0993,-4.117,-4.0646,-4.057,-4.232,-4.2861,-4.3031,-4.3132,-4.4282,-4.5331,-4.5483,-4.6735,-4.8342,-5.0084,-5.1234,-5.2266,-5.3348,-5.3501,-5.3501,-5.3501,-5.3501,-5.3501,-5.3501,-5.375,-5.368,-5.3094,-5.2626,-5.1875,-5.0828,-5.0084,-4.9475,-4.9018,-4.9001,-4.9001,-4.9001,-4.9001,-4.9001,-4.9001,-4.9001,-4.9001,-4.9001,-4.9001,-4.9001,-4.9001,-4.9001,-4.8595,-4.7922,-4.8409,-4.8156,-4.753,-4.7986,-4.8173,-4.8206,-4.8494,-4.8122,-4.7496,0.0,0.0,0.0,0.0,0.0,0.0,0.0,0.0,0.0,0.0,0.0,0.0,0.0,0.0,0.0,0.0,0.0,0.0,-4.9697,-4.8941,-4.8992,-5.0091,-4.9279,-4.9541,-5.1148,-5.1843,-5.3339,-5.5728,-5.6251,-5.5875,-5.4603,-5.4545,-5.41,-5.3322,-5.3243,-5.3188,-5.32,-5.3213,-5.2915,-5.2445,-5.2183,-5.1692,0.0,0.0,0.0,0.0,0.0,0.0,0.0,0.0,-4.3707,0.0,0.0,0.0,0.0,0.0,-4.0096,-4.0096,-4.0096,-4.0096,-4.0231,-4.073,-4.0646,-4.0908,-4.2634,-4.3606,-4.4265,-4.4671,-4.5635,-4.6633,-4.7361,-4.8139,-4.9154,-5.0625,-5.1674,-5.2587,-5.3399,-5.3501,-5.3501,-5.3501,-5.3501,-5.3501,-5.3501,-5.3501,-5.3315,-5.2824,-5.2486,-5.1775,-5.0591,-5.0253,-4.9763,-4.9018,-4.9001,-4.9001,-4.9001,-4.9001,-4.9001,-4.9001,-4.9001,-4.9001,-4.9001,-4.9001,-4.9001,-4.9001,-4.9001,-4.8714,-4.8308,-4.8798,-4.8714,-4.8308,-4.8798,-4.9001,-4.9001,-4.9001,-4.8697,-4.8193,0.0,0.0,0.0,0.0,0.0,0.0,0.0,0.0,0.0,0.0,0.0,0.0,0.0,0.0,0.0,0.0,0.0,0.0,-4.9879,-5.0452,-5.0922,-5.1059,-4.9617,-4.9573,-5.1246,-5.2003,-5.2724,-5.3405,-5.4945,-5.5281,-5.4558,-5.4502,-5.4074,-5.337,-5.3235,-5.3184,-5.3171,-5.3182,-5.3185,-5.3103,-5.2381,-5.1685,-5.0849,0.0,0.0,0.0,0.0,0.0,0.0,0.0,-4.2929,0.0,0.0,0.0,0.0,0.0,-4.0096,-4.0096,-4.0096,-4.0096,-4.0096,-4.0113,-4.0646,-4.1813,-4.4107,-4.5162,-4.6532,-4.9475,-4.8934,-4.8139,-4.8866,-4.8409,-4.8409,-4.9847,-5.1336,-5.257,-5.3399,-5.3501,-5.3501,-5.3501,-5.3501,-5.3501,-5.3501,-5.3501,-5.2875,-5.132,-5.1894,-5.1336,-4.9137,-4.9712,-4.9763,-4.9018,-4.9001,-4.9001,-4.9001,-4.9001,-4.9001,-4.9001,-4.9001,-4.9001,-4.9001,-4.9001,-4.9001,-4.9001,-4.9001,-4.9001,-4.9001,-4.9001,-4.9001,-4.9001,-4.9001,-4.9001,-4.9001,-4.9001,-4.9001,-4.89,0.0,0.0,0.0,0.0,0.0,0.0,0.0,0.0,0.0,0.0,0.0,0.0,0.0,0.0,0.0,0.0,0.0,0.0,-4.9144,-4.8342,-4.8364,-4.9453,-4.8642,-4.8648,-4.9653,-5.0408,-5.1917,-5.4256,-5.4186,-5.3207,-5.1468,-5.2486,-5.2278,-5.1043,-5.2066,-5.2205,-5.1714,-5.1719,-5.1436,-5.0929,-5.0716,-5.0213,-4.949,0.0,0.0,0.0,0.0,0.0,0.0,0.0,0.0,0.0,0.0,0.0,0.0,-4.0096,-4.0096,-4.0096,-4.0096,-4.0096,-4.0231,-4.073,-4.1424,-4.2574,-4.484,-4.5128,0.0,0.0,-4.8578,-4.8139,-4.8866,-4.8832,-4.8984,-4.9932,-5.0896,-5.1995,-5.3315,-5.3501,-5.3298,-5.2723,-5.3162,-5.3281,-5.2706,-5.3179,-5.3315,-5.2858,-5.2503,-5.1792,-5.0625,-5.0253,-4.9763,-4.9018,-4.9001,-4.9001,-4.9001,-4.9001,-4.9001,-4.9001,-4.9001,-4.9001,-4.9001,-4.9001,-4.9001,-4.9001,-4.9001,-4.9001,-4.9001,-4.9001,-4.9001,-4.9001,-4.9001,-4.9001,-4.9001,-4.9001,-4.9001,-4.8968,0.0,0.0,0.0,0.0,0.0,0.0,0.0,0.0,0.0,0.0,0.0,0.0,0.0,0.0,0.0,0.0,0.0,0.0,0.0,-4.8575,-4.8651,-4.9232,-4.8661,-4.8651,-4.9432,-5.017,-5.1432,-5.3292,-5.2814,-5.1725,-5.0132,-5.1601,-5.1644,-5.0532,-5.1983,-5.2233,-5.1558,-5.1556,-5.1105,-5.039,-5.01,-4.978,-4.9291,0.0,0.0,0.0,0.0,0.0,0.0,0.0,0.0,0.0,0.0,0.0,0.0,-4.0096,-4.0096,-4.0096,-4.0096,-4.0096,-4.0282,-4.1018,-4.1982,-4.3267,-4.5263,-4.6261,-4.7361,-4.9458,-4.9069,-4.8578,-4.9306,-4.8968,-4.89,-4.9915,-5.0727,-5.1539,-5.2469,-5.2841,-5.2739,-5.1961,-5.23,-5.2401,-5.1911,-5.257,-5.2909,-5.2621,-5.2418,-5.186,-5.0828,-5.0338,-4.9763,-4.9018,-4.9001,-4.9001,-4.9001,-4.9001,-4.9001,-4.9001,-4.9001,-4.9001,-4.9001,-4.9001,-4.9001,-4.9001,-4.9001,-4.9001,-4.9001,-4.9001,-4.9001,-4.9001,-4.9001,-4.9001,-4.9001,-4.9001,-4.9001,-4.8968,0.0,0.0,0.0,0.0,0.0,0.0,0.0,0.0,0.0,0.0,0.0,0.0,0.0,0.0,0.0,0.0,0.0,0.0,0.0,0.0,-5.0565,-5.0016,-4.9301,-4.9284,-5.0091,-5.0711,-5.1055,-5.1182,-5.1123,-5.0727,-5.0031,-5.1524,-5.1823,-5.118,-5.2515,-5.2728,-5.2092,-5.1938,-5.1528,-5.085,-5.0202,-4.989,-4.9781,-4.8494,0.0,0.0,0.0,0.0,0.0,0.0,0.0,0.0,-4.1508,-4.0747,-4.0096,-4.0096,-4.0096,-4.0096,-4.0096,-4.0146,-4.0383,-4.1119,-4.2523,-4.4102,-4.5652,-4.8071,-5.0168,-5.0794,-4.9949,-4.9306,-4.9965,-4.8951,-4.8477,-4.9864,-5.0659,-5.1133,-5.12,-5.1792,-5.1928,-5.12,-5.1166,-5.1183,-5.1116,-5.1843,-5.1995,-5.1268,-5.1826,-5.1589,-5.0168,-5.0033,-4.9678,-4.9018,-4.9001,-4.9001,-4.9001,-4.9001,-4.9001,-4.9001,-4.8934,-4.89,-4.89,-4.8968,-4.9001,-4.9001,-4.9001,-4.9001,-4.9001,-4.9001,-4.9001,-4.9001,-4.9001,-4.9001,-4.9001,-4.9001,-4.9001,-4.89,0.0,0.0,0.0,0.0,0.0,0.0,0.0,0.0,0.0,0.0,0.0,0.0,0.0,0.0,0.0,0.0,0.0,0.0,0.0,0.0,-4.9021,-4.9941,-4.932,-4.9345,-5.0076,-4.9687,-4.9772,-5.0379,-5.0331,-4.9965,-4.9272,-5.0764,-5.1038,-5.0386,-5.1245,-5.1239,-5.0535,-4.9922,-4.9603,-4.9449,-4.9286,-4.9212,-4.9195,-4.8877,-4.8054,0.0,0.0,0.0,0.0,0.0,0.0,0.0,-4.21,-4.1179,-4.0096,-4.0096,-4.0096,-4.0096,-4.0096,-4.051,-4.1136,-4.188,-4.4079,-4.6464,-4.7953,-4.8781,-4.912,-4.8714,-4.9289,-4.9898,-5.005,-4.9373,-4.9069,-4.9949,-5.0219,-5.0541,-5.1133,-5.1352,-5.1166,-5.0422,-5.0862,-5.098,-5.0388,-5.1522,-5.1995,-5.1268,-5.1369,-5.1065,-5.0135,-4.9543,-4.9171,-4.9018,-4.9001,-4.9001,-4.9001,-4.9001,-4.9001,-4.9001,-4.8426,-4.8125,-4.8173,-4.8748,-4.9001,-4.9001,-4.9001,-4.9001,-4.9001,-4.9001,-4.9001,-4.9001,-4.9001,-4.9001,-4.9001,-4.9001,-4.9001,-4.8984,0.0,0.0,0.0,0.0,0.0,0.0,0.0,0.0,0.0,0.0,0.0,0.0,0.0,0.0,0.0,0.0,0.0,0.0,0.0,0.0,0.0,-4.9504,-4.9505,-4.9543,-4.956,-4.9543,-4.9543,-4.956,-4.956,-4.9373,-4.9018,-5.0152,-5.0473,-5.0118,-5.0879,-5.0794,-5.0067,-4.9678,-4.9323,-4.9001,-4.9001,-4.9001,-4.9001,-4.9001,-4.8528,-4.775,-4.7039,0.0,0.0,0.0,0.0,0.0,0.0,0.0,-4.0096,-4.0096,-4.0096,-4.0096,-4.0096,-4.0629,-4.1559,-4.3014,-4.5094,-4.709,-4.8223,-4.8748,-4.8798,-4.8041,-4.8798,-4.956,-4.956,-4.9255,-4.9137,-4.9509,-4.9864,-5.0101,-5.0152,-5.0456,-5.0405,-4.9661,-4.9915,-4.9999,-4.961,-5.0591,-5.1082,-5.071,-5.0676,-5.0507,-5.0101,-4.9407,-4.9001,-4.9001,-4.9001,-4.9001,-4.9001,-4.9001,-4.9001,-4.9001,-4.8612,-4.8227,-4.7906,-4.8308,-4.8477,-4.8494,-4.8849,-4.9001,-4.9001,-4.9001,-4.9001,-4.9001,-4.9001,-4.9001,-4.9001,-4.9001,-4.9001,-4.8951,0.0,0.0,0.0,0.0,0.0,0.0,0.0,0.0,0.0,0.0,0.0,0.0,0.0,0.0,0.0,0.0,0.0,0.0,0.0,0.0,0.0,-4.9032,-4.9576,-4.9678,-4.9204,-4.9661,-4.9661,-4.9187,-4.9069,-4.9001,-4.9018,-4.9746,-5.0084,-5.0118,-5.0744,-5.0676,-5.0084,-4.9949,-4.956,-4.9001,-4.9001,-4.9001,-4.9001,-4.9001,-4.8849,-4.846,-4.7242,-4.6633,-4.6227,-4.5021,0.0,0.0,0.0,0.0,-4.0096,-4.0096,-4.0096,-4.0096,-4.0096,-4.0713,-4.1914,-4.4073,-4.5703,-4.6955,-4.7581,-4.8291,-4.8612,-4.7868,-4.8308,-4.8781,-4.8646,-4.8731,-4.8815,-4.8815,-4.9424,-4.9644,-4.8917,-4.9441,-4.9644,-4.89,-4.8934,-4.9001,-4.9001,-4.9661,-5.0033,-4.9915,-5.0016,-5.0033,-4.9915,-4.9323,-4.9001,-4.9001,-4.9001,-4.9001,-4.9001,-4.9001,-4.8951,-4.8815,-4.8562,-4.8054,-4.7344,-4.7449,-4.7652,-4.7922,-4.8697,-4.9001,-4.9001,-4.9001,-4.9001,-4.9001,-4.9001,-4.9001,-4.9001,-4.9001,-4.9001,-4.8917,0.0,0.0,0.0,0.0,0.0,0.0,0.0,0.0,0.0,0.0,0.0,0.0,0.0,0.0,0.0,0.0,0.0,0.0,0.0,0.0,0.0,-4.9032,-4.9086,-4.9407,-4.9932,-4.9424,-4.9407,-4.9949,-4.9306,-4.9001,-4.9018,-4.9746,-5.0084,-5.0084,-5.0202,-5.0185,-5.005,-4.9424,-4.9086,-4.9001,-4.9001,-4.9001,-4.9001,-4.9001,-4.8206,-4.7056,-4.6853,-4.5986,-4.4869,-4.4682,-4.3582,0.0,0.0,0.0,-4.0096,-4.0096,-4.0096,-4.0096,-4.0096,0.0,-4.254,0.0,-4.5703,-4.6819,0.0,0.0,-4.7851,-4.7107,-4.753,-4.7868,-4.7208,-4.7631,-4.8041,-4.8041,-4.868,-4.89,-4.8142,-4.8697,-4.8883,-4.8125,-4.8612,-4.9001,-4.9001,-4.9661,-4.983,-4.9187,-4.9729,-4.9813,-4.9187,-4.9052,-4.9001,-4.9001,-4.9001,-4.9001,-4.9001,-4.9001,-4.8697,-4.8024,-4.6752,-4.5754,-4.5072,-4.5703,-4.6701,-4.7922,-4.8697,-4.9001,-4.9001,-4.9001,-4.9001,-4.9001,-4.9001,-4.9001,-4.9001,-4.9001,-4.9001,-4.8984,0.0,0.0,0.0,0.0,0.0,0.0,0.0,0.0,0.0,0.0,0.0,0.0,0.0,0.0,0.0,0.0,0.0,0.0,0.0,0.0,0.0,0.0,-4.9001,-4.9154,-4.9475,-4.9171,-4.9171,-4.9475,-4.9171,-4.9001,-4.9018,-4.9323,-4.9475,-4.9475,-4.9475,-4.9475,-4.9458,-4.9137,-4.9001,-4.9001,-4.9001,-4.8748,-4.8443,0.0,0.0,0.0,0.0,-4.6109,-4.5145,-4.475,-4.3582,-4.2286,-4.2286,0.0,0.0,0.0,-4.0096,-4.0282,-4.1128,-4.1491,-4.2151,0.0,-4.5106,-4.5698,-4.6092,-4.6752,-4.7073,-4.6346,-4.6447,-4.6836,-4.7327,-4.7699,-4.7889,-4.7889,-4.8159,-4.8139,-4.7394,-4.7564,-4.78,-4.7872,-4.7817,-4.8088,-4.8917,-4.8934,-4.89,-4.9001,-4.9306,-4.934,-4.9018,-4.9001,-4.9001,-4.9001,-4.9001,-4.9001,-4.9001,-4.8595,-4.802,-4.7276,-4.6633,-4.5923,-4.5229,-4.5974,-4.6667,-4.7327,-4.8071,-4.8392,-4.8426,-4.8832,-4.8765,-4.8443,-4.8849,-4.9001,-4.9001,-4.9001,-4.9001,-4.9001,0.0,0.0,0.0,0.0,0.0,0.0,0.0,0.0,0.0,0.0,0.0,0.0,0.0,0.0,0.0,0.0,0.0,0.0,0.0,0.0,0.0,0.0,0.0,-4.9001,-4.9001,-4.9001,-4.9001,-4.9001,-4.9001,-4.9001,-4.9001,-4.9001,-4.9001,-4.9001,-4.9001,-4.9001,-4.9001,-4.9001,-4.9001,-4.8984,-4.8798,-4.8409,-4.7922,0.0,-4.7631,0.0,0.0,-4.6041,-4.5331,-4.4801,-4.369,-4.254,-4.2354,-4.1433,0.0,0.0,0.0,-4.035,-4.145,0.0,-4.161,-4.3301,-4.4175,-4.4699,0.0,0.0,-4.6312,-4.5568,-4.5415,-4.5821,-4.7094,-4.7331,-4.7331,-4.7331,-4.7483,-4.7361,-4.6616,-4.6667,-4.6921,-4.731,-4.7022,-4.7225,-4.8325,-4.8122,-4.8139,-4.868,-4.89,-4.9001,-4.9001,-4.9001,-4.9001,-4.9001,-4.9001,-4.9001,-4.9001,-4.8088,-4.7259,-4.6515,-4.6329,-4.594,-4.5432,-4.5974,-4.6329,-4.6566,-4.7513,-4.799,-4.821,-4.8781,-4.868,-4.824,-4.8798,-4.9001,-4.9001,-4.9001,-4.9001,-4.9001,0.0,0.0,0.0,0.0,0.0,0.0,0.0,0.0,0.0,0.0,0.0,0.0,0.0,0.0,-4.9693,-4.9063,0.0,0.0,0.0,0.0,0.0,0.0,0.0,0.0,-4.9001,-4.9001,-4.9001,-4.9001,-4.9001,-4.9001,-4.9001,-4.9001,-4.9001,-4.9001,-4.9001,-4.9001,-4.9001,-4.9001,-4.9001,-4.8951,-4.8257,-4.7922,-4.7821,-4.7175,-4.643,-4.5771,-4.5771,-4.528,-4.4649,-4.4615,-4.4045,-4.3206,-4.2523,-4.1762,-4.1018,0.0,0.0,0.0,0.0,-4.0696,0.0,-4.1356,-4.2997,-4.4401,0.0,0.0,-4.5551,-4.4818,-4.4666,-4.4874,-4.5669,-4.5821,-4.5821,-4.5821,-4.6397,-4.6599,-4.5872,-4.6363,-4.6549,-4.5889,-4.6397,-4.6819,-4.6904,-4.7513,-4.7906,-4.7939,-4.8612,-4.9001,-4.9001,-4.9001,-4.9001,-4.9001,-4.9001,-4.9001,-4.9001,-4.7581,-4.6481,-4.5754,-4.5043,-4.4699,-4.4666,-4.4699,-4.5094,-4.5838,-4.7293,-4.8308,-4.8951,-4.8984,-4.8984,-4.8951,-4.8984,-4.9001,-4.9001,-4.9001,-4.9001,-4.9001,0.0,0.0,0.0,0.0,0.0,0.0,0.0,0.0,0.0,0.0,0.0,0.0,0.0,-4.9212,-4.9256,-4.9032,-4.9001,0.0,0.0,0.0,0.0,0.0,0.0,0.0,0.0,-4.9001,-4.9001,-4.9001,-4.9001,-4.9001,-4.9001,-4.9001,-4.9001,-4.9001,-4.9001,-4.9001,-4.9001,-4.9001,-4.9001,-4.8934,-4.8206,-4.7631,-4.7175,-4.6887,-4.6041,-4.5043,-4.5534,-4.5229,-4.4615,-4.4615,-4.4062,-4.3341,-4.3098,-4.2506,-4.1762,-4.1018,0.0,0.0,0.0,0.0,0.0,-4.166,-4.2506,-4.3047,-4.276,-4.3504,-4.4012,-4.3267,-4.3504,-4.3775,-4.3555,-4.4705,-4.5703,-4.5703,-4.5923,-4.5669,-4.4418,-4.4891,-4.5309,-4.501,-4.5241,-4.5754,-4.6701,-4.6616,-4.6887,-4.7821,-4.8125,-4.8511,-4.8984,-4.8562,-4.8528,-4.8984,-4.8545,-4.8308,-4.8308,-4.7293,-4.643,-4.5703,-4.4942,-4.4615,-4.4632,-4.5077,-4.5703,-4.6464,-4.7479,-4.7784,-4.7614,-4.8105,-4.802,-4.7631,-4.8122,-4.8308,-4.8359,-4.8832,-4.9001,-4.9001,0.0,0.0,0.0,0.0,0.0,0.0,0.0,0.0,0.0,0.0,0.0,0.0,0.0,0.0,-4.9001,-4.9001,-4.9001,-4.9001,-4.9001,-4.9001,0.0,0.0,0.0,0.0,0.0,-4.8765,-4.8748,-4.9001,-4.8748,-4.8765,-4.9001,-4.9001,-4.9001,-4.9001,-4.9001,-4.9001,-4.9018,-4.9255,-4.9221,-4.8934,-4.8206,-4.7614,-4.7141,-4.6887,-4.6177,-4.5382,-4.5889,-4.5737,-4.5309,-4.5043,-4.4604,-4.4068,-4.3544,-4.2895,-4.2151,0.0,0.0,0.0,-4.0747,0.0,0.0,0.0,-4.1745,-4.1931,-4.1931,-4.2506,-4.2895,-4.2388,-4.2692,-4.2878,-4.2388,-4.3538,-4.4637,-4.4908,-4.4942,-4.4587,-4.3527,-4.3639,-4.3836,-4.3836,-4.4056,-4.457,-4.5568,-4.5686,-4.6126,-4.7107,-4.7394,-4.775,-4.824,-4.78,-4.7767,-4.8257,-4.78,-4.7428,-4.7175,-4.6684,-4.6058,-4.5314,-4.4852,-4.4615,-4.4632,-4.5094,-4.5737,-4.6464,-4.6955,-4.7175,-4.7208,-4.7716,-4.7479,-4.687,-4.7631,-4.7889,-4.7973,-4.8731,-4.9001,-4.9001,0.0,0.0,0.0,0.0,0.0,0.0,0.0,0.0,0.0,0.0,0.0,0.0,0.0,0.0,0.0,-4.9035,-4.9035,-4.9018,-4.9001,-4.9001,0.0,0.0,0.0,0.0,0.0,-4.8308,-4.8261,-4.9001,-4.8261,-4.8308,-4.9001,-4.9001,-4.9001,-4.9001,-4.9018,-4.9018,-4.9052,-4.9763,-4.9644,-4.8934,-4.8159,-4.7872,-4.7804,-4.7022,-4.6752,-4.6786,-4.6769,-4.6752,-4.665,-4.594,-4.5703,-4.5415,-4.3927,-4.2912,0.0,0.0,0.0,0.0,0.0,0.0,0.0,0.0,0.0,0.0,-4.117,0.0,-4.2252,-4.2236,-4.2236,-4.2252,-4.2236,-4.2252,-4.2523,-4.3206,-4.3341,-4.3358,-4.3325,-4.2743,-4.2286,-4.2252,-4.2929,-4.3375,-4.3392,-4.4745,-4.5652,-4.5703,-4.6363,-4.6769,-4.6786,-4.6786,-4.6786,-4.6752,-4.6786,-4.6447,-4.5737,-4.572,-4.5331,-4.4632,-4.4615,-4.4615,-4.4615,-4.4649,-4.5026,-4.5703,-4.5754,-4.6566,-4.7821,-4.7821,-4.7445,-4.687,-4.7597,-4.7872,-4.7973,-4.8731,-4.9001,-4.9001,0.0,0.0,0.0,0.0,0.0,0.0,0.0,0.0,0.0,0.0,0.0,0.0,-4.9729,-5.027,-5.0388,-4.983,-4.9796,-4.956,-4.9035,-4.9001,-4.9001,-4.9001,-4.9001,-4.9001,-4.9001,-4.8798,-4.8798,-4.9001,-4.8798,0.0,0.0,0.0,0.0,0.0,-4.956,-4.9492,-4.9018,-4.9221,-4.9187,-4.89,-4.7614,-4.7428,-4.7686,-4.5889,-4.5855,-4.6718,-4.6194,-4.6007,-4.5974,-4.5771,-4.5348,-4.4852,-4.4384,-4.3352,0.0,0.0,0.0,0.0,-4.0163,0.0,0.0,0.0,0.0,0.0,-4.0536,-4.0967,-4.1356,-4.0823,-4.1119,-4.1339,-4.0823,-4.1585,-4.2185,-4.1863,-4.2252,-4.2422,-4.1897,-4.2083,-4.21,-4.1576,-4.2151,-4.2811,-4.3341,-4.3781,-4.4519,-4.5618,-4.5889,-4.6244,-4.6752,-4.6786,-4.6549,-4.6024,-4.6515,-4.6701,-4.6498,-4.5974,-4.5602,-4.5382,-4.4869,-4.4615,-4.4649,-4.5715,-4.6007,-4.5771,-4.6836,-4.6938,-4.6312,-4.6312,-4.6498,-4.6802,-4.7022,-4.7445,-4.7973,-4.8731,-4.9001,-4.9001,0.0,0.0,0.0,0.0,0.0,0.0,0.0,0.0,0.0,0.0,0.0,0.0,-5.0016,0.0,-5.0574,-5.0135,-4.9813,-4.9458,-4.9035,-4.9001,-4.9001,-4.9001,-4.9001,-4.9001,-4.9001,-4.8714,-4.8697,0.0,0.0,0.0,0.0,0.0,0.0,0.0,0.0,0.0,-4.8984,-4.868,-4.8545,-4.8477,-4.7614,-4.7344,-4.731,-4.6007,-4.6041,-4.6735,-4.6312,-4.5957,-4.5703,-4.5703,-4.5213,-4.4615,-4.4615,-4.3988,0.0,0.0,0.0,0.0,0.0,0.0,0.0,0.0,0.0,0.0,-4.0197,-4.0434,-4.0612,-4.0197,-4.0426,-4.0595,-4.018,-4.0807,-4.1221,-4.0798,-4.1356,-4.1694,-4.1271,-4.1305,-4.1204,-4.0781,-4.139,-4.2016,-4.2455,-4.3037,-4.3764,-4.4688,-4.5043,-4.5415,-4.5855,-4.5872,-4.5669,-4.5246,-4.5652,-4.5872,-4.5872,-4.5449,-4.5229,-4.5229,-4.4818,-4.4615,-4.4649,-4.5805,-4.6109,-4.5754,-4.6616,-4.6498,-4.5703,-4.5703,-4.5957,-4.6397,-4.7022,-4.753,-4.7973,-4.8731,-4.9001,-4.9001,0.0,0.0,0.0,0.0,0.0,0.0,0.0,0.0,0.0,0.0,0.0,0.0,0.0,0.0,0.0,0.0,-4.9678,-4.9221,-4.9137,-4.9052,-4.9001,-4.9001,-4.9001,-4.9001,-4.9001,-4.8376,-4.8359,0.0,0.0,0.0,0.0,0.0,0.0,0.0,0.0,0.0,-4.8832,-4.8189,-4.7838,-4.7753,-4.7584,-4.7192,-4.665,-4.6481,-4.6532,-4.6667,-4.6667,-4.6261,-4.5703,-4.5618,-4.5128,-4.4615,-4.4615,-4.4615,-4.4445,-4.3656,-4.2946,0.0,0.0,0.0,0.0,0.0,-4.0231,0.0,-4.013,-4.0096,-4.0096,-4.0096,-4.0096,-4.0096,-4.0096,-4.0096,-4.0096,-4.0096,-4.0713,-4.117,-4.1085,-4.0578,-4.0231,-4.0231,-4.073,-4.1136,-4.1322,-4.2412,-4.3206,-4.3375,-4.4147,-4.4615,-4.4615,-4.4615,-4.4615,-4.4615,-4.4615,-4.4615,-4.4615,-4.4615,-4.4615,-4.4615,-4.4615,-4.4615,-4.4632,-4.5365,-4.5669,-4.5602,-4.5754,-4.5788,-4.572,-4.5889,-4.5906,-4.5974,-4.7348,-4.7939,-4.8091,-4.8765,-4.9001,-4.9001,0.0,0.0,0.0,0.0,0.0,0.0,0.0,0.0,0.0,0.0,0.0,0.0,0.0,0.0,0.0,0.0,0.0,0.0,0.0,-4.9323,-4.9001,-4.9001,-4.9001,-4.9001,-4.9001,-4.8866,-4.8866,0.0,0.0,0.0,0.0,0.0,0.0,0.0,0.0,0.0,0.0,-4.7939,-4.7564,-4.6904,-4.5703,-4.55,-4.5788,-4.4553,-4.484,-4.5923,-4.5923,-4.5821,-4.5618,-4.4993,-4.4733,-4.4615,-4.4615,-4.4615,-4.4445,-4.3656,-4.3291,0.0,0.0,0.0,0.0,-4.1119,-4.0984,0.0,-4.0248,-4.0096,-4.0096,-4.0096,-4.0096,-4.0096,-4.0096,-4.0096,-4.0096,-4.0096,-4.0713,-4.0984,-4.0417,-4.0696,-4.0984,-4.0984,-4.0578,-4.079,-4.1965,-4.1813,-4.2134,-4.3308,-4.4147,-4.4615,-4.4615,-4.4615,-4.4615,-4.4615,-4.4615,-4.4615,-4.4615,-4.4615,-4.4615,-4.4615,-4.4615,-4.4615,-4.4632,-4.5365,-4.5382,-4.4874,-4.6058,-4.6244,-4.5788,-4.6959,-4.7124,-4.6667,-4.7581,-4.8244,-4.8798,-4.8951,-4.9001,-4.9001,0.0,0.0,0.0,0.0,0.0,0.0,0.0,0.0,0.0,0.0,0.0,0.0,0.0,0.0,0.0,0.0,0.0,0.0,0.0,-4.9746,-4.9373,-4.9018,-4.9001,-4.9001,-4.9001,-4.9001,-4.9001,-4.9001,0.0,0.0,0.0,0.0,0.0,0.0,0.0,0.0,0.0,-4.6972,-4.6599,-4.6194,-4.5449,-4.4908,-4.4485,-4.368,-4.3866,-4.4519,-4.4147,-4.4248,-4.4519,-4.413,-4.4265,-4.4666,-4.5026,-4.5145,-4.506,-4.4671,-4.4299,-4.3826,-4.3064,-4.2574,-4.2117,-4.139,-4.1204,0.0,0.0,-4.0096,-4.0096,-4.0096,-4.0096,-4.0096,-4.0096,-4.0096,-4.0096,-4.0096,-4.1018,-4.1356,-4.0265,-4.1035,-4.1745,-4.1745,-4.1407,-4.1322,-4.1711,-4.2083,-4.2777,-4.391,-4.435,-4.4615,-4.4615,-4.4615,-4.4615,-4.4615,-4.4615,-4.4615,-4.4615,-4.4615,-4.4615,-4.4615,-4.4615,-4.4615,-4.4632,-4.5365,-4.5297,-4.4682,-4.6143,-4.638,-4.5821,-4.728,-4.7699,-4.7428,-4.8173,-4.868,-4.9001,-4.9001,-4.9001,-4.9001,0.0,0.0,0.0,0.0,0.0,0.0,0.0,0.0,0.0,0.0,0.0,0.0,0.0,0.0,0.0,0.0,0.0,0.0,0.0,-5.005,-4.961,-4.9035,-4.9137,-4.9154,-4.9001,-4.9137,-4.9137,-4.9001,0.0,0.0,0.0,0.0,0.0,0.0,0.0,0.0,0.0,-4.6007,-4.5703,-4.5703,-4.5551,-4.457,-4.3156,-4.302,-4.297,-4.2929,-4.2455,-4.2675,-4.3172,-4.3172,-4.3623,-4.4293,-4.5026,-4.5466,-4.5669,-4.5534,-4.5263,-4.4835,-4.3893,-4.32,-4.2557,-4.1813,-4.1627,-4.139,0.0,0.0,0.0,-4.013,-4.0096,-4.0096,0.0,-4.0096,-4.0096,-4.0096,-4.1204,-4.166,-4.0485,-4.1441,-4.2286,-4.2286,-4.2286,-4.2117,-4.1677,-4.2564,-4.3521,-4.4327,-4.4378,-4.4445,-4.4598,-4.4615,-4.4615,-4.4615,-4.4615,-4.4615,-4.4615,-4.4615,-4.4615,-4.4615,-4.4615,-4.4615,-4.4632,-4.5213,-4.5162,-4.4682,-4.6143,-4.6464,-4.6024,-4.7483,-4.8091,-4.8159,-4.8781,-4.9001,-4.9001,-4.9001,-4.9001,-4.9001,-5.098,-5.1217,0.0,0.0,0.0,0.0,0.0,0.0,0.0,0.0,0.0,0.0,-5.3365,-5.2655,-5.2503,-5.3298,-5.1352,-5.0371,-5.1048,-4.9864,-4.9086,-4.9001,-4.9627,-4.9661,-4.9018,-4.9644,-4.9644,-4.9001,0.0,0.0,0.0,0.0,0.0,0.0,-4.7889,-4.7496,-4.6735,-4.6007,-4.5703,-4.5652,-4.4976,-4.3792,-4.2337,-4.1694,-4.1457,-4.1525,-4.21,-4.2337,-4.2422,-4.2422,-4.2472,-4.2675,-4.3436,-4.4621,-4.5568,-4.4936,-4.5585,-4.6227,-4.4852,-4.4412,-4.413,-4.3352,-4.3139,-4.2784,-4.139,0.0,-4.0882,-4.0231,0.0,-4.0096,-4.0096,0.0,0.0,0.0,-4.0781,-4.1271,-4.1102,-4.1779,-4.2286,-4.2286,-4.2286,-4.2523,-4.3088,-4.2709,-4.2726,-4.3487,-4.3527,-4.3859,-4.4564,-4.4615,-4.4615,-4.4615,-4.4615,-4.4615,-4.4615,-4.4615,-4.4615,-4.4615,-4.4615,-4.4615,-4.4615,-4.4699,-4.4682,-4.4682,-4.6143,-4.6735,-4.6786,-4.8274,-4.8883,-4.8883,-4.8968,-4.9001,-4.9001,-4.9001,-4.9001,-4.9001,-4.9864,-5.027,0.0,0.0,0.0,0.0,0.0,0.0,0.0,0.0,0.0,-5.3501,-5.3501,-5.279,-5.2621,-5.3433,-5.1809,-5.0879,-5.1168,-5.0219,0.0,-4.9644,-4.9915,-4.9949,-4.9644,-4.9932,-4.9729,-4.9001,-4.9001,0.0,0.0,0.0,0.0,0.0,-4.7462,-4.6853,-4.6075,-4.4891,-4.4356,-4.4265,-4.3098,-4.2236,-4.1677,-4.1779,-4.1305,-4.0696,-4.1863,-4.2016,-4.1728,-4.2151,-4.2286,-4.2517,-4.421,-4.4829,-4.508,-4.5689,-4.6007,-4.5923,-4.4886,-4.4891,-4.4942,-4.3696,-4.3758,-4.369,-4.2185,-4.183,-4.1627,-4.0882,0.0,0.0,0.0,0.0,0.0,0.0,-4.0713,-4.1052,-4.0612,-4.1585,-4.2286,-4.2286,-4.2286,-4.2422,-4.2726,-4.2472,-4.2608,-4.3325,-4.3392,-4.3944,-4.5162,-4.4852,-4.4801,-4.5213,-4.4835,-4.4615,-4.4615,-4.4615,-4.4615,-4.4615,-4.4615,-4.4615,-4.4615,-4.4615,-4.4615,-4.4666,-4.5703,-4.6397,-4.687,-4.7936,-4.8612,-4.9001,-4.9001,-4.9001,-4.9001,-4.9001,-4.9001,-4.9001,-4.9001,0.0,0.0,0.0,0.0,0.0,0.0,0.0,0.0,-5.2283,-5.2807,-5.3264,-5.3484,-5.3162,-5.3078,-5.3467,-5.2486,-5.1657,-5.1219,-5.071,-5.0219,-4.9813,-5.0371,-5.0507,-5.0101,-5.0287,-5.0033,-4.9306,0.0,0.0,0.0,0.0,0.0,0.0,0.0,-4.6549,-4.5534,-4.4255,-4.3606,-4.3274,-4.2016,-4.139,-4.1238,-4.1559,-4.1179,-4.0536,-4.1399,-4.1474,-4.1229,-4.1331,-4.1621,-4.2173,-4.3656,-4.4099,-4.4271,-4.5213,-4.5554,-4.5434,-4.4505,-4.4968,-4.5382,-4.4062,-4.4164,-4.4259,-4.2912,-4.2591,-4.2388,-4.1644,-4.1508,0.0,0.0,0.0,0.0,0.0,0.0,-4.1018,0.0,-4.1136,-4.1762,-4.1965,-4.2354,-4.2692,-4.2895,-4.2726,-4.2828,-4.3341,-4.3392,-4.3995,-4.5331,-4.5077,-4.5229,-4.5974,-4.5466,-4.5122,-4.4919,-4.4919,-4.4818,-4.4615,-4.4615,-4.4615,-4.4615,-4.4615,-4.4615,-4.4649,-4.5585,-4.6312,-4.6853,-4.7817,-4.8528,-4.9001,-4.9001,-4.9001,-4.9001,-4.9001,-4.9001,-4.9001,-4.9001,-4.9593,-4.9864,-4.9171,0.0,0.0,0.0,0.0,-5.1505,-5.2215,-5.2317,-5.2638,-5.3416,-5.411,-5.4245,-5.3568,-5.345,-5.2807,-5.1286,-5.1168,-5.0541,-4.9103,-5.1099,-5.1555,-5.0118,-5.0811,-5.0811,-5.005,0.0,0.0,0.0,0.0,0.0,0.0,-4.7788,-4.6957,-4.5379,-4.4812,-4.4113,-4.3325,-4.2574,-4.183,-4.1119,-4.0434,-4.0578,-4.1085,-4.0417,-4.0595,-4.0981,-3.9491,-4.0004,-4.111,-4.0326,-4.1587,-4.3171,-4.238,-4.3764,-4.5179,-4.3746,-4.4482,-4.5517,-4.4767,-4.4581,-4.4395,-4.3555,-4.3358,-4.3139,-4.2422,-4.2252,-4.2252,-4.2219,0.0,0.0,0.0,0.0,0.0,0.0,0.0,-4.0451,-4.1153,-4.2506,-4.3673,-4.4462,-4.3826,-4.3358,-4.3392,-4.3392,-4.3775,-4.4598,-4.528,-4.6007,-4.6735,-4.6735,-4.638,-4.5669,-4.5669,-4.5314,-4.4615,-4.4615,-4.4615,-4.4615,-4.4615,-4.4615,-4.4682,-4.6126,-4.6769,-4.6904,-4.8376,-4.8984,-4.9001,-4.9001,-4.9001,-4.9001,-4.9001,-4.9001,-4.9001,-4.8193,-4.8279,-4.8573,-4.8942,-4.9407,-4.9915,-5.0405,-5.0473,-5.1285,-5.3518,-5.3822,-5.4482,-5.6224,-5.619,-5.5767,-5.504,-5.4076,-5.2858,-5.1286,-5.1185,-5.0777,-4.9763,-5.0913,-5.1116,-5.0101,-5.0338,-4.9813,-4.8445,-4.8805,0.0,0.0,0.0,0.0,0.0,0.0,-4.5816,-4.5284,-4.3598,-4.2802,-4.2574,-4.1322,-4.0387,-3.9718,-4.0002,-4.0265,-4.0426,-4.0197,-3.9924,-3.9594,-3.9088,-3.8869,-3.9022,-4.0252,-4.0753,-4.1166,-4.2365,-4.3344,-4.3807,-4.2744,-4.4032,-4.5385,-4.4056,-4.4536,-4.5128,-4.4367,-4.4181,-4.3961,-4.32,-4.3031,-4.2878,-4.2388,0.0,0.0,0.0,0.0,0.0,0.0,0.0,-4.1813,-4.2574,-4.3088,-4.3105,-4.2422,-4.254,-4.2472,-4.1982,-4.2405,-4.3453,-4.5229,-4.5568,-4.6261,-4.7496,-4.7056,-4.6667,-4.643,-4.643,-4.6058,-4.5331,-4.5331,-4.506,-4.4615,-4.4615,-4.4615,-4.4632,-4.5139,-4.5889,-4.6836,-4.7327,-4.8122,-4.9001,-4.9001,-4.9001,-4.9001,-4.9001,-4.9001,-4.9001,-4.7288,-4.7088,-4.7306,-4.7901,-4.8198,-4.8447,-4.8663,-4.9875,-5.1464,-5.3426,-5.468,-5.5919,-5.734,-5.7543,-5.7087,-5.5818,-5.5074,-5.3652,-5.1246,-5.1679,-5.1189,-4.93,-5.0735,-5.1133,-5.0101,-5.0084,-4.94,-4.7984,-4.8679,-4.837,0.0,0.0,0.0,0.0,0.0,-4.5262,-4.4821,-4.3408,-4.2779,-4.253,-4.0817,-3.9784,-3.9331,-3.9553,-3.9661,-3.9661,-3.9651,-3.9303,-3.8823,-3.8282,-3.8075,-3.8247,-3.9359,-3.9696,-3.9984,-4.1375,-4.2264,-4.259,-4.177,-4.3117,-4.4533,-4.3548,-4.4275,-4.5131,-4.4711,-4.4818,-4.4908,-4.4671,-4.4198,-4.3927,-4.4231,0.0,0.0,0.0,0.0,0.0,0.0,-4.2523,-4.2878,-4.3325,-4.3392,-4.3122,-4.2472,-4.2574,-4.2489,-4.2033,-4.2422,-4.3572,-4.5602,-4.5957,-4.6769,-4.8227,-4.7834,-4.7462,-4.7192,-4.7192,-4.6819,-4.6092,-4.6092,-4.5703,-4.4993,-4.5246,-4.5106,-4.4632,-4.5156,-4.5906,-4.6802,-4.7073,-4.7902,-4.9001,-4.9001,-4.9001,-4.9001,-4.9001,-4.9001,-4.9001,-4.6282,-4.6103,-4.6067,-4.6067,-4.6678,-4.6953,-4.6333,-4.9375,-5.1832,-5.2036,-5.4809,-5.6812,-5.693,-5.8166,-5.8152,-5.6021,-5.6393,-5.5093,-5.119,-5.2537,-5.1766,-4.7803,-5.0559,-5.1457,-4.9968,-4.9905,-4.9422,-4.8476,0.0,0.0,0.0,0.0,0.0,0.0,-4.569,0.0,-4.3992,-4.4202,-4.3916,-4.3147,-4.0951,-4.0033,-3.9888,-3.9149,-3.882,-3.8786,-3.8802,-3.88,-3.8567,-3.7092,-3.7538,-3.858,-3.7658,-3.8378,-3.9575,-3.939,-4.0487,-4.1596,-4.0842,-4.1818,-4.3073,-4.315,-4.3739,-4.4406,-4.4557,-4.5167,-4.5906,-4.665,-4.5698,-4.5331,-4.7428,0.0,0.0,0.0,0.0,0.0,0.0,0.0,-4.3443,-4.3443,-4.3443,-4.3741,-4.4479,-4.3859,-4.3375,-4.3341,-4.3375,-4.4051,0.0,-4.6397,-4.7479,-4.8951,-4.9001,-4.8663,-4.7939,-4.7939,-4.7597,-4.6836,-4.6836,-4.6464,-4.5788,-4.6447,-4.5974,-4.4733,-4.6092,-4.6718,-4.6836,-4.7564,-4.8308,-4.9001,-4.9001,-4.9001,-4.9001,-4.9001,-4.9001,-4.9001,-4.5426,-4.4555,-4.4036,-4.4036,-4.5373,-4.6573,-4.6945,-4.8593,-5.0639,-5.2882,-5.4995,-5.6912,-5.8631,-5.8895,-5.8558,-5.7425,-5.6511,-5.4755,-5.1828,-5.2804,-5.195,-4.8495,-4.9689,-4.9526,-4.7549,-4.729,-4.6504,-4.504,-4.6327,0.0,-4.5153,0.0,0.0,0.0,0.0,-4.3943,-4.3774,-4.399,-4.3471,-4.2369,-4.0599,-3.9219,-3.8338,-3.9091,-3.8455,-3.7254,-3.8381,-3.8123,-3.7138,-3.6723,-3.6491,-3.6418,-3.6673,-3.7305,-3.8073,-3.8522,-3.9771,-4.0785,-3.998,-4.1,-4.2157,-4.1509,-4.2476,-4.3729,-4.4334,-4.5094,-4.5906,-4.665,-4.6481,-4.6227,-4.6261,-4.5805,0.0,0.0,0.0,0.0,0.0,0.0,-4.4282,-4.4282,-4.4282,-4.413,-4.3758,-4.3511,-4.3156,-4.2625,-4.3098,-4.4051,-4.5618,-4.6397,-4.7479,-4.8951,-4.9001,-4.8917,-4.8731,-4.8731,-4.8359,-4.7631,-4.7631,-4.7242,-4.6498,-4.6143,-4.5788,-4.5399,-4.5229,-4.5799,-4.6802,-4.7005,-4.7834,-4.9001,-4.9001,-4.9001,-4.9001,-4.9001,-4.9001,-4.9001,-4.4381,-4.3935,-4.3633,-4.3349,-4.5168,-4.6625,-4.6446,-4.7941,-4.9797,-5.1799,-5.4108,-5.6114,-5.7545,-5.808,-5.8173,-5.7913,-5.6562,-5.4577,-5.1953,-5.2423,-5.1142,-4.7489,-4.8479,-4.816,-4.6043,-4.5828,-4.5112,-4.3779,-4.5112,0.0,-4.4143,0.0,0.0,0.0,0.0,-4.3046,-4.3278,-4.3176,-4.2719,-4.1979,-4.0388,-3.9249,0.0,-3.8938,-3.8179,-3.7045,-3.8217,-3.7725,-3.6545,-3.6545,-3.6073,-3.5714,-3.6926,-3.736,-3.7599,-3.8556,-3.9456,-4.0025,-3.9553,-4.013,-4.0842,-4.0724,-4.1962,-4.332,-4.3805,-4.4846,-4.6007,-4.7056,-4.6769,-4.6583,-4.7462,-4.6566,0.0,0.0,0.0,0.0,0.0,-4.4874,-4.4942,-4.4649,-4.4874,-4.4773,-4.3995,-4.3623,-4.3386,-4.3328,-4.369,-4.4587,-4.6109,-4.6887,-4.7817,-4.8968,-4.9306,-4.9323,-4.9001,-4.9323,-4.912,-4.8392,-4.8392,-4.8003,-4.7276,-4.7192,-4.6786,-4.6177,-4.6075,-4.6515,-4.7293,-4.7293,-4.797,-4.9001,-4.9001,-4.9001,-4.9001,-4.9001,-4.9001,-4.9001,-4.3544,-4.3947,-4.4212,-4.3424,-4.5544,-4.692,-4.5738,-4.771,-4.9584,-5.0173,-5.2839,-5.4784,-5.5054,-5.6156,-5.6977,-5.7208,-5.6075,-5.4286,-5.1749,-5.1769,-5.0156,-4.6204,-4.7356,-4.7116,-4.4934,-4.4843,-4.4402,-4.3488,-4.4402,0.0,0.0,0.0,0.0,0.0,0.0,0.0,0.0,-4.2039,-4.1882,-4.1851,-4.0286,-3.9594,-3.9465,-3.8782,-3.8063,-3.7494,-3.8153,-3.7629,-3.6611,-3.6611,-3.6222,-3.6043,-3.7734,-3.7928,-3.7764,-3.8945,-3.9313,-3.9388,-3.9388,-3.9388,-3.9574,-4.0343,-4.1653,-4.288,-4.3201,-4.453,-4.611,-4.7601,-4.6972,-4.6887,-4.9357,-4.7631,0.0,0.0,0.0,0.0,-4.5021,-4.55,-4.5635,-4.5106,-4.55,0.0,-4.4835,-4.4028,-4.3859,-4.4564,-4.4615,-4.5258,-4.6718,-4.7411,-4.8189,-4.912,-4.9763,-4.983,-4.9289,-4.983,-4.9779,-4.9137,-4.9052,-4.8663,-4.8041,-4.8612,-4.8156,-4.6972,-4.753,-4.7804,-4.7889,-4.7889,-4.8311,-4.9001,-4.9001,-4.9001,-4.9001,-4.9001,-4.9069,-4.9137,-4.4272,-4.4661,-4.4751,-4.3499,-4.5544,-4.7219,-4.6995,-4.9149,-5.0863,-5.0969,-5.2792,-5.3858,-5.3389,-5.3885,-5.4075,-5.3563,-5.3501,-5.2922,-5.1577,-5.1769,-5.0692,-4.7951,-4.7413,-4.5912,-4.3274,-4.3017,-4.2554,-4.1821,-4.2554,0.0,0.0,0.0,0.0,0.0,0.0,0.0,-4.2689,-4.129,-4.1117,-4.1722,-4.0097,-3.9119,-3.8682,-3.9092,-3.8482,-3.7494,-3.8153,-3.7898,-3.724,-3.724,-3.7165,-3.7135,-3.7479,-3.7868,-3.8257,-3.8497,-3.8975,-3.9388,-3.9388,-3.9388,-3.946,-3.9574,-4.0366,-4.1462,-4.2831,-4.4377,-4.5982,-4.7565,-4.8189,-4.8392,-4.8308,-4.7378,-4.6363,0.0,-4.5517,-4.594,-4.7158,-4.6921,-4.6786,-4.7276,-4.6904,-4.6312,-4.5585,-4.4823,-4.4462,-4.4598,-4.4615,-4.5258,-4.6718,-4.6921,-4.7885,-4.9847,-5.0016,-5.0321,-5.0828,-5.0338,-5.0033,-4.9898,-4.9289,-4.8934,-4.8798,-4.8325,-4.7939,-4.7699,-4.7208,-4.7344,-4.7889,-4.7889,-4.8311,-4.9001,-4.9001,-4.9001,-4.9001,-4.9001,-4.939,-4.9813,-4.4885,-4.508,-4.5319,-4.5379,-4.7025,-4.8551,-4.9224,-5.069,-5.1364,-5.0346,-5.0986,-5.1587,-5.1819,-5.2363,-5.2827,-5.3109,-5.2556,-5.1772,-5.0729,-5.0103,-4.8878,-4.6842,-4.5975,-4.4447,-4.2101,-4.1934,-4.1737,-4.1422,-4.1737,0.0,0.0,0.0,0.0,0.0,0.0,-4.1957,0.0,0.0,-4.0148,-4.0482,-3.9709,-3.923,-3.896,-3.929,-3.902,-3.8497,-3.8811,-3.8721,-3.8392,-3.8033,-3.7689,-3.7524,-3.8227,-3.8422,-3.8467,-3.8811,-3.9155,-3.9388,-3.9388,-3.9388,-3.9388,-3.9388,-4.006,-4.1024,-4.2251,-4.378,-4.5381,-4.7008,-4.7919,-4.8342,-4.7956,-4.731,-4.6667,-4.6329,-4.6261,-4.665,-4.7736,-4.8257,-4.8359,-4.7939,-4.7919,-4.7344,-4.5855,-4.5382,-4.4993,-4.4632,-4.4942,-4.5635,-4.6735,-4.7158,-4.8037,-4.9475,-5.027,-5.0659,-5.0642,-5.0659,-5.0473,-5.0084,-4.9357,-4.9001,-4.8984,-4.8646,-4.8477,-4.846,-4.8105,-4.8139,-4.8477,-4.8477,-4.8697,-4.9001,-4.9001,-4.9001,-4.9052,-4.9424,-4.9796,-4.9982,-4.5693,-4.5828,-4.6217,-4.7145,-4.8626,-4.9927,-5.069,-5.1603,-5.1648,-5.0138,-4.9808,-4.9929,-5.0516,-5.1005,-5.1595,-5.2213,-5.1454,-5.0563,-4.9724,-4.8469,-4.7163,-4.5701,-4.4783,-4.3389,-4.1429,-4.1422,-4.1422,-4.1422,-4.1422,-4.1908,0.0,0.0,0.0,0.0,0.0,0.0,-4.11,-3.9918,-3.9388,-3.9388,-3.9388,-3.9388,-3.9388,-3.9388,-3.9334,-3.923,-3.9364,-3.9334,-3.914,-3.8736,-3.8257,-3.8018,-3.9059,-3.905,-3.8721,-3.926,-3.9388,-3.9388,-3.9388,-3.9388,-3.9388,-3.9388,-3.9935,-4.0703,-4.17,-4.3025,-4.4569,-4.6371,-4.7494,-4.8075,-4.7922,-4.7682,-4.7394,-4.7073,-4.7293,-4.775,-4.848,-4.9475,-4.9729,-4.87,-4.8714,-4.802,-4.6126,-4.5652,-4.5229,-4.4649,-4.5128,-4.5788,-4.6532,-4.7276,-4.8088,-4.8968,-5.0287,-5.0845,-5.0557,-5.0828,-5.076,-5.0321,-4.9424,-4.9001,-4.9001,-4.9001,-4.9001,-4.9001,-4.9001,-4.9001,-4.9001,-4.9001,-4.9001,-4.9001,-4.9001,-4.9001,-4.9086,-4.9813,-5.0185,-5.0253,-4.6995,-4.7593,-4.7863,-4.7384,-4.9374,-5.0676,-4.9659,-5.102,-5.2127,-5.1947,-5.1409,-5.0617,-4.9554,-4.9539,-4.9088,-4.8,-4.8613,-4.9,-4.8918,-4.8221,-4.7468,-4.6763,-4.5183,-4.3389,-4.1429,-4.1422,-4.1422,-4.1422,-4.1422,-4.1482,-4.1594,0.0,0.0,0.0,-4.1737,-4.1055,-4.0442,-3.9723,-3.9388,-3.9388,-3.9388,-3.9388,-3.9388,-3.9388,-3.9035,-3.8571,-3.9185,-3.902,-3.8571,-3.9125,-3.9239,-3.9209,-3.9343,-3.9379,-3.9298,-3.9394,-3.9388,-3.9388,-3.9388,-3.9388,-3.9388,-3.9388,-3.9445,-3.9904,-4.1407,-4.2358,-4.3608,-4.6045,-4.7799,-4.8697,-4.8007,-4.8934,-4.934,-4.802,-4.8917,-5.005,-5.0811,-5.0439,-5.0287,-5.0845,-4.9173,-4.7665,-4.6769,-4.5512,-4.4682,-4.4615,-4.4666,-4.501,-4.5771,-4.6498,-4.7547,-4.8968,-4.9779,-5.0811,-5.208,-5.0828,-5.0507,-5.1099,-4.9678,-4.9001,-4.9001,-4.9001,-4.9001,-4.9001,-4.9001,-4.9001,-4.9001,-4.9001,-4.9001,-4.9001,-4.9001,-4.9001,-4.9086,-4.9813,-5.0524,-5.1099,-4.8356,-4.8371,-4.8566,-4.9494,-4.9868,-5.0272,-5.093,-5.102,-5.102,-5.102,-5.0749,-5.0287,-4.9419,-4.8955,-4.8461,-4.7938,-4.792,-4.7919,-4.7919,-4.6902,-4.6173,-4.5956,-4.4514,-4.2985,-4.1414,-4.1422,-4.119,-4.0786,-4.119,-4.1617,-4.2036,0.0,0.0,-4.288,-4.1429,-4.1085,-4.1512,-4.0038,-3.9649,-3.9978,-3.9574,-3.9388,-3.9388,-3.9388,-3.9245,-3.905,-3.932,-3.9245,-3.899,-3.8856,-3.908,-3.9388,-3.9388,-3.9388,-3.9388,-3.9388,-3.9388,-3.9388,-3.9388,-3.9388,-3.9388,-3.9388,-3.9388,-3.979,-4.1359,-4.2255,-4.3333,-4.5245,-4.6996,-4.7899,-4.7045,-4.7787,-4.8511,-4.8378,-4.921,-5.0343,-5.166,-5.2029,-5.1911,-5.1252,-5.0407,-4.9224,-4.7631,-4.6532,-4.5906,-4.5906,-4.5106,-4.4936,-4.5669,-4.6397,-4.7276,-4.8325,-4.9915,-5.0828,-5.098,-5.0828,-5.0693,-5.0524,-4.9492,-4.9001,-4.9001,-4.9001,-4.9238,-4.9644,-4.9187,-4.9255,-4.9627,-4.9187,-4.9001,-4.9001,-4.9001,-4.9001,-4.9137,-5.0338,-5.0963,-5.1352,-4.9149,-4.894,-4.9134,-5.0915,-5.0287,-5.0092,-5.1678,-5.0795,-4.9957,-4.9957,-4.9732,-4.9494,-4.9075,-4.8566,-4.8207,-4.8012,-4.7399,-4.701,-4.701,-4.5753,-4.5005,-4.5005,-4.3888,-4.2677,-4.1452,-4.1422,-4.1055,-4.0397,-4.0861,-4.1324,-4.1826,-4.2252,-4.2527,-4.2686,-4.11,-4.092,-4.1722,-4.0098,-3.9694,-4.0068,-3.9604,-3.9388,-3.9388,-3.9388,-3.9388,-3.9388,-3.9388,-3.9388,-3.9349,-3.8856,-3.902,-3.9394,-3.9185,-3.926,-3.9388,-3.9388,-3.9388,-3.9388,-3.9388,-3.9388,-3.9388,-3.9388,-3.9574,-4.004,-4.1326,-4.2149,-4.3138,-4.4693,-4.6166,-4.6986,-4.6314,-4.689,-4.7644,-4.8184,-4.9278,-5.0466,-5.1681,-5.2606,-5.2672,-5.1369,-5.0828,-4.9833,-4.8058,-4.7242,-4.6786,-4.6786,-4.585,-4.5466,-4.6007,-4.6718,-4.7462,-4.8206,-5.0154,-5.0963,-5.0422,-5.0727,-5.0625,-5.0084,-4.9357,-4.9001,-4.9001,-4.9001,-4.9407,-5.005,-4.9543,-4.961,-5.005,-4.9543,-4.9323,-4.9323,-4.9323,-4.9323,-4.9509,-5.0997,-5.1539,-5.1725,-4.906,-4.9299,-4.9673,-5.099,-5.0629,-5.0405,-5.1124,-5.0122,-4.9329,-4.9329,-4.8716,-4.8312,-4.8297,-4.8282,-4.8027,-4.7369,-4.6711,-4.6294,-4.6294,-4.508,-4.4332,-4.4332,-4.3648,-4.2677,-4.1452,-4.1422,-4.1055,-4.0397,-4.0412,-4.0412,-4.0427,-4.0427,-4.0786,-4.1369,-4.0711,-4.0412,-4.0382,-3.9709,-3.9388,-3.9388,-3.9388,-3.9388,-3.9388,-3.9388,-3.9388,-3.9388,-3.9388,-3.9388,-3.9388,-3.9373,-3.9373,-3.9269,-3.8616,-3.8871,-3.9388,-3.9388,-3.9388,-3.9388,-3.9388,-3.9388,-3.9388,-3.9388,-3.9903,-4.0561,-4.1257,-4.1916,-4.287,-4.4469,-4.5561,-4.6208,-4.6208,-4.6785,-4.7265,-4.7225,-4.9284,-5.0872,-5.0818,-5.1681,-5.2046,-5.1269,-4.9915,-4.8731,-4.7956,-4.7242,-4.6786,-4.6786,-4.6769,-4.6769,-4.6786,-4.7496,-4.821,-4.8968,-5.0439,-5.1185,-5.12,-5.0473,-5.0101,-5.0084,-4.9357,-4.9001,-4.9001,-4.9001,-4.9407,-5.0084,-5.0084,-5.0084,-5.0084,-5.0084,-5.0084,-5.0084,-5.0084,-5.0084,-5.0253,-5.1742,-5.2283,-5.2401,-4.9763,-5.0287,-5.072,-5.1154,-5.1003,-5.0928,-5.1184,-5.0107,-4.9314,-4.9314,-4.8297,-4.7623,-4.7623,-4.7623,-4.7534,-4.7324,-4.6711,-4.6279,-4.6279,-4.5065,-4.4317,-4.4317,-4.3648,-4.2925,-4.2111,-4.1647,-4.1055,-4.0397,-4.0846,-4.1332,-4.1752,-4.0816,-4.0995,-4.2036,-4.0891,-4.0905,-4.1707,-4.0561,-4.0083,-4.0053,-3.9568,-3.9694,-4.0083,-4.0083,-4.0083,-4.0083,-4.0083,-3.9798,-3.9313,-3.8871,-3.9035,-3.929,-3.8601,-3.8856,-3.9388,-3.9388,-3.9388,-3.9388,-3.9388,-3.9388,-3.9388,-3.9388,-3.9903,-4.0576,-4.1235,-4.2237,-4.3154,-4.3663,-4.4571,-4.5042,-4.4327,-4.5308,-4.625,-4.6304,-4.7903,-4.9551,-5.07,-5.1246,-5.1471,-5.1219,-5.0338,-4.9458,-4.8731,-4.7986,-4.7564,-4.7564,-4.7073,-4.6786,-4.6786,-4.7986,-4.8765,-4.9001,-5.093,-5.1471,-5.0456,-5.12,-5.1099,-5.0084,-5.0371,-5.0507,-5.0507,-5.0507,-5.0913,-5.1572,-5.1082,-5.115,-5.1555,-5.1065,-5.0862,-5.0862,-5.0862,-5.0862,-5.098,-5.1944,-5.23,-5.2418,-4.9748,-5.0391,-5.0808,-5.0808,-5.0646,-5.0481,-5.0481,-4.9374,-4.8626,-4.891,-4.7967,-4.7309,-4.7309,-4.7309,-4.7309,-4.7309,-4.6471,-4.5933,-4.5933,-4.4691,-4.3902,-4.3902,-4.3514,-4.303,-4.241,-4.1752,-4.1175,-4.0771,-4.1175,-4.1512,-4.1647,-4.104,-4.107,-4.1632,-4.0771,-4.0861,-4.1587,-4.0487,-4.0023,-3.9993,-3.9589,-3.9664,-4.0023,-4.0023,-4.0023,-4.0023,-4.0023,-3.9768,-3.9349,-3.8931,-3.9065,-3.9349,-3.8916,-3.9065,-3.9388,-3.9388,-3.9388,-3.9388,-3.9388,-3.9568,-3.9783,-3.9783,-4.0472,-4.1309,-4.1968,-4.2746,-4.329,-4.329,-4.4007,-4.4332,-4.3453,-4.4537,-4.5474,-4.5323,-4.6693,-4.8131,-4.9231,-5.0131,-5.0559,-5.0291,-5.0163,-4.9796,-4.9069,-4.8267,-4.7936,-4.8294,-4.7799,-4.7667,-4.802,-4.89,-4.9678,-5.0219,-5.1877,-5.2164,-5.093,-5.1843,-5.1708,-5.0524,-5.0997,-5.1369,-5.1606,-5.1352,-5.1606,-5.2283,-5.1809,-5.1877,-5.2266,-5.1809,-5.1623,-5.1623,-5.1623,-5.1623,-5.1725,-5.2469,-5.2756,-5.2824,-4.9179,-4.9748,-5.0136,-5.0181,-4.9703,-4.9314,-4.9314,-4.8192,-4.7593,-4.8207,-4.7713,-4.7309,-4.7309,-4.7309,-4.7309,-4.7309,-4.6127,-4.5349,-4.5289,-4.4107,-4.3349,-4.329,-4.329,-4.3045,-4.247,-4.1782,-4.1392,-4.1347,-4.1265,-4.095,-4.0412,-4.1025,-4.101,-4.0472,-4.0472,-4.0472,-4.0427,-3.9768,-3.9454,-3.9388,-3.9388,-3.9454,-3.9448,-3.9448,-3.9448,-3.9448,-3.9448,-3.9454,-3.9388,-3.9388,-3.9388,-3.9388,-3.9388,-3.9388,-3.9388,-3.9388,-3.9388,-3.9388,-3.9388,-3.9903,-4.0397,-4.0397,-4.1384,-4.2575,-4.314,-4.3334,-4.3364,-4.3364,-4.3888,-4.4197,-4.3544,-4.4466,-4.508,-4.4421,-4.5734,-4.6811,-4.6827,-4.8413,-4.9317,-4.8691,-4.9391,-4.9656,-4.9044,-4.813,-4.7984,-4.9007,-4.8794,-4.9078,-5.012,-5.0168,-5.0828,-5.2266,-5.3078,-5.3112,-5.2317,-5.2367,-5.2046,-5.1369,-5.1369,-5.1725,-5.2367,-5.1674,-5.1742,-5.2384,-5.2384,-5.2384,-5.2384,-5.2384,-5.2384,-5.2384,-5.2384,-5.2384,-5.2469,-5.323,-5.3501,-5.3501,-4.9179,-4.9434,-4.9658,-5.0106,-4.9703,-4.9314,-4.9314,-4.8581,-4.8117,-4.8267,-4.7713,-4.7309,-4.7309,-4.7309,-4.7309,-4.7309,-4.6561,-4.5858,-4.5334,-4.4526,-4.3813,-4.3319,-4.329,-4.3215,-4.3105,-4.1968,-4.113,-4.0636,-4.0127,-4.0053,-4.0397,-4.0561,-4.0816,-4.1145,-4.1145,-4.1145,-4.1115,-4.0442,-3.9873,-3.9388,-3.9388,-3.9723,-4.0172,-4.0172,-4.0172,-4.0172,-4.0172,-3.9843,-3.9388,-3.9388,-3.9388,-3.9388,-3.9388,-3.9388,-3.9388,-3.9388,-3.9388,-3.9388,-3.9388,-3.9903,-4.0397,-4.0397,-4.1384,-4.2575,-4.314,-4.3678,-4.4077,-4.4077,-4.4601,-4.5005,-4.4855,-4.5095,-4.508,-4.4421,-4.5242,-4.6021,-4.6113,-4.6659,-4.7203,-4.7606,-4.778,-4.8115,-4.8696,-4.7867,-4.8005,-4.9719,-4.8627,-4.8746,-5.0815,-5.0947,-5.1369,-5.2266,-5.3078,-5.3112,-5.2317,-5.2909,-5.3129,-5.2959,-5.2959,-5.3061,-5.3213,-5.3044,-5.3061,-5.3213,-5.3213,-5.3213,-5.3213,-5.3213,-5.3213,-5.3213,-5.3213,-5.3213,-5.3247,-5.3433,-5.3501,-5.3501,-4.8745,-4.9105,-4.9329,-4.9344,-4.9045,-4.876,-4.8416,-4.8072,-4.7833,-4.7833,-4.7534,-4.7309,-4.7309,-4.7309,-4.7309,-4.7309,-4.6711,-4.6037,-4.5334,-4.4676,-4.4018,-4.3319,-4.329,-4.3155,-4.2895,-4.1893,-4.1055,-4.0397,-4.0337,-4.0502,-4.0846,-4.0846,-4.104,-4.1407,-4.107,-4.0935,-4.0891,-4.0232,-3.9753,-3.9388,-3.9388,-3.9634,-3.9948,-3.9948,-3.9948,-3.9948,-3.9948,-3.9723,-3.9388,-3.9388,-3.9388,-3.9388,-3.9388,-3.9634,-3.9813,-3.9514,-3.9388,-3.9484,-3.9783,-4.0352,-4.0995,-4.1594,-4.2282,-4.297,-4.3589,-4.4062,-4.4407,-4.4706,-4.5304,-4.5663,-4.5349,-4.5559,-4.5454,-4.4466,-4.4714,-4.4974,-4.4747,-4.5186,-4.5829,-4.6523,-4.6971,-4.7533,-4.834,-4.7526,-4.7472,-4.8659,-4.8564,-4.9046,-5.0493,-5.163,-5.2435,-5.2841,-5.3281,-5.3298,-5.2858,-5.3281,-5.3501,-5.3501,-5.3501,-5.3501,-5.3501,-5.3501,-5.3501,-5.3501,-5.3501,-5.3501,-5.3501,-5.3501,-5.3501,-5.3501,-5.3501,-5.3501,-5.3501,-5.3501,-5.3501,-5.3501,-4.8267,-4.87,-4.8865,-4.8371,-4.8207,-4.7952,-4.7399,-4.7309,-4.7309,-4.7309,-4.7309,-4.7309,-4.7309,-4.7309,-4.7264,-4.7174,-4.6651,-4.6037,-4.5334,-4.4676,-4.4018,-4.3319,-4.329,-4.3075,-4.256,-4.1811,-4.101,-4.0247,-4.0816,-4.1085,-4.1085,-4.119,-4.1235,-4.1205,-4.0651,-4.0397,-4.0352,-3.9694,-3.9388,-3.9388,-3.9388,-3.9388,-3.9388,-3.9493,-3.9574,-3.9574,-3.9574,-3.9574,-3.9559,-3.9418,-3.9388,-3.9388,-3.9388,-3.9798,-4.0142,-3.9589,-3.9448,-3.9694,-4.0247,-4.095,-4.1818,-4.2991,-4.329,-4.3469,-4.4167,-4.4392,-4.4646,-4.5304,-4.5992,-4.6292,-4.5708,-4.5992,-4.5876,-4.4661,-4.4377,-4.4092,-4.3379,-4.4119,-4.4956,-4.5503,-4.647,-4.74,-4.8217,-4.7309,-4.7045,-4.8063,-4.8806,-4.956,-5.0317,-5.2219,-5.3382,-5.3501,-5.3501,-5.3501,-5.3501,-5.3501,-5.3501,-5.3501,-5.3501,-5.3501,-5.3501,-5.3501,-5.3501,-5.3501,-5.3501,-5.3501,-5.3501,-5.3501,-5.3501,-5.3501,-5.3501,-5.3501,-5.3501,-5.3501,-5.3501,-5.3501,-4.8177,-4.7923,-4.7758,-4.8207,-4.7833,-4.7429,-4.7324,-4.7309,-4.7309,-4.7309,-4.7309,-4.7309,-4.7309,-4.7309,-4.7085,-4.6516,-4.6339,-4.6037,-4.5334,-4.4676,-4.4018,-4.3319,-4.329,-4.3245,-4.314,-4.1998,-4.0786,-3.9574,-3.9679,-3.9723,-3.9738,-4.0292,-4.0546,-4.0546,-4.0442,-4.0397,-4.0352,-3.9694,-3.9388,-3.9388,-3.9388,-3.9388,-3.9448,-4.0038,-4.0247,-4.0247,-4.0247,-4.0247,-4.0172,-3.9604,-3.9388,-3.9388,-3.9388,-3.9448,-3.9508,-3.9454,-3.9813,-4.0277,-4.0367,-4.128,-4.2425,-4.311,-4.329,-4.3469,-4.4167,-4.4751,-4.5334,-4.6022,-4.6696,-4.7115,-4.701,-4.6621,-4.6067,-4.5274,-4.4676,-4.4092,-4.3379,-4.3913,-4.4424,-4.4529,-4.566,-4.7184,-4.902,-4.7478,-4.8064,-5.2214,-5.0027,-4.9785,-5.2775,-5.2656,-5.2807,-5.3484,-5.3501,-5.3501,-5.3501,-5.3501,-5.3501,-5.3501,-5.3501,-5.3501,-5.3501,-5.3501,-5.3501,-5.3501,-5.3501,-5.3501,-5.3501,-5.3501,-5.3501,-5.3501,-5.3501,-5.3501,-5.3501,-5.3501,-5.3501,-5.3501,-4.7698,-4.7519,-4.7399,-4.7713,-4.7504,-4.7309,-4.7309,-4.7309,-4.7309,-4.7309,-4.7309,-4.7309,-4.7309,-4.7309,-4.704,-4.6339,-4.5978,-4.5484,-4.4811,-4.4481,-4.4018,-4.3319,-4.329,-4.2961,-4.2297,-4.1339,-4.0382,-3.9388,-3.9388,-3.9568,-3.9948,-3.9903,-4.0053,-4.0382,-4.0023,-3.9873,-3.9873,-3.9933,-3.9948,-3.9978,-4.0337,-4.0472,-4.0502,-4.0816,-4.0935,-4.0935,-4.0935,-4.0711,-4.0352,-4.0053,-3.9709,-3.9388,-3.9388,-3.9664,-3.9948,-3.9948,-4.0412,-4.101,-4.1392,-4.2162,-4.2955,-4.3215,-4.3559,-4.3992,-4.4691,-4.5364,-4.6037,-4.6711,-4.71,-4.7309,-4.7309,-4.6471,-4.5783,-4.5843,-4.4691,-4.3768,-4.3813,-4.4122,-4.4451,-4.4811,-4.5723,-4.6807,-4.8142,-4.7875,-4.8426,-5.0289,-5.0327,-5.0782,-5.2045,-5.2657,-5.3129,-5.3501,-5.3501,-5.3501,-5.3501,-5.3501,-5.3501,-5.3501,-5.3501,-5.3501,-5.3501,-5.3501,-5.3501,-5.3501,-5.3501,-5.3501,-5.3501,-5.3501,-5.3501,-5.3501,-5.3501,-5.3501,-5.3501,-5.3501,-5.3501,-5.3501,-4.7309,-4.7309,-4.7309,-4.7309,-4.7309,-4.7309,-4.7309,-4.7309,-4.7309,-4.7309,-4.7309,-4.7309,-4.7309,-4.7174,-4.6815,-4.6142,-4.5454,-4.4781,-4.4122,-4.4092,-4.3828,-4.3319,-4.329,-4.2677,-4.1452,-4.0891,-4.0232,-3.9388,-3.9388,-3.9679,-4.0172,-3.9649,-3.9694,-4.0157,-3.9649,-3.9514,-3.9679,-4.0187,-4.0487,-4.0666,-4.1175,-4.1422,-4.1437,-4.1587,-4.1557,-4.1399,-4.1587,-4.119,-4.0606,-4.0442,-4.0172,-3.9828,-3.9514,-3.9978,-4.0591,-4.0442,-4.1085,-4.1983,-4.268,-4.318,-4.3559,-4.3708,-4.4167,-4.4721,-4.5379,-4.5948,-4.6516,-4.7174,-4.7309,-4.7309,-4.7309,-4.6337,-4.5708,-4.6232,-4.4859,-4.3917,-4.4466,-4.4691,-4.4975,-4.5469,-4.6142,-4.6826,-4.7563,-4.8141,-4.842,-4.8402,-5.0526,-5.1687,-5.1399,-5.3039,-5.394,-5.3754,-5.3602,-5.3501,-5.3501,-5.3501,-5.3501,-5.3501,-5.3501,-5.3501,-5.3501,-5.3501,-5.3501,-5.3501,-5.3501,-5.3501,-5.3501,-5.3501,-5.3501,-5.3501,-5.3501,-5.3501,-5.3501,-5.3501,-5.3501,-5.3501,-4.7309,-4.7309,-4.7309,-4.7309,-4.7309,-4.7309,-4.7309,-4.7309,-4.7309,-4.7309,-4.7309,-4.7309,-4.7309,-4.677,-4.6112,-4.5424,-4.4766,-4.4107,-4.3409,-4.3364,-4.3349,-4.329,-4.329,-4.2677,-4.1452,-4.1324,-4.0681,-3.9388,-3.9388,-3.9454,-3.9448,-3.9403,-3.9454,-3.9448,-3.9403,-3.9753,-4.0337,-4.0382,-4.0756,-4.1347,-4.1392,-4.1422,-4.1482,-4.2096,-4.1946,-4.1459,-4.2111,-4.1916,-4.122,-4.0606,-4.0771,-4.1025,-3.9798,-4.0292,-4.119,-4.0576,-4.1728,-4.329,-4.3988,-4.4212,-4.4392,-4.5005,-4.5185,-4.5409,-4.6097,-4.6249,-4.6516,-4.7174,-4.7309,-4.7309,-4.7309,-4.6726,-4.6219,-4.6264,-4.5663,-4.517,-4.5214,-4.5768,-4.6145,-4.6204,-4.683,-4.7591,-4.8594,-4.7919,-4.8183,-5.0062,-5.1035,-5.1906,-5.2811,-5.4565,-5.5226,-5.4532,-5.3856,-5.3501,-5.3501,-5.3501,-5.3501,-5.3501,-5.3501,-5.3501,-5.3501,-5.3501,-5.3501,-5.3501,-5.3501,-5.3501,-5.3501,-5.3501,-5.3501,-5.3501,-5.3501,-5.3501,-5.3501,-5.3501,-5.3501,-5.3501,-4.7309,-4.7309,-4.7309,-4.7309,-4.7309,-4.7309,-4.7309,-4.7309,-4.7309,-4.7309,-4.7309,-4.7309,-4.7309,-4.6711,-4.6052,-4.5349,-4.4691,-4.4032,-4.3334,-4.329,-4.329,-4.329,-4.329,-4.2677,-4.1452,-4.1422,-4.0726,-3.9388,-3.9388,-3.9388,-3.9388,-3.9388,-3.9634,-4.0023,-4.0023,-4.0382,-4.104,-4.1482,-4.1796,-4.2066,-4.2432,-4.2596,-4.2626,-4.2865,-4.2806,-4.2626,-4.288,-4.2536,-4.1991,-4.1737,-4.1504,-4.1294,-4.0786,-4.1265,-4.2141,-4.2656,-4.3643,-4.4706,-4.5379,-4.5244,-4.499,-4.5229,-4.5618,-4.6007,-4.6219,-4.6636,-4.6995,-4.7249,-4.7309,-4.7309,-4.7309,-4.677,-4.6456,-4.686,-4.6007,-4.5454,-4.5873,-4.6115,-4.6429,-4.689,-4.7519,-4.8233,-4.9031,-4.9349,-5.0096,-5.1614,-5.2543,-5.3539,-5.4628,-5.5319,-5.5047,-5.3568,-5.3717,-5.3703,-5.3518,-5.3501,-5.3501,-5.3501,-5.3501,-5.3501,-5.3467,-5.28,-5.287,-5.3467,-5.28,-5.287,-5.3501,-5.3501,-5.3501,-5.3501,-5.3501,-5.3501,-5.3501,-5.3501,-5.3501,-5.3501,-4.7309,-4.7309,-4.7309,-4.7309,-4.7309,-4.7309,-4.7309,-4.7309,-4.7309,-4.7309,-4.7309,-4.7309,-4.7309,-4.6711,-4.6052,-4.5349,-4.4691,-4.4032,-4.3334,-4.329,-4.329,-4.329,-4.329,-4.2821,-4.1752,-4.1527,-4.0846,-3.9723,-3.9514,-3.9388,-3.9388,-3.9634,-3.9963,-4.0412,-4.0621,-4.107,-4.1752,-4.2201,-4.2515,-4.2701,-4.315,-4.329,-4.329,-4.329,-4.317,-4.3045,-4.3215,-4.291,-4.2396,-4.2396,-4.2366,-4.2222,-4.1856,-4.2321,-4.3195,-4.4302,-4.5095,-4.5723,-4.6202,-4.6127,-4.5918,-4.5918,-4.6277,-4.6636,-4.6636,-4.698,-4.7309,-4.7309,-4.7309,-4.7309,-4.7309,-4.6935,-4.677,-4.7234,-4.6531,-4.6157,-4.6845,-4.6935,-4.7189,-4.7848,-4.8312,-4.8775,-4.9269,-4.9892,-5.077,-5.1894,-5.3147,-5.4621,-5.6305,-5.6393,-5.5684,-5.4177,-5.408,-5.3798,-5.3342,-5.3029,-5.272,-5.2539,-5.272,-5.272,-5.2503,-5.2313,-5.2492,-5.2956,-5.2241,-5.2312,-5.299,-5.2644,-5.2714,-5.299,-5.299,-5.3195,-5.3501,-5.3501,-5.3501,-5.3501,-4.7309,-4.7309,-4.7309,-4.7309,-4.7309,-4.7309,-4.7309,-4.7309,-4.7309,-4.7309,-4.7309,-4.7309,-4.7309,-4.6711,-4.6052,-4.5349,-4.4691,-4.4032,-4.3334,-4.329,-4.329,-4.329,-4.329,-4.303,-4.241,-4.1767,-4.107,-4.0397,-3.9753,-3.9388,-3.9403,-4.0098,-4.0412,-4.0442,-4.11,-4.1796,-4.241,-4.241,-4.2746,-4.3305,-4.3305,-4.3305,-4.3305,-4.3305,-4.294,-4.25,-4.3105,-4.2925,-4.241,-4.241,-4.324,-4.4092,-4.2845,-4.3284,-4.4466,-4.5125,-4.5798,-4.6294,-4.6294,-4.68,-4.7309,-4.7309,-4.7309,-4.7309,-4.7309,-4.7309,-4.7309,-4.7309,-4.7309,-4.7309,-4.7309,-4.7309,-4.7309,-4.7309,-4.7309,-4.7534,-4.8192,-4.8282,-4.8536,-4.9239,-4.9329,-4.9314,-4.9329,-4.9329,-4.9805,-5.084,-5.26,-5.4861,-5.7758,-5.7881,-5.7543,-5.6797,-5.5031,-5.3733,-5.2992,-5.1959,-5.1062,-5.0429,-5.1117,-5.1085,-5.0483,-5.2128,-5.2523,-5.1885,-5.1885,-5.1885,-5.1796,-5.0817,-5.0968,-5.1885,-5.1921,-5.2557,-5.3501,-5.3501,-5.3501,-5.3501,-4.7309,-4.7309,-4.7309,-4.7309,-4.7309,-4.7309,-4.7309,-4.7309,-4.7309,-4.7309,-4.7309,-4.7309,-4.7309,-4.6711,-4.6052,-4.5349,-4.4691,-4.4032,-4.3334,-4.329,-4.329,-4.329,-4.329,-4.303,-4.241,-4.2201,-4.1557,-4.0397,-4.0202,-4.0113,-4.0113,-4.0307,-4.0891,-4.1826,-4.2021,-4.2432,-4.3075,-4.3539,-4.3853,-4.4062,-4.4526,-4.4436,-4.4018,-4.4018,-4.3614,-4.3075,-4.323,-4.317,-4.3105,-4.3569,-4.3988,-4.4407,-4.496,-4.5409,-4.5858,-4.6516,-4.686,-4.701,-4.701,-4.716,-4.7309,-4.7309,-4.7309,-4.7309,-4.7309,-4.7309,-4.7309,-4.7309,-4.7309,-4.7309,-4.7309,-4.7309,-4.7309,-4.7309,-4.7698,-4.8057,-4.8252,-4.873,-4.9209,-4.9868,-4.9942,-5.0411,-5.1722,-5.1857,-5.2613,-5.4487,-5.5853,-5.677,-5.7101,-5.7611,-5.685,-5.4561,-5.447,-5.3366,-5.1074,-5.2019,-5.2021,-5.111,-5.2836,-5.2955,-5.1726,-5.1324,-5.1285,-5.1488,-5.0239,-5.0149,-5.0817,-5.0512,-5.0589,-5.093,-5.1614,-5.2117,-5.247,-5.323,-5.3501,-5.3501,-4.7309,-4.7309,-4.7309,-4.7309,-4.7309,-4.7309,-4.7309,-4.7309,-4.7309,-4.7309,-4.7309,-4.7309,-4.7309,-4.695,-4.6441,-4.5753,-4.4855,-4.4152,-4.3708,-4.3439,-4.329,-4.329,-4.329,-4.315,-4.2746,-4.253,-4.2006,-4.1175,-4.092,-4.0786,-4.0786,-4.1055,-4.1632,-4.241,-4.2626,-4.297,-4.3319,-4.3723,-4.4077,-4.4347,-4.4751,-4.4661,-4.4317,-4.4317,-4.4062,-4.3678,-4.3678,-4.3883,-4.4167,-4.4571,-4.4885,-4.5304,-4.6381,-4.6711,-4.68,-4.7189,-4.7309,-4.7309,-4.7309,-4.7309,-4.7309,-4.7309,-4.7309,-4.7309,-4.7309,-4.7309,-4.7309,-4.7309,-4.7309,-4.7384,-4.7653,-4.7698,-4.7773,-4.8042,-4.8416,-4.876,-4.903,-4.9404,-4.9898,-5.051,-5.0584,-5.1028,-5.2109,-5.223,-5.3149,-5.5393,-5.7017,-5.7516,-5.6623,-5.6971,-5.6233,-5.4022,-5.3676,-5.2688,-5.0894,-5.1976,-5.2109,-5.1211,-5.2809,-5.278,-5.1329,-5.0792,-5.0476,-5.0294,-4.9241,-4.9175,-4.9734,-4.9352,-4.9392,-4.9891,-5.0892,-5.132,-5.1431,-5.247,-5.287,-5.287,-4.7309,-4.7309,-4.7309,-4.7309,-4.7309,-4.7309,-4.7309,-4.7309,-4.7309,-4.7309,-4.7309,-4.7309,-4.7309,-4.7309,-4.704,-4.6339,-4.514,-4.4377,-4.4317,-4.3708,-4.3349,-4.329,-4.329,-4.329,-4.329,-4.2746,-4.2455,-4.2396,-4.1796,-4.1512,-4.1512,-4.2111,-4.2425,-4.2515,-4.306,-4.329,-4.329,-4.3349,-4.3723,-4.4332,-4.4451,-4.4451,-4.4407,-4.4466,-4.4451,-4.4407,-4.4407,-4.4781,-4.5304,-4.5364,-4.5843,-4.6516,-4.7115,-4.7309,-4.7309,-4.7309,-4.7309,-4.7309,-4.7309,-4.7309,-4.7309,-4.7309,-4.7309,-4.7324,-4.7384,-4.7339,-4.7324,-4.7384,-4.7399,-4.7578,-4.8177,-4.8341,-4.8566,-4.9209,-4.9359,-4.9553,-5.0106,-5.024,-5.051,-5.1154,-5.1214,-5.1261,-5.1339,-5.1511,-5.2515,-5.4589,-5.6603,-5.7297,-5.6243,-5.6126,-5.5554,-5.4489,-5.2844,-5.1943,-5.1855,-5.1943,-5.1658,-5.1018,-5.1713,-5.1371,-5.018,-5.0623,-5.0105,-4.8847,-4.8785,-4.8723,-4.8594,-4.7694,-4.7834,-4.8743,-4.9852,-5.0242,-5.0358,-5.1377,-5.1776,-5.1776,-4.7309,-4.7309,-4.7309,-4.7309,-4.7309,-4.7309,-4.7309,-4.7309,-4.7309,-4.7309,-4.7309,-4.7309,-4.7309,-4.7309,-4.704,-4.6339,-4.5559,-4.487,-4.4347,-4.4182,-4.3828,-4.3319,-4.329,-4.329,-4.329,-4.3155,-4.2865,-4.2396,-4.2246,-4.2186,-4.2186,-4.2336,-4.2626,-4.3135,-4.323,-4.329,-4.3319,-4.3843,-4.4182,-4.4407,-4.5454,-4.5559,-4.514,-4.5678,-4.5559,-4.508,-4.508,-4.517,-4.5379,-4.5918,-4.6546,-4.7115,-4.7249,-4.7309,-4.7309,-4.7309,-4.7309,-4.7309,-4.7309,-4.7309,-4.7309,-4.7309,-4.7309,-4.7444,-4.7952,-4.7683,-4.7459,-4.7967,-4.8072,-4.8117,-4.8252,-4.8745,-4.9149,-4.9284,-4.9703,-5.0031,-5.0166,-5.0629,-5.1065,-5.1199,-5.1214,-5.1557,-5.244,-5.4094,-5.5337,-5.5833,-5.6282,-5.6454,-5.6204,-5.5393,-5.4447,-5.3281,-5.2893,-5.2255,-5.1377,-5.2225,-5.2343,-5.1704,-5.2697,-5.286,-5.2203,-5.123,-5.0217,-4.9175,-4.8647,-4.8134,-4.7609,-4.7381,-4.7424,-4.7722,-4.8759,-4.9135,-4.9296,-5.032,-5.0741,-5.0741,-4.7309,-4.7309,-4.7309,-4.7309,-4.7309,-4.7309,-4.7309,-4.7309,-4.7309,-4.7309,-4.7309,-4.7309,-4.7309,-4.7309,-4.7174,-4.683,-4.6172,-4.5499,-4.4825,-4.4481,-4.4018,-4.3319,-4.329,-4.329,-4.329,-4.329,-4.3125,-4.2821,-4.2821,-4.2821,-4.2821,-4.2821,-4.3015,-4.329,-4.329,-4.3469,-4.3783,-4.4167,-4.4496,-4.484,-4.5544,-4.5618,-4.5334,-4.5693,-4.5813,-4.5783,-4.5783,-4.5978,-4.6307,-4.6681,-4.7025,-4.7309,-4.7309,-4.7309,-4.7309,-4.7309,-4.7309,-4.7309,-4.7309,-4.7309,-4.7309,-4.7309,-4.7534,-4.7863,-4.8207,-4.8012,-4.7952,-4.8626,-4.8805,-4.885,-4.9164,-4.9494,-4.9823,-5.0152,-5.0481,-5.0659,-5.0659,-5.1005,-5.1214,-5.1214,-5.1214,-5.1433,-5.2018,-5.364,-5.464,-5.464,-5.5134,-5.5174,-5.4624,-5.411,-5.3281,-5.2154,-5.2109,-5.1804,-5.1214,-5.1804,-5.2182,-5.2374,-5.3503,-5.3728,-5.3179,-5.1919,-5.0562,-4.9269,-4.8566,-4.8087,-4.7743,-4.7429,-4.7309,-4.7424,-4.8418,-4.8527,-4.8225,-4.9271,-4.9655,-4.9655,-4.7309,-4.7309,-4.7309,-4.7309,-4.7309,-4.7309,-4.7309,-4.7309,-4.7309,-4.7309,-4.7309,-4.7309,-4.7309,-4.7309,-4.7309,-4.7309,-4.68,-4.6157,-4.5349,-4.4781,-4.4137,-4.3319,-4.329,-4.329,-4.329,-4.329,-4.329,-4.329,-4.329,-4.329,-4.329,-4.329,-4.329,-4.329,-4.329,-4.3663,-4.4317,-4.4317,-4.4691,-4.5289,-4.5289,-4.5364,-4.5469,-4.5469,-4.5903,-4.6444,-4.6444,-4.6845,-4.7309,-4.7309,-4.7309,-4.7309,-4.7309,-4.7309,-4.7309,-4.7309,-4.7309,-4.7309,-4.7309,-4.7384,-4.7474,-4.7474,-4.7967,-4.8476,-4.8596,-4.8536,-4.8641,-4.9299,-4.9434,-4.9598,-5.0091,-5.0285,-5.0539,-5.1124,-5.1214,-5.1214,-5.1214,-5.1214,-5.1214,-5.1214,-5.1214,-5.1214,-5.1214,-5.223,-5.29,-5.29,-5.3785,-5.3913,-5.2945,-5.2738,-5.2184,-5.1214,-5.1214,-5.1214,-5.1214,-5.1214,-5.1896,-5.3193,-5.4168,-5.4326,-5.3709,-5.2484,-5.103,-4.9508,-4.8684,-4.8222,-4.8072,-4.7534,-4.7309,-4.7381,-4.821,-4.803,-4.7424,-4.8225,-4.8553,-4.8553,-4.7309,-4.7309,-4.7309,-4.7309,-4.7309,-4.7309,-4.7309,-4.7309,-4.7309,-4.7309,-4.7309,-4.7309,-4.7309,-4.7309,-4.7309,-4.7309,-4.7219,-4.6636,-4.5379,-4.5214,-4.4616,-4.3349,-4.329,-4.329,-4.329,-4.329,-4.329,-4.329,-4.329,-4.329,-4.329,-4.329,-4.329,-4.329,-4.329,-4.3663,-4.4317,-4.4317,-4.4691,-4.5289,-4.5289,-4.5648,-4.6145,-4.6145,-4.6591,-4.7174,-4.7174,-4.7234,-4.7309,-4.7309,-4.7309,-4.7309,-4.7309,-4.7309,-4.7309,-4.7309,-4.7309,-4.7309,-4.7309,-4.7713,-4.8147,-4.8147,-4.8656,-4.9284,-4.9838,-4.9538,-4.9314,-4.9927,-5.0061,-5.0091,-5.0166,-5.0659,-5.1063,-5.1214,-5.1214,-5.1214,-5.1214,-5.1214,-5.1214,-5.1214,-5.1214,-5.1214,-5.1214,-5.223,-5.29,-5.29,-5.3033,-5.3077,-5.29,-5.1987,-5.1339,-5.1214,-5.1214,-5.1214,-5.1214,-5.1214,-5.2275,-5.4379,-5.4547,-5.4541,-5.4429,-5.2688,-5.1463,-5.0595,-4.8991,-4.7967,-4.7429,-4.7339,-4.7309,-4.7294,-4.7452,-4.7424,-4.7309,-4.7452,-4.7495,-4.7495,-4.7309,-4.7309,-4.7309,-4.7309,-4.7309,-4.7309,-4.7309,-4.7309,-4.7309,-4.7309,-4.7309,-4.7309,-4.7309,-4.698,-4.6756,-4.6756,-4.6756,-4.6337,-4.5349,-4.5663,-4.5274,-4.3902,-4.3843,-4.3663,-4.3305,-4.3648,-4.3843,-4.3843,-4.3843,-4.3843,-4.3883,-4.4257,-4.4421,-4.4421,-4.4421,-4.4811,-4.5439,-4.5439,-4.5603,-4.5873,-4.5873,-4.6052,-4.6279,-4.6279,-4.6741,-4.7309,-4.7309,-4.7309,-4.7309,-4.7309,-4.7309,-4.7309,-4.7309,-4.7309,-4.7309,-4.7309,-4.7563,-4.7863,-4.7863,-4.8341,-4.888,-4.888,-4.9329,-4.9883,-5.0121,-5.0301,-5.0436,-5.0674,-5.0749,-5.0749,-5.0749,-5.1334,-5.1768,-5.1768,-5.1768,-5.1768,-5.1768,-5.1454,-5.1214,-5.1214,-5.1543,-5.1618,-5.1259,-5.2314,-5.2747,-5.1987,-5.2276,-5.2336,-5.1957,-5.1464,-5.1214,-5.1214,-5.1214,-5.1214,-5.1214,-5.1214,-5.2018,-5.3656,-5.4295,-5.4711,-5.4832,-5.3471,-5.213,-5.0766,-4.9035,-4.8117,-4.7818,-4.7459,-4.7309,-4.7309,-4.7309,-4.7309,-4.7309,-4.7309,-4.7309,-4.7309]},{"header":{"parameterUnit":"m.s-1","parameterCategory":1,"la1":30.6,"la2":28.766,"lo1":-90.7593,"lo2":-88.6598,"dy":0.0162,"dx":0.0183,"nx":116,"ny":114,"refTime":"2023-03-21T12:00:00:Z","depth":0,"parameterNumber":3,"parameterNumberName":"V-component_of_WINDS"},"data":[0.0,0.0,0.0,0.0,0.0,0.0,0.0,0.0,0.0,0.0,0.0,0.0,0.0,0.0,0.0,0.0,0.0,0.0,0.0,0.0,0.0,0.0,0.0,0.0,0.0,0.0,0.0,0.0,0.0,0.0,0.0,0.0,0.0,0.0,0.0,0.0,0.0,0.0,0.0,0.0,0.0,0.0,0.0,0.0,0.0,0.0,0.0,0.0,0.0,0.0,0.0,0.0,0.0,0.0,0.0,0.0,0.0,0.0,0.0,0.0,0.0,0.0,0.0,0.0,0.0,0.0,0.0,0.0,0.0,0.0,0.0,0.0,0.0,0.0,0.0,0.0,0.0,0.0,0.0,0.0,0.0,0.0,0.0,0.0,0.0,0.0,0.0,0.0,0.0,0.0,0.0,0.0,0.0,0.0,0.0,0.0,0.0,0.0,0.0,0.0,0.0,0.0,0.0,0.0,0.0,0.0,0.0,0.0,0.0,0.0,0.0,0.0,0.0,0.0,0.0,0.0,0.0,0.0,0.0,0.0,0.0,0.0,0.0,0.0,0.0,0.0,0.0,0.0,0.0,0.0,0.0,0.0,0.0,0.0,0.0,0.0,0.0,0.0,0.0,0.0,0.0,0.0,0.0,0.0,0.0,0.0,0.0,0.0,0.0,0.0,0.0,0.0,0.0,0.0,0.0,0.0,0.0,0.0,0.0,0.0,0.0,0.0,0.0,0.0,0.0,0.0,0.0,0.0,0.0,0.0,0.0,0.0,0.0,0.0,0.0,0.0,0.0,0.0,0.0,0.0,0.0,0.0,0.0,0.0,0.0,0.0,0.0,0.0,0.0,0.0,0.0,0.0,0.0,0.0,0.0,0.0,0.0,0.0,0.0,0.0,0.0,0.0,0.0,0.0,0.0,0.0,0.0,0.0,0.0,0.0,0.0,0.0,0.0,0.0,0.0,0.0,0.0,0.0,0.0,0.0,0.0,0.0,0.0,0.0,0.0,0.0,0.0,0.0,0.0,0.0,0.0,0.0,0.0,0.0,0.0,0.0,0.0,0.0,0.0,0.0,0.0,0.0,0.0,0.0,0.0,0.0,0.0,0.0,0.0,0.0,0.0,0.0,0.0,0.0,0.0,0.0,0.0,0.0,0.0,0.0,0.0,0.0,0.0,0.0,0.0,0.0,0.0,0.0,0.0,0.0,0.0,0.0,0.0,0.0,0.0,0.0,0.0,0.0,0.0,0.0,0.0,0.0,0.0,0.0,0.0,0.0,0.0,0.0,0.0,0.0,0.0,0.0,0.0,0.0,0.0,0.0,0.0,0.0,0.0,0.0,0.0,0.0,0.0,0.0,0.0,0.0,0.0,0.0,0.0,0.0,0.0,0.0,0.0,0.0,0.0,0.0,0.0,0.0,0.0,0.0,0.0,0.0,0.0,0.0,0.0,0.0,0.0,0.0,0.0,0.0,0.0,0.0,0.0,0.0,0.0,0.0,0.0,0.0,0.0,0.0,0.0,0.0,0.0,0.0,0.0,0.0,0.0,0.0,0.0,0.0,0.0,0.0,0.0,0.0,0.0,0.0,0.0,0.0,0.0,0.0,0.0,0.0,0.0,0.0,0.0,0.0,0.0,0.0,0.0,0.0,0.0,0.0,0.0,0.0,0.0,0.0,0.0,0.0,0.0,0.0,0.0,0.0,0.0,0.0,0.0,0.0,0.0,0.0,0.0,0.0,0.0,0.0,0.0,0.0,0.0,0.0,0.0,0.0,0.0,0.0,0.0,0.0,0.0,0.0,0.0,0.0,0.0,0.0,0.0,0.0,0.0,0.0,0.0,0.0,0.0,0.0,0.0,0.0,0.0,0.0,0.0,0.0,0.0,0.0,0.0,0.0,0.0,0.0,0.0,0.0,0.0,0.0,0.0,0.0,0.0,0.0,0.0,0.0,0.0,0.0,0.0,0.0,0.0,0.0,0.0,0.0,0.0,0.0,0.0,0.0,0.0,0.0,0.0,0.0,0.0,0.0,0.0,0.0,0.0,0.0,0.0,0.0,0.0,0.0,0.0,0.0,0.0,0.0,0.0,0.0,0.0,0.0,0.0,0.0,0.0,0.0,0.0,0.0,0.0,0.0,0.0,0.0,0.0,0.0,0.0,0.0,0.0,0.0,0.0,0.0,0.0,0.0,0.0,0.0,0.0,0.0,0.0,0.0,0.0,0.0,0.0,0.0,0.0,0.0,0.0,0.0,0.0,0.0,0.0,0.0,0.0,0.0,0.0,0.0,0.0,0.0,0.0,0.0,0.0,0.0,0.0,0.0,0.0,0.0,0.0,0.0,0.0,0.0,0.0,0.0,0.0,0.0,0.0,0.0,0.0,0.0,0.0,0.0,0.0,0.0,0.0,0.0,0.0,0.0,0.0,0.0,0.0,0.0,0.0,0.0,0.0,0.0,0.0,0.0,0.0,0.0,0.0,0.0,0.0,0.0,0.0,0.0,0.0,0.0,0.0,0.0,0.0,0.0,0.0,0.0,0.0,0.0,0.0,0.0,0.0,0.0,0.0,0.0,0.0,0.0,0.0,0.0,0.0,0.0,0.0,0.0,0.0,0.0,0.0,0.0,0.0,0.0,0.0,0.0,0.0,0.0,0.0,0.0,0.0,0.0,0.0,0.0,0.0,0.0,0.0,0.0,0.0,0.0,0.0,0.0,0.0,0.0,0.0,0.0,0.0,0.0,0.0,0.0,0.0,0.0,0.0,0.0,0.0,0.0,0.0,0.0,0.0,0.0,0.0,0.0,0.0,0.0,0.0,0.0,0.0,0.0,0.0,0.0,0.0,0.0,0.0,0.0,0.0,0.0,0.0,0.0,0.0,0.0,0.0,0.0,0.0,0.0,0.0,0.0,0.0,0.0,0.0,0.0,0.0,0.0,0.0,0.0,0.0,0.0,0.0,0.0,0.0,0.0,0.0,0.0,0.0,0.0,0.0,0.0,0.0,0.0,0.0,0.0,0.0,0.0,0.0,0.0,0.0,0.0,0.0,0.0,0.0,0.0,0.0,0.0,0.0,0.0,0.0,0.0,0.0,0.0,0.0,0.0,0.0,0.0,0.0,0.0,0.0,0.0,0.0,0.0,0.0,0.0,0.0,0.0,0.0,0.0,0.0,0.0,0.0,0.0,0.0,0.0,0.0,0.0,0.0,0.0,0.0,0.0,0.0,0.0,0.0,0.0,0.0,0.0,0.0,0.0,0.0,0.0,0.0,0.0,0.0,0.0,0.0,0.0,0.0,0.0,0.0,0.0,0.0,0.0,0.0,0.0,0.0,0.0,0.0,0.0,0.0,0.0,0.0,0.0,0.0,0.0,0.0,0.0,0.0,0.0,0.0,0.0,0.0,0.0,0.0,0.0,0.0,0.0,0.0,0.0,0.0,0.0,0.0,0.0,0.0,0.0,0.0,0.0,0.0,0.0,0.0,0.0,0.0,0.0,0.0,0.0,0.0,0.0,0.0,0.0,0.0,0.0,0.0,0.0,0.0,0.0,0.0,0.0,0.0,0.0,0.0,0.0,0.0,0.0,0.0,0.0,0.0,0.0,0.0,0.0,0.0,0.0,0.0,0.0,0.0,0.0,0.0,0.0,0.0,0.0,0.0,0.0,0.0,0.0,0.0,0.0,0.0,0.0,0.0,0.0,0.0,0.0,0.0,0.0,0.0,0.0,0.0,0.0,0.0,0.0,0.0,0.0,0.0,0.0,0.0,0.0,0.0,0.0,0.0,0.0,0.0,0.0,0.0,0.0,0.0,0.0,0.0,0.0,0.0,0.0,0.0,0.0,0.0,0.0,0.0,0.0,0.0,0.0,0.0,0.0,0.0,0.0,0.0,0.0,0.0,0.0,0.0,0.0,0.0,0.0,0.0,0.0,0.0,0.0,0.0,0.0,0.0,0.0,0.0,0.0,0.0,0.0,0.0,0.0,0.0,0.0,0.0,0.0,0.0,0.0,0.0,0.0,0.0,0.0,0.0,0.0,0.0,0.0,0.0,0.0,0.0,0.0,0.0,0.0,0.0,0.0,0.0,0.0,0.0,0.0,0.0,0.0,0.0,0.0,0.0,0.0,0.0,0.0,0.0,0.0,0.0,0.0,0.0,0.0,0.0,0.0,0.0,0.0,0.0,0.0,0.0,0.0,0.0,0.0,0.0,0.0,0.0,0.0,0.0,0.0,0.0,0.0,0.0,0.0,0.0,0.0,0.0,0.0,0.0,0.0,0.0,0.0,0.0,0.0,0.0,0.0,0.0,0.0,0.0,0.0,0.0,0.0,0.0,0.0,0.0,0.0,0.0,0.0,0.0,0.0,0.0,0.0,0.0,0.0,0.0,0.0,0.0,0.0,0.0,0.0,0.0,0.0,0.0,0.0,0.0,0.0,0.0,0.0,0.0,0.0,0.0,0.0,0.0,0.0,0.0,0.0,0.0,0.0,0.0,0.0,0.0,0.0,0.0,0.0,0.0,0.0,0.0,0.0,0.0,0.0,0.0,0.0,0.0,0.0,0.0,0.0,0.0,0.0,0.0,0.0,0.0,0.0,0.0,0.0,0.0,0.0,0.0,0.0,0.0,0.0,0.0,0.0,0.0,0.0,0.0,0.0,0.0,0.0,0.0,0.0,0.0,0.0,0.0,0.0,0.0,0.0,0.0,0.0,0.0,0.0,0.0,0.0,0.0,0.0,0.0,0.0,0.0,0.0,0.0,0.0,0.0,0.0,0.0,0.0,0.0,0.0,0.0,0.0,0.0,0.0,0.0,0.0,0.0,0.0,0.0,0.0,0.0,0.0,0.0,0.0,0.0,0.0,0.0,0.0,0.0,0.0,0.0,0.0,0.0,0.0,0.0,0.0,0.0,0.0,0.0,0.0,0.0,0.0,0.0,0.0,0.0,0.0,0.0,0.0,0.0,0.0,0.0,0.0,0.0,0.0,0.0,0.0,0.0,0.0,0.0,0.0,0.0,0.0,0.0,0.0,0.0,0.0,0.0,0.0,0.0,0.0,0.0,0.0,0.0,0.0,0.0,0.0,0.0,0.0,0.0,0.0,0.0,0.0,0.0,0.0,0.0,0.0,0.0,0.0,0.0,0.0,0.0,0.0,0.0,0.0,0.0,0.0,0.0,0.0,0.0,0.0,0.0,0.0,0.0,0.0,0.0,0.0,0.0,0.0,0.0,0.0,0.0,0.0,0.0,0.0,0.0,0.0,0.0,0.0,0.0,0.0,0.0,0.0,0.0,0.0,0.0,0.0,0.0,0.0,0.0,0.0,0.0,0.0,0.0,0.0,0.0,0.0,0.0,0.0,0.0,0.0,0.0,0.0,0.0,0.0,0.0,0.0,0.0,0.0,0.0,0.0,0.0,0.0,0.0,0.0,0.0,0.0,0.0,0.0,0.0,0.0,0.0,0.0,0.0,0.0,0.0,0.0,0.0,0.0,0.0,0.0,0.0,0.0,0.0,0.0,0.0,0.0,0.0,0.0,0.0,0.0,0.0,0.0,0.0,0.0,0.0,0.0,0.0,0.0,0.0,0.0,0.0,0.0,0.0,0.0,0.0,0.0,0.0,0.0,0.0,0.0,0.0,0.0,0.0,0.0,0.0,0.0,0.0,0.0,0.0,0.0,0.0,0.0,0.0,0.0,0.0,0.0,0.0,0.0,0.0,0.0,0.0,0.0,0.0,0.0,0.0,0.0,0.0,0.0,0.0,0.0,0.0,0.0,0.0,0.0,0.0,0.0,0.0,0.0,0.0,0.0,0.0,0.0,0.0,0.0,0.0,0.0,0.0,0.0,0.0,0.0,0.0,0.0,0.0,0.0,0.0,0.0,0.0,0.0,0.0,0.0,0.0,0.0,0.0,0.0,0.0,0.0,0.0,0.0,0.0,0.0,0.0,0.0,0.0,0.0,0.0,0.0,0.0,0.0,0.0,0.0,0.0,0.0,0.0,0.0,0.0,0.0,0.0,0.0,0.0,0.0,0.0,0.0,0.0,0.0,0.0,0.0,0.0,0.0,0.0,0.0,0.0,0.0,0.0,0.0,0.0,0.0,0.0,0.0,0.0,0.0,0.0,0.0,1.7056,1.7281,0.0,0.0,0.0,0.0,0.0,0.0,0.0,0.0,0.0,0.0,0.0,0.0,0.0,0.0,0.0,0.0,0.0,0.0,0.0,0.0,0.0,0.0,0.0,0.0,0.0,0.0,0.0,0.0,0.0,0.0,0.0,0.0,0.0,0.0,0.0,0.0,0.0,0.0,0.0,0.0,0.0,0.0,0.0,0.0,0.0,0.0,0.0,0.0,0.0,0.0,0.0,0.0,0.0,0.0,0.0,0.0,0.0,0.0,0.0,0.0,0.0,0.0,0.0,0.0,0.0,0.0,0.0,0.0,0.0,0.0,0.0,0.0,0.0,0.0,0.0,0.0,0.0,0.0,0.0,0.0,0.0,0.0,0.0,0.0,0.0,0.0,0.0,0.0,0.0,0.0,0.0,0.0,0.0,0.0,0.0,0.0,0.0,0.0,0.0,0.0,0.0,0.0,0.0,0.0,0.0,0.0,0.0,0.0,0.0,0.0,0.0,0.0,0.0,0.0,1.8794,1.8393,0.0,0.0,0.0,0.0,0.0,0.0,0.0,0.0,0.0,0.0,0.0,0.0,0.0,0.0,0.0,0.0,0.0,0.0,0.0,0.0,0.0,0.0,0.0,0.0,0.0,0.0,0.0,0.0,0.0,0.0,0.0,0.0,0.0,0.0,0.0,0.0,0.0,0.0,0.0,0.0,0.0,0.0,0.0,0.0,0.0,0.0,0.0,0.0,0.0,0.0,0.0,0.0,0.0,0.0,0.0,0.0,0.0,0.0,0.0,0.0,0.0,0.0,0.0,0.0,0.0,0.0,0.0,0.0,0.0,0.0,0.0,0.0,0.0,0.0,0.0,0.0,0.0,0.0,0.0,0.0,0.0,0.0,0.0,0.0,0.0,0.0,0.0,0.0,0.0,0.0,0.0,0.0,0.0,0.0,0.0,0.0,0.0,0.0,0.0,0.0,0.0,0.0,0.0,0.0,0.0,0.0,0.0,0.0,2.2777,2.2479,2.2126,2.1824,2.1963,2.2446,2.1075,2.0007,1.9221,1.9085,0.0,0.0,0.0,0.0,0.0,0.0,0.0,0.0,0.0,0.0,0.0,0.0,0.0,0.0,0.0,0.0,0.0,0.0,0.0,0.0,0.0,0.0,0.0,0.0,0.0,0.0,0.0,0.0,0.0,0.0,0.0,0.0,0.0,0.0,0.0,0.0,0.0,0.0,2.1677,2.236,2.1948,2.0645,2.0247,0.0,0.0,0.0,0.0,0.0,0.0,0.0,0.0,0.0,0.0,0.0,0.0,0.0,0.0,0.0,0.0,0.0,0.0,0.0,0.0,0.0,0.0,0.0,0.0,0.0,0.0,0.0,0.0,0.0,0.0,0.0,0.0,0.0,0.0,0.0,0.0,0.0,0.0,0.0,0.0,0.0,0.0,0.0,1.6653,1.6415,0.0,0.0,0.0,0.0,0.0,0.0,0.0,0.0,0.0,0.0,0.0,0.0,0.0,2.213,2.3006,2.4079,2.4812,2.5315,2.5257,2.5189,2.5139,2.5082,2.4919,2.4704,2.4448,0.0,2.2326,2.0677,0.0,0.0,0.0,0.0,0.0,0.0,0.0,0.0,0.0,0.0,0.0,0.0,0.0,0.0,0.0,0.0,0.0,0.0,0.0,0.0,0.0,0.0,0.0,0.0,0.0,0.0,0.0,0.0,0.0,0.0,0.0,0.0,0.0,0.0,0.0,0.0,2.3691,2.3635,2.3352,2.39,2.3531,2.2407,2.3102,2.2293,2.0485,2.0875,0.0,0.0,0.0,0.0,0.0,0.0,0.0,0.0,0.0,0.0,0.0,0.0,0.0,0.0,0.0,0.0,0.0,0.0,0.0,0.0,0.0,0.0,0.0,0.0,0.0,0.0,0.0,0.0,0.0,0.0,0.0,0.0,0.0,0.0,0.0,0.0,0.0,0.0,0.0,1.6687,1.6533,1.6079,1.6787,1.7431,0.0,0.0,0.0,0.0,0.0,0.0,0.0,0.0,0.0,2.2876,2.3439,2.4032,2.4648,2.515,2.5781,2.6455,2.6221,2.6357,2.6807,2.6328,2.5996,2.5801,2.5547,2.498,2.4085,2.2538,2.1589,2.108,0.0,0.0,0.0,0.0,2.0689,2.0637,0.0,0.0,0.0,0.0,0.0,0.0,0.0,0.0,0.0,0.0,0.0,0.0,0.0,0.0,0.0,2.3789,0.0,0.0,0.0,0.0,0.0,0.0,0.0,0.0,0.0,0.0,0.0,0.0,2.418,2.4502,2.4932,2.5361,2.5121,2.4282,2.5621,2.4579,2.1919,2.2028,2.21,0.0,0.0,0.0,0.0,0.0,0.0,0.0,0.0,0.0,0.0,0.0,0.0,0.0,0.0,0.0,0.0,0.0,0.0,0.0,0.0,0.0,0.0,0.0,0.0,0.0,0.0,0.0,0.0,0.0,0.0,0.0,0.0,0.0,0.0,0.0,0.0,0.0,0.0,1.652,1.6486,1.5851,1.7239,1.818,0.0,0.0,0.0,0.0,0.0,0.0,2.4027,2.4111,2.4512,2.5429,2.5458,2.5674,2.6221,2.623,2.6602,2.7344,2.7031,2.7207,2.7855,2.7168,2.6758,2.6533,2.6201,2.5684,2.5037,2.3971,2.2978,2.2227,2.2432,2.2256,2.1963,2.2588,2.2617,2.2402,0.0,0.0,0.0,0.0,0.0,0.0,0.0,0.0,0.0,0.0,0.0,0.0,0.0,0.0,2.3789,2.3789,2.3789,2.3779,0.0,0.0,0.0,0.0,0.0,0.0,0.0,0.0,0.0,2.4385,2.5177,2.5859,2.6299,2.6719,2.6863,2.6832,2.7373,2.6393,2.4363,2.4707,2.5111,2.5247,0.0,0.0,0.0,0.0,0.0,0.0,0.0,0.0,0.0,0.0,0.0,0.0,0.0,0.0,0.0,0.0,0.0,0.0,0.0,0.0,0.0,0.0,0.0,0.0,0.0,0.0,0.0,0.0,0.0,0.0,0.0,0.0,0.0,0.0,0.0,0.0,0.0,0.0,0.0,1.5851,1.7383,0.0,0.0,0.0,0.0,2.357,2.401,2.4465,2.5028,2.5047,2.5458,2.6299,2.6318,2.6728,2.7611,2.762,2.7793,2.8223,2.8203,2.8223,2.8262,2.8213,2.7754,2.6982,2.6963,2.624,2.5077,2.4551,2.3848,2.2994,2.2656,2.2256,2.1894,2.1934,2.1934,2.1924,0.0,0.0,0.0,0.0,0.0,0.0,0.0,0.0,0.0,0.0,0.0,0.0,0.0,2.3691,2.3896,2.417,2.3945,2.3789,2.3789,0.0,0.0,0.0,0.0,0.0,0.0,0.0,2.4277,2.5216,2.5869,2.6377,2.6797,2.7226,2.7432,2.7451,2.7881,2.7524,2.6544,2.612,2.5684,2.5187,2.4018,2.3623,0.0,0.0,0.0,0.0,0.0,0.0,0.0,0.0,0.0,0.0,0.0,0.0,0.0,0.0,0.0,0.0,0.0,0.0,0.0,0.0,0.0,0.0,0.0,0.0,0.0,0.0,0.0,0.0,0.0,0.0,0.0,0.0,0.0,0.0,0.0,0.0,0.0,1.8015,1.9698,0.0,2.1808,2.3167,2.418,2.4609,2.4756,2.5156,2.5879,2.5918,2.6318,2.7187,2.7268,2.749,2.8066,2.8066,2.8144,2.8291,2.8291,2.8291,2.8281,2.8018,2.7568,2.7002,2.6728,2.6182,2.5459,2.5019,2.4336,2.3545,2.3389,2.3076,2.2652,2.2652,2.2652,2.2652,0.0,0.0,0.0,0.0,0.0,0.0,0.0,0.0,0.0,0.0,0.0,2.3467,2.376,2.4043,2.4336,2.4609,2.4248,2.4004,2.4004,0.0,0.0,0.0,0.0,0.0,0.0,2.4297,2.501,2.6122,2.6602,2.7031,2.7451,2.7744,2.7949,2.8105,2.8535,2.8486,2.8057,2.748,2.6484,2.5244,2.4658,2.4502,2.4531,0.0,0.0,0.0,0.0,0.0,0.0,0.0,0.0,0.0,0.0,0.0,0.0,0.0,0.0,0.0,0.0,0.0,0.0,0.0,0.0,0.0,0.0,0.0,0.0,0.0,0.0,0.0,0.0,0.0,0.0,0.0,0.0,0.0,0.0,1.7459,1.8574,1.9423,2.1588,2.3142,2.3416,2.4716,2.5566,2.5566,2.583,2.6251,2.6787,2.6953,2.7295,2.7861,2.7881,2.8018,2.8291,2.8291,2.8291,2.8291,2.8291,2.8291,2.8281,2.7998,2.7559,2.7002,2.6719,2.6269,2.5664,2.541,2.4785,2.3984,2.3848,2.3525,2.3091,2.3091,2.3091,2.3091,0.0,0.0,0.0,0.0,0.0,0.0,0.0,0.0,0.0,0.0,2.3516,2.3799,2.3809,2.4607,2.5116,2.5116,2.4668,2.4414,2.4394,2.3569,0.0,0.0,0.0,0.0,2.4443,2.5265,2.6132,2.7031,2.7471,2.7891,2.8291,2.8291,2.8516,2.8935,2.9365,2.9316,2.8935,2.8926,2.7715,2.5693,2.4844,2.4727,2.4998,0.0,0.0,0.0,0.0,0.0,0.0,0.0,0.0,0.0,0.0,0.0,0.0,0.0,0.0,0.0,0.0,0.0,0.0,0.0,0.0,0.0,0.0,0.0,0.0,0.0,0.0,0.0,0.0,0.0,0.0,0.0,0.0,0.0,1.68,1.8844,2.0257,1.9976,2.2822,2.4663,2.4076,2.5517,2.6435,2.6426,2.7207,2.7738,2.7738,2.8066,2.8291,2.8291,2.8291,2.8291,2.8291,2.8291,2.8291,2.8291,2.8291,2.8291,2.8291,2.8281,2.7812,2.7012,2.7002,2.6464,2.5693,2.5664,2.5148,2.4394,2.3975,2.3535,2.3091,2.3091,2.3091,2.3091,0.0,0.0,0.0,0.0,0.0,0.0,0.0,0.0,0.0,0.0,2.3516,2.3906,2.4209,2.4736,2.5116,2.5116,2.4668,2.4287,2.3984,0.0,0.0,0.0,0.0,0.0,2.5304,2.5928,2.6631,2.749,2.791,2.8174,2.8291,2.8291,2.8516,2.8926,2.9043,2.9209,2.9375,2.9053,2.8408,2.749,2.6318,2.5732,2.5508,0.0,0.0,0.0,0.0,0.0,0.0,0.0,0.0,0.0,0.0,0.0,0.0,0.0,0.0,0.0,0.0,0.0,0.0,0.0,0.0,0.0,0.0,0.0,0.0,0.0,0.0,0.0,0.0,0.0,0.0,0.0,1.7749,1.8096,1.8009,1.9967,2.1693,2.2581,2.4749,2.6298,2.662,2.7354,2.7646,2.7334,2.7812,2.8125,2.8125,2.8232,2.8291,2.8291,2.8291,2.8291,2.8291,2.8291,2.8291,2.8291,2.8291,2.8291,2.8281,2.7978,2.7539,2.6992,2.6689,2.625,2.5635,2.5039,2.4824,2.4844,2.4414,2.3789,2.3091,2.3091,2.3091,2.3091,0.0,0.0,0.0,0.0,0.0,0.0,0.0,0.0,0.0,0.0,2.3672,2.4141,2.4385,2.4805,2.5116,2.5116,2.4512,2.4053,2.3809,0.0,0.0,0.0,0.0,2.5127,2.62,2.6699,2.7307,2.793,2.8174,2.8389,2.8555,2.8555,2.8877,2.9453,2.9453,2.96,2.9814,2.956,2.9209,2.876,2.8018,2.7246,2.6504,2.6152,2.5957,2.584,2.5478,2.5005,2.4522,2.4231,0.0,0.0,0.0,0.0,0.0,0.0,0.0,0.0,0.0,0.0,0.0,0.0,0.0,0.0,0.0,0.0,0.0,0.0,0.0,0.0,0.0,0.0,0.0,0.0,1.8537,1.9125,1.9372,2.083,2.2456,2.4081,2.5783,2.7225,2.8145,2.8408,2.8379,2.7959,2.8154,2.8291,2.8291,2.8291,2.8291,2.8291,2.8291,2.8291,2.8291,2.8291,2.8291,2.8291,2.8291,2.8291,2.8281,2.7861,2.7432,2.6992,2.6572,2.6143,2.5645,2.5128,2.4902,2.4756,0.0,0.0,0.0,0.0,2.3091,2.3091,0.0,0.0,0.0,0.0,0.0,0.0,0.0,0.0,0.0,0.0,0.0,2.4346,2.4346,2.4727,2.5018,2.4979,2.4228,2.3789,0.0,0.0,0.0,2.4541,2.5362,2.621,2.707,2.7519,2.792,2.8291,2.834,2.8555,2.8916,2.8975,2.9424,3.0195,3.0195,3.0225,3.0273,3.0215,2.998,2.9695,2.9695,2.8906,2.7725,2.6963,2.6846,2.6992,2.6181,2.5937,2.5966,2.5918,0.0,0.0,0.0,0.0,0.0,0.0,0.0,0.0,0.0,0.0,0.0,0.0,0.0,0.0,0.0,0.0,0.0,0.0,0.0,0.0,0.0,0.0,0.0,0.0,1.9492,2.0094,2.0648,2.1442,2.2678,2.4694,2.6429,2.7844,2.8859,2.8994,2.8818,2.8398,2.8359,2.834,2.8291,2.8291,0.0,0.0,0.0,2.8291,2.8291,2.8252,2.8252,2.8291,2.8242,2.8223,2.8203,2.7783,2.7353,2.6914,2.6504,2.6094,2.5684,2.5635,2.5176,2.4365,2.3906,2.375,2.374,2.3257,2.3091,2.3091,0.0,0.0,0.0,0.0,0.0,0.0,0.0,0.0,0.0,2.3091,2.3594,2.3906,2.3906,2.4287,2.4404,2.4072,2.3887,2.3789,0.0,0.0,2.4648,2.5391,2.6259,2.7012,2.7529,2.7959,2.8213,2.8291,2.8633,2.8838,2.8926,2.9277,2.9717,3.0195,3.0195,3.04,3.0732,3.0361,3.0156,3.0078,3.0078,2.9512,2.8662,2.8496,2.8057,2.7519,2.7353,2.751,2.7744,2.7402,2.7744,2.8164,2.7454,0.0,0.0,0.0,0.0,0.0,0.0,0.0,0.0,0.0,0.0,0.0,0.0,0.0,0.0,0.0,0.0,0.0,0.0,0.0,0.0,1.9428,1.9967,2.0628,2.0975,2.1166,2.2288,2.4941,2.7821,2.9553,2.9482,2.9443,2.9268,2.8828,2.8799,2.8652,2.831,2.8291,2.8291,2.8291,2.8291,2.8291,2.8291,2.7959,2.7959,2.8291,2.7949,0.0,2.7826,2.7334,2.6914,2.6484,2.6045,2.5762,2.5664,2.5352,2.4893,2.4336,2.352,2.3486,2.374,2.3257,2.3091,2.3091,0.0,0.0,0.0,0.0,0.0,0.0,0.0,0.0,0.0,0.0,2.3516,2.3789,2.3789,2.3975,2.4014,2.3809,2.3594,0.0,0.0,2.4502,2.5332,2.6641,2.7314,2.7959,2.8657,2.8828,2.8935,2.8935,2.9141,2.9355,2.956,2.9785,3.0117,3.0547,3.0547,3.0674,3.0869,3.0644,3.0547,3.0547,3.0547,3.0293,2.9883,2.9648,2.917,2.8677,2.8677,2.8613,2.8574,2.8369,2.8437,2.8496,2.7861,2.7425,2.6943,0.0,0.0,0.0,0.0,0.0,0.0,0.0,0.0,0.0,0.0,0.0,0.0,0.0,0.0,2.2929,0.0,0.0,2.1578,2.128,2.1046,2.1249,2.2194,2.2341,2.2893,2.4299,2.6611,2.8259,2.8642,2.9228,2.9385,2.8955,2.8721,2.8516,2.8301,2.8291,2.8291,2.8291,2.8291,2.8291,2.8291,2.7881,2.7881,2.8291,2.7861,2.7718,2.7699,2.7217,2.6787,2.6367,2.5879,2.5693,2.5635,2.5019,2.4609,2.4326,2.3432,2.3408,2.374,2.3257,2.3091,2.3091,0.0,0.0,0.0,0.0,0.0,0.0,0.0,0.0,0.0,0.0,2.3447,2.3662,2.3662,2.3662,2.3662,0.0,0.0,0.0,0.0,2.5029,2.6114,2.7715,2.8271,2.8857,2.9551,2.9626,2.9626,2.9626,2.9704,2.9863,3.0195,3.0293,3.0537,3.0889,3.0889,3.0889,3.0889,3.0889,3.0889,3.0889,3.0889,3.0889,3.085,3.0478,3.0117,2.9824,2.9824,2.9492,2.9062,2.9141,2.8887,2.8476,2.8198,2.8031,2.7744,2.6885,2.6758,0.0,0.0,0.0,0.0,0.0,0.0,0.0,0.0,0.0,2.5315,2.4771,2.5034,2.5236,2.476,2.3934,2.3364,2.3519,2.2439,2.2153,2.3807,2.3814,2.369,2.4062,2.52,2.6472,2.7799,2.8783,2.9283,2.9144,2.8779,2.8506,2.8418,2.834,2.8291,2.8291,2.8291,2.8291,2.8291,2.7881,2.7881,2.8291,2.7861,2.7718,2.7699,2.7217,2.6787,2.6367,2.5879,2.5693,2.5615,2.4738,2.4414,2.4326,2.3432,2.3305,2.3623,2.3227,2.3091,2.3091,0.0,0.0,0.0,0.0,0.0,0.0,0.0,0.0,0.0,0.0,0.0,0.0,0.0,0.0,0.0,0.0,0.0,0.0,2.4959,2.5781,2.6836,2.8164,2.8994,2.9528,2.9626,2.9626,2.9626,2.9626,2.9941,3.0156,3.0205,3.0625,3.084,3.0889,3.0889,3.0889,3.0889,3.0889,3.0889,3.0889,3.0889,3.0889,3.0889,3.083,3.0781,3.0742,3.0742,3.0205,2.956,2.9922,2.9775,2.9479,2.9375,2.9092,2.8613,2.7773,0.0,2.6172,2.4844,2.3975,2.3637,2.4736,2.4775,2.4941,0.0,0.0,2.6873,2.7198,2.7854,2.8,2.668,2.6848,2.6781,2.5423,2.4192,2.3869,2.5497,2.4479,2.4116,2.5558,2.5915,2.6634,2.8176,2.8437,2.896,2.9964,2.9668,2.9258,2.8867,2.8496,2.8291,2.8291,2.8291,2.8291,2.8291,2.7881,2.7881,2.8291,2.7861,2.7718,2.7699,2.7217,2.6787,2.6367,2.5879,2.5693,2.5615,2.4738,2.4414,2.4326,2.3432,2.312,2.3159,2.311,2.3091,2.3091,0.0,0.0,0.0,0.0,0.0,0.0,0.0,0.0,0.0,0.0,0.0,0.0,0.0,0.0,0.0,0.0,0.0,0.0,2.5713,2.6182,2.7285,2.9316,2.9746,3.0059,3.0332,3.0342,3.0342,3.0342,3.0518,3.0605,3.0605,3.0801,3.0889,3.0889,3.0889,3.1025,3.126,3.126,3.1406,3.1631,3.1631,3.1484,3.123,3.0986,3.042,2.9746,2.9746,2.9346,0.0,0.0,2.8769,2.8867,2.9111,2.873,2.8066,2.7471,2.668,0.0,2.4707,2.4336,2.4326,2.4619,2.5312,2.6123,2.6846,2.7402,2.7949,2.8633,2.9248,2.9568,2.9203,2.8618,2.7928,0.0,2.5946,2.5558,2.7202,2.5984,2.5485,2.69,2.6404,2.6651,2.823,2.9053,2.9575,2.9807,2.9434,2.9004,2.8574,2.8389,2.8291,2.8291,2.8291,2.8291,2.8291,2.7627,2.75,2.792,2.7246,2.6924,2.6914,2.6738,2.6416,2.5986,2.5537,2.5205,2.4922,2.4307,2.3906,2.3598,2.3237,2.3091,2.3091,2.3091,2.3091,2.3091,0.0,0.0,0.0,0.0,0.0,0.0,0.0,0.0,0.0,0.0,0.0,0.0,0.0,0.0,0.0,0.0,0.0,0.0,0.0,2.6435,2.7598,2.9922,3.0254,3.0547,3.0889,3.0889,3.0889,3.0889,3.1006,3.1064,3.1064,3.1191,3.125,3.125,3.125,3.1406,3.1699,3.1699,3.1875,3.2219,3.2041,3.1728,3.1269,3.0596,2.9609,2.8584,2.8701,2.8252,0.0,0.0,2.7432,2.7666,2.8086,2.7881,2.7373,2.6826,2.5967,2.5117,2.4707,2.4736,2.4932,2.5098,2.6172,2.7256,2.749,2.8203,2.8994,2.9619,3.0088,3.0488,3.083,2.9903,2.9098,2.9098,2.7751,2.7263,2.8852,2.7692,2.7115,2.8303,2.7712,2.7465,2.8137,2.8747,2.9067,2.9079,2.8649,2.8404,2.8486,2.8359,2.8291,2.8291,2.8291,2.8232,2.8125,2.751,2.7295,2.748,2.6855,2.6562,2.6562,2.6435,2.6152,2.5674,2.5391,2.5,2.456,2.4141,2.3711,2.3257,2.314,2.3091,2.311,2.3227,2.3198,2.3091,0.0,0.0,0.0,0.0,0.0,0.0,0.0,0.0,0.0,0.0,0.0,0.0,0.0,0.0,0.0,0.0,0.0,0.0,0.0,2.6533,2.7773,2.9567,3.041,3.0879,3.0889,3.0889,3.0889,3.0889,3.1299,3.1504,3.1504,3.1934,3.219,3.219,3.219,3.2139,3.2148,3.2148,3.2219,3.2129,3.1709,3.1289,3.0771,2.9473,2.8447,2.7806,2.8164,0.0,0.0,0.0,2.6162,2.584,2.6328,2.6728,0.0,2.5976,2.4863,0.0,0.0,0.0,2.4834,2.6514,2.7295,2.7861,2.8672,2.9521,3.0146,3.0176,3.0547,3.0869,3.0889,3.083,3.083,3.083,2.9403,2.8911,3.0587,2.9403,2.8746,3.0006,3.0091,2.9508,0.0,2.679,2.6602,2.7791,2.7395,2.7686,2.8807,2.8516,2.8291,2.8291,2.8291,2.8096,2.7738,2.7708,2.7441,2.7031,2.7012,2.6992,2.6982,2.6572,2.6152,2.5693,2.5674,2.5459,2.5057,2.458,2.415,2.373,2.3257,2.3091,2.3149,2.3613,2.3496,2.3091,0.0,0.0,0.0,0.0,0.0,0.0,0.0,0.0,0.0,0.0,0.0,0.0,0.0,0.0,0.0,0.0,0.0,0.0,0.0,2.4803,2.5891,2.7753,2.8564,2.8944,2.8827,3.0189,3.0333,2.9216,3.0746,3.1514,3.1533,3.1963,3.2229,3.2229,3.2229,3.2324,3.2588,3.2588,3.2588,3.2549,3.2119,3.1523,3.0742,2.9424,2.8047,2.6758,0.0,0.0,0.0,0.0,0.0,0.0,2.3874,0.0,0.0,2.3982,0.0,0.0,0.0,0.0,2.6416,2.7568,2.8398,2.9082,2.9639,3.0234,3.0654,3.0654,3.0088,2.958,2.958,2.958,2.958,2.958,2.9834,3.0265,3.083,3.0392,2.9997,2.9807,2.9146,0.0,0.0,2.688,2.6574,2.592,2.6496,2.6909,2.7048,2.7857,2.8164,2.7891,2.7881,2.7676,2.7236,2.6953,2.6748,2.6592,2.6309,2.6122,2.6113,2.6016,2.583,2.5674,2.543,2.5039,2.46,2.418,2.375,2.3305,2.3149,2.3091,2.311,2.3257,2.3218,2.314,0.0,0.0,0.0,0.0,0.0,0.0,0.0,0.0,0.0,0.0,0.0,0.0,0.0,0.0,0.0,0.0,0.0,0.0,0.0,0.0,2.3929,2.5659,2.6208,2.6478,2.6496,2.7806,2.7991,2.6923,2.8628,2.9452,2.947,3.0124,3.0448,3.0448,3.0448,3.0597,3.0819,3.0733,3.0584,3.0451,2.9822,2.9107,2.8286,2.7277,2.6235,0.0,0.0,0.0,0.0,0.0,0.0,0.0,0.0,0.0,0.0,0.0,0.0,0.0,0.0,2.5442,2.6729,2.7123,2.7639,2.8309,2.9315,2.9811,3.01,3.0548,2.9726,2.8877,2.8721,2.8574,2.8418,2.8262,2.9082,2.9844,3.0146,3.0059,2.9922,2.9814,2.9079,2.8065,0.0,0.0,2.5872,2.4771,2.542,2.5913,2.6063,2.7501,2.8164,2.79,2.7891,2.7607,2.7021,2.6748,2.6465,2.6152,2.582,2.5693,2.5693,2.5693,2.5693,2.5674,2.543,2.4971,2.4394,2.4121,2.3662,2.3091,2.3091,2.3091,2.311,2.3276,2.3369,2.3389,0.0,0.0,0.0,0.0,0.0,0.0,0.0,0.0,0.0,0.0,0.0,0.0,0.0,0.0,0.0,0.0,0.0,0.0,0.0,0.0,0.0,2.3361,2.357,2.3745,2.4033,2.4114,2.4139,2.41,2.5227,2.5746,2.5771,2.6727,2.7235,2.7235,2.7235,2.7235,2.721,2.6852,2.6538,2.6191,2.5249,2.439,2.3696,2.337,0.0,0.0,0.0,0.0,0.0,0.0,0.0,0.0,0.0,0.0,0.0,0.0,0.0,2.3417,2.3339,2.4614,2.5898,2.5553,2.5405,2.5845,2.7884,2.839,2.8696,2.9872,2.9414,2.8662,0.0,0.0,2.7471,2.708,2.7461,2.8086,2.8906,2.8672,2.8867,0.0,0.0,0.0,0.0,0.0,2.4497,2.4457,2.4367,2.4822,2.6036,2.752,2.8281,2.8262,2.8242,2.7842,2.7021,2.6992,2.6562,2.5693,2.5693,2.5693,2.5693,2.5693,2.5693,2.5693,2.5693,2.5206,2.4453,2.4453,2.39,2.313,2.313,2.313,2.3179,2.3633,2.3789,2.373,0.0,0.0,0.0,0.0,0.0,0.0,0.0,0.0,0.0,0.0,0.0,0.0,0.0,0.0,0.0,0.0,0.0,0.0,0.0,0.0,0.0,0.0,0.0,0.0,0.0,0.0,0.0,0.0,0.0,2.5156,2.5116,2.573,2.5932,2.5932,2.5932,2.5932,2.5923,2.589,2.5468,2.4884,0.0,2.3774,2.3207,0.0,0.0,0.0,0.0,0.0,0.0,0.0,0.0,0.0,0.0,2.2505,2.3142,0.0,0.0,2.5491,2.7015,2.7372,2.7351,2.757,2.6687,2.6216,2.7609,2.7926,2.8202,2.9051,2.8066,2.6904,0.0,0.0,0.0,2.6982,2.8437,0.0,3.0312,3.0293,0.0,3.0195,0.0,2.8566,2.8954,2.6245,2.5053,2.643,2.489,2.4662,2.6432,2.7682,2.8144,2.7832,2.751,2.7236,2.7012,2.6709,2.6279,2.5693,2.5693,2.5693,2.5693,2.5693,2.5693,2.5693,2.5693,2.542,2.4902,2.4902,2.4394,2.3623,2.3623,2.3623,2.3633,2.375,2.3789,2.3769,0.0,0.0,0.0,0.0,0.0,0.0,0.0,0.0,0.0,0.0,0.0,0.0,0.0,0.0,0.0,0.0,0.0,0.0,0.0,0.0,0.0,0.0,0.0,0.0,0.0,0.0,0.0,0.0,0.0,0.0,0.0,2.2536,2.2752,2.2613,2.2767,2.2829,2.2821,2.2675,0.0,0.0,0.0,0.0,0.0,0.0,0.0,0.0,0.0,0.0,0.0,0.0,0.0,2.2708,2.3652,2.4026,2.4432,2.6074,0.0,2.6848,2.7712,2.8314,2.8496,2.7799,2.6958,2.6434,2.7062,2.7203,2.734,2.7728,2.6323,2.507,2.5139,2.5063,2.5223,0.0,0.0,0.0,2.9658,2.9756,2.9941,0.0,2.9613,0.0,2.9807,2.7528,2.6668,2.8163,2.6154,2.5389,2.6641,2.7739,2.8184,2.7949,2.7705,2.7393,2.7021,2.6602,2.6172,2.5693,2.5693,2.5693,2.5693,2.5693,2.5693,2.5693,2.5693,2.5371,2.4795,2.5037,2.4607,2.3809,2.3994,2.4062,2.4062,2.4062,2.3945,2.3789,0.0,0.0,0.0,0.0,0.0,0.0,0.0,0.0,0.0,0.0,0.0,0.0,0.0,0.0,0.0,0.0,0.0,0.0,0.0,0.0,0.0,0.0,0.0,0.0,0.0,0.0,0.0,0.0,0.0,0.0,0.0,0.0,0.0,0.0,0.0,0.0,0.0,0.0,0.0,0.0,0.0,0.0,0.0,0.0,0.0,0.0,0.0,0.0,0.0,0.0,2.3613,2.37,2.5241,2.5724,2.5881,2.6939,2.7543,2.7776,2.7251,2.8049,2.8552,2.696,2.6331,2.6156,2.6355,2.6374,2.6273,2.604,2.4605,2.3538,2.3783,2.3475,2.3469,2.4343,0.0,2.7243,2.8486,2.8584,2.9131,3.0703,3.0537,3.0293,3.0293,2.9,2.864,2.9612,2.7657,2.6564,2.6975,2.7793,2.8271,2.8213,2.8262,2.7881,2.7021,2.6709,2.6309,2.5771,2.5771,2.5742,2.5693,2.5693,2.5693,2.5693,2.5693,2.5255,2.4619,2.5,2.4678,2.3994,2.4365,2.4502,2.4502,2.4502,2.4238,2.3877,0.0,0.0,0.0,0.0,0.0,0.0,0.0,0.0,0.0,0.0,1.7582,1.7582,0.0,0.0,0.0,0.0,0.0,0.0,0.0,0.0,0.0,0.0,0.0,0.0,0.0,0.0,0.0,0.0,0.0,0.0,0.0,0.0,0.0,0.0,0.0,0.0,0.0,0.0,0.0,0.0,0.0,0.0,0.0,0.0,0.0,0.0,0.0,0.0,0.0,0.0,2.3358,2.4352,2.5518,2.6957,2.8501,2.9814,2.9201,2.828,2.8888,2.7052,2.5242,2.6218,2.498,2.3977,2.5655,2.5675,0.0,0.0,2.406,2.3532,2.127,2.1852,2.3208,2.4817,2.5589,2.703,3.0042,3.0107,3.0127,0.0,3.082,3.0771,3.0771,2.987,2.956,3.0068,2.8746,2.808,2.8504,2.8354,2.8135,2.7783,2.8115,2.7881,2.7021,2.7305,2.7051,2.6279,2.6279,2.6084,2.5693,2.5693,2.5693,2.5693,2.5693,2.5606,2.5469,2.5538,2.5312,2.49,2.4969,2.4998,2.4998,2.4998,2.4678,2.4307,0.0,0.0,0.0,0.0,0.0,0.0,0.0,1.7689,1.7642,1.7802,1.7822,1.7762,1.7602,1.7582,0.0,0.0,0.0,0.0,0.0,0.0,0.0,0.0,0.0,0.0,0.0,0.0,0.0,0.0,0.0,0.0,0.0,0.0,0.0,0.0,0.0,0.0,0.0,0.0,0.0,0.0,0.0,0.0,0.0,0.0,0.0,0.0,0.0,0.0,0.0,0.0,2.2055,2.3215,2.5728,2.7488,2.9011,3.0984,3.0287,2.9079,2.9933,2.8073,2.6041,2.6608,2.5649,2.4698,2.5132,0.0,0.0,0.0,2.2996,2.2362,2.0972,2.1762,0.0,2.29,2.473,2.6712,2.8378,2.913,2.9873,3.0781,3.0889,3.0889,3.0889,3.0508,3.0244,3.0195,2.9424,2.8945,2.8916,2.8525,2.8203,2.7998,2.8193,2.7988,2.7363,2.7334,2.7012,2.6387,2.6162,2.5937,2.5693,2.5693,2.5693,2.5693,2.5693,2.5605,2.541,2.5596,2.5478,2.5135,2.5322,2.541,2.541,2.541,2.499,2.4414,0.0,0.0,0.0,0.0,0.0,0.0,0.0,1.7842,1.7796,1.8049,1.8089,1.8023,1.7716,1.7682,1.7655,0.0,0.0,0.0,0.0,0.0,0.0,0.0,0.0,0.0,0.0,0.0,0.0,0.0,0.0,0.0,0.0,0.0,0.0,0.0,0.0,0.0,0.0,0.0,0.0,0.0,0.0,0.0,0.0,0.0,0.0,0.0,0.0,0.0,0.0,0.0,2.0409,2.1382,2.487,2.6816,2.817,3.0236,2.9665,2.8607,2.9348,2.8027,2.6471,2.652,2.598,2.5284,2.472,2.4289,0.0,2.291,2.2173,2.1436,2.0666,2.1504,2.2037,0.0,2.3426,2.5739,2.7008,2.7931,2.907,0.0,3.0889,0.0,3.0889,3.0801,0.0,3.0225,2.9717,2.9238,2.8809,2.8467,2.8291,2.8291,2.8291,2.8135,2.7855,2.7461,2.708,2.666,2.6221,2.5918,2.583,2.5732,2.5693,2.5693,2.5693,2.5537,2.5244,2.5596,2.5527,2.5244,2.5596,2.5693,2.5693,2.5693,2.5234,2.456,0.0,0.0,0.0,0.0,0.0,0.0,0.0,1.7969,1.8055,1.841,1.845,1.8337,1.7982,1.7949,1.7889,0.0,0.0,0.0,0.0,0.0,0.0,0.0,0.0,0.0,0.0,0.0,0.0,0.0,0.0,0.0,0.0,0.0,0.0,0.0,0.0,0.0,0.0,0.0,0.0,0.0,0.0,0.0,0.0,0.0,0.0,0.0,0.0,0.0,0.0,0.0,0.0,1.9174,2.1515,2.3945,2.5931,2.6296,0.0,0.0,2.5497,2.413,2.2852,2.4287,2.3728,2.3131,2.4331,0.0,2.3179,2.1771,2.2262,2.1908,1.8642,1.9882,2.1538,2.1919,0.0,2.3489,2.8593,2.8004,2.8033,3.0616,0.0,0.0,3.0889,3.0508,3.0244,3.0205,2.9443,2.8799,2.8369,2.831,2.8291,2.8291,2.8291,2.8271,2.8232,2.8193,2.7969,2.7591,2.7109,2.6699,2.6318,2.5869,2.5693,2.5693,2.5693,2.5664,2.5635,2.5674,2.5664,2.5635,2.5674,2.5693,2.5693,2.5693,2.543,2.5057,0.0,0.0,0.0,0.0,0.0,0.0,1.7949,1.7883,1.7943,1.843,1.849,1.8444,1.833,1.831,1.8116,0.0,0.0,0.0,0.0,0.0,0.0,0.0,0.0,0.0,0.0,0.0,0.0,1.7582,1.7769,0.0,0.0,0.0,0.0,0.0,0.0,0.0,0.0,0.0,0.0,0.0,0.0,0.0,0.0,0.0,0.0,0.0,0.0,0.0,0.0,0.0,0.0,0.0,1.8852,2.0224,0.0,0.0,2.4883,2.4112,2.4902,2.3568,2.2182,2.2818,2.2489,2.2271,2.2922,0.0,2.2943,2.2464,2.2775,2.2457,2.026,2.0629,2.1228,0.0,0.0,0.0,2.5745,2.6154,2.7027,2.9427,2.9707,0.0,0.0,0.0,3.0391,2.9863,2.9502,2.9014,2.833,2.8291,2.8291,2.8291,2.8291,2.8291,2.8291,2.8047,2.7885,2.7708,2.7217,2.6934,2.6758,2.6328,2.6133,2.6113,2.5801,2.5693,2.5693,2.5693,2.5693,2.5693,2.5693,2.5693,2.5693,2.5693,2.5449,2.5116,0.0,0.0,0.0,0.0,0.0,1.7689,1.7949,1.7862,1.7903,1.8424,1.849,1.849,1.849,1.841,1.819,1.7756,0.0,0.0,0.0,0.0,0.0,0.0,0.0,0.0,0.0,0.0,1.7629,1.7716,1.7889,1.7929,0.0,0.0,0.0,0.0,0.0,0.0,0.0,0.0,0.0,0.0,0.0,0.0,0.0,0.0,0.0,0.0,0.0,0.0,0.0,0.0,0.0,0.0,0.0,0.0,0.0,0.0,2.3126,2.2904,2.3636,2.2837,2.1988,2.249,2.2193,2.2005,0.0,0.0,2.2921,2.3406,2.3266,2.2769,2.1689,2.1705,2.1572,0.0,0.0,2.2708,2.4412,2.4994,2.61,2.8286,0.0,2.9014,3.0195,3.0229,2.9611,2.8285,2.8634,2.8506,2.772,2.8067,2.8291,2.8291,2.8291,2.8291,2.8291,2.7998,2.7851,2.7851,2.7412,2.7207,2.7197,2.6768,2.6572,2.6543,2.6123,2.5937,2.5918,2.5742,2.5693,2.5693,2.5693,2.5693,2.5693,2.5693,2.5537,2.5264,0.0,0.0,0.0,0.0,0.0,0.0,0.0,1.7989,1.8095,1.845,1.849,1.849,1.849,1.8175,1.7995,1.7989,0.0,0.0,0.0,0.0,0.0,0.0,0.0,0.0,0.0,0.0,1.7736,1.7989,1.7995,1.8196,1.849,1.8784,1.8918,0.0,0.0,0.0,0.0,0.0,0.0,0.0,0.0,0.0,0.0,0.0,0.0,0.0,0.0,0.0,0.0,0.0,0.0,0.0,0.0,0.0,0.0,0.0,1.935,2.0743,2.075,2.1179,2.2001,2.3559,2.2876,2.2402,0.0,0.0,2.3123,2.4158,2.3686,2.2865,2.2126,2.2608,2.283,2.2099,0.0,0.0,2.5993,2.5217,2.514,0.0,2.7728,2.8018,2.8857,2.8618,2.7485,2.5128,2.6301,2.6837,2.6145,2.7501,2.8291,2.8291,2.8291,2.8291,2.8291,2.8291,2.8281,2.8281,2.7914,2.7708,2.7699,2.7207,2.7012,2.6982,2.6562,2.6387,2.6348,2.5869,2.5693,2.5693,2.5693,2.5693,2.5693,2.5693,2.5684,2.5684,0.0,0.0,0.0,0.0,0.0,0.0,0.0,1.7729,1.7842,1.8095,1.8135,1.8263,1.847,1.8223,1.7995,1.7995,0.0,0.0,0.0,0.0,0.0,0.0,0.0,0.0,0.0,0.0,1.7736,1.7995,1.825,1.8397,1.8504,1.8998,1.9118,1.8938,1.9232,0.0,0.0,0.0,0.0,0.0,0.0,0.0,0.0,0.0,0.0,0.0,0.0,0.0,0.0,0.0,0.0,0.0,0.0,0.0,0.0,0.0,0.0,0.0,1.9913,2.0214,2.0706,2.2108,2.2162,2.2296,2.3965,2.3871,2.3582,2.3923,2.3535,2.3042,2.277,2.2267,2.2264,2.3442,2.3,0.0,0.0,0.0,0.0,2.7559,2.7982,2.8288,2.8547,2.7472,2.6807,2.6854,2.7044,2.7359,2.8003,2.8222,2.8291,2.8291,2.8291,2.8291,2.8291,2.8291,2.8291,2.8291,2.8154,2.8096,2.8086,2.7656,2.7461,2.7422,2.6699,2.6387,2.6357,2.5869,2.5693,2.5693,2.5693,2.5693,2.5693,2.5693,2.5693,2.5693,0.0,0.0,0.0,0.0,0.0,0.0,0.0,1.7582,1.7649,1.7849,1.7869,1.7989,1.829,1.8056,1.7862,1.7982,0.0,0.0,0.0,0.0,0.0,0.0,0.0,0.0,0.0,1.7816,1.8016,1.8544,1.8731,1.8878,1.8991,1.9359,1.9372,1.9098,1.9285,0.0,0.0,0.0,0.0,0.0,0.0,0.0,1.9424,0.0,0.0,0.0,0.0,0.0,0.0,0.0,0.0,0.0,0.0,0.0,0.0,0.0,0.0,0.0,0.0,1.9764,2.0762,2.2172,2.2731,0.0,0.0,2.4402,2.4033,2.4033,2.3178,2.2451,2.2666,2.1553,2.1049,2.2346,2.2592,0.0,0.0,0.0,0.0,2.7611,2.8254,2.8403,2.7957,2.673,2.6017,2.6025,2.6249,2.6637,2.7123,2.8045,2.8457,2.8301,2.8291,2.8291,2.8291,2.8291,2.8291,2.8291,2.8291,2.8291,2.8281,2.8018,2.7812,2.7679,2.6924,2.6533,0.0,2.5869,2.5693,2.5693,2.5693,2.5693,2.5693,2.5693,2.5693,2.5693,0.0,0.0,0.0,0.0,0.0,0.0,0.0,0.0,0.0,1.7582,1.7582,1.7695,1.7929,1.7756,1.7702,1.7935,0.0,0.0,0.0,0.0,0.0,0.0,0.0,0.0,0.0,1.8155,1.849,1.9332,1.9332,1.9486,1.9766,1.9766,1.9626,1.9424,1.9424,1.9424,0.0,0.0,0.0,0.0,0.0,0.0,0.0,0.0,0.0,0.0,0.0,0.0,0.0,0.0,0.0,0.0,0.0,0.0,0.0,0.0,0.0,0.0,0.0,1.9656,2.1639,2.3244,2.4018,0.0,0.0,2.5273,0.0,2.4365,2.2817,2.1563,2.2044,2.0809,1.9786,1.9837,2.1459,0.0,0.0,2.5239,0.0,0.0,2.8319,2.8209,2.7038,2.6151,2.4934,2.3255,2.4387,2.4958,2.4506,2.7169,2.8612,2.831,2.8291,2.8291,2.8291,2.8291,2.8291,2.8291,2.8291,2.8291,2.8291,2.8291,2.8086,2.7738,2.7246,2.6826,2.6396,2.5967,2.5713,2.5693,2.5693,2.5693,2.5693,2.5693,2.5693,2.5693,0.0,0.0,0.0,0.0,0.0,0.0,0.0,0.0,0.0,0.0,1.7582,1.7609,1.7682,1.7622,1.7609,0.0,0.0,0.0,0.0,0.0,0.0,0.0,0.0,0.0,1.8089,1.8303,1.8597,1.9025,1.9025,1.9178,1.9466,1.9466,1.9432,1.9424,1.9424,1.9424,0.0,0.0,0.0,0.0,0.0,0.0,0.0,0.0,0.0,0.0,1.9032,1.8738,0.0,0.0,0.0,0.0,0.0,0.0,0.0,0.0,2.0345,0.0,1.965,0.0,2.0072,2.1436,2.2367,2.3365,0.0,0.0,0.0,2.3867,2.3274,2.2811,2.3287,2.2742,2.2478,2.3155,2.3669,2.4247,2.5015,2.6953,2.8525,2.9117,2.7688,2.6303,2.536,2.3467,2.2611,2.34,2.3459,2.4317,2.632,2.6821,2.7436,2.8247,2.8291,2.8291,2.8291,2.8291,2.8291,2.8291,2.8291,2.8291,2.8291,2.8291,2.8242,2.8125,2.7695,2.7266,2.6836,2.6416,2.6035,2.5693,2.5693,2.5693,2.5693,2.5693,2.5693,2.5693,0.0,0.0,0.0,0.0,0.0,0.0,0.0,0.0,0.0,0.0,0.0,0.0,0.0,0.0,0.0,0.0,0.0,0.0,0.0,0.0,0.0,0.0,0.0,1.8122,1.8388,1.8611,1.8898,1.9325,1.9325,1.9406,1.9566,1.9566,1.9492,1.9424,1.9424,1.9424,0.0,0.0,0.0,0.0,1.9424,0.0,0.0,0.0,0.0,0.0,1.8724,1.851,0.0,1.7983,1.8601,1.9731,0.0,0.0,0.0,0.0,2.1466,2.122,2.0027,2.0171,2.0826,2.1548,2.2559,2.3523,2.4324,0.0,0.0,0.0,2.284,2.2328,2.2608,2.2002,2.1644,2.2308,2.3094,0.0,0.0,0.0,2.8652,2.9528,2.844,2.7607,2.7562,2.5701,2.4832,2.5749,2.491,2.5115,2.6986,2.6867,2.7234,2.8257,2.8291,2.8291,2.8291,2.8291,2.8291,2.8291,2.8291,2.8291,2.8291,2.8291,2.8193,2.7988,2.7816,2.7314,2.6709,2.6484,2.6133,2.5693,2.5693,2.5693,2.5693,2.5693,2.5693,2.5693,0.0,0.0,0.0,0.0,0.0,0.0,0.0,0.0,0.0,0.0,0.0,0.0,0.0,0.0,0.0,0.0,0.0,0.0,0.0,0.0,0.0,0.0,0.0,1.8249,1.8844,1.8905,1.9192,1.9733,1.9733,1.9733,1.9733,1.978,1.9673,1.9432,1.9444,1.9424,0.0,0.0,0.0,0.0,1.9424,0.0,0.0,0.0,0.0,0.0,0.0,0.0,0.0,1.8136,1.9004,2.0428,2.1534,0.0,0.0,0.0,0.0,0.0,2.0531,2.138,2.2643,2.2391,2.3327,2.4228,2.3867,0.0,0.0,0.0,2.2306,2.1587,2.1651,2.0843,2.0292,2.0704,2.2144,2.4231,2.7004,2.7783,2.8481,2.9509,2.9509,2.965,3.0267,2.8719,2.7751,2.7991,2.648,2.5972,2.7043,2.7068,2.7391,2.8267,2.8291,2.8291,2.8291,2.8291,2.8291,2.8291,2.8291,2.8291,2.8291,2.8291,2.8096,2.7816,2.7816,2.7275,2.6484,2.6484,2.6191,2.5693,2.5693,2.5693,2.5693,2.5693,2.5732,2.5791,0.0,0.0,0.0,0.0,0.0,0.0,0.0,0.0,0.0,0.0,0.0,0.0,0.0,0.0,0.0,0.0,0.0,0.0,0.0,0.0,0.0,0.0,1.7856,1.8203,1.8551,1.8798,1.9092,1.9432,1.9432,1.9432,1.9497,1.9686,1.9773,1.9726,1.9472,1.9424,1.9424,1.9424,1.9424,1.9424,1.9424,0.0,0.0,0.0,0.0,0.0,0.0,0.0,0.0,1.9773,2.1195,2.3024,2.2846,0.0,0.0,0.0,0.0,0.0,2.3197,2.3623,2.3763,2.2382,2.2996,2.3867,2.3809,0.0,0.0,0.0,0.0,0.0,0.0,2.3268,2.3257,2.3668,2.5208,2.7001,2.8935,2.9541,2.9746,2.9646,2.9019,2.8323,2.7719,2.5638,2.4901,2.6288,2.4503,2.4464,2.6977,2.676,2.7105,2.8247,2.8291,2.8291,2.8291,2.8291,2.8291,2.8291,2.8291,2.8291,2.8291,2.8291,2.8262,2.8193,2.8193,2.7705,2.6914,2.6914,2.6455,2.5693,2.5693,2.5693,2.5693,2.5693,2.5977,2.6289,0.0,0.0,0.0,0.0,0.0,0.0,0.0,0.0,0.0,0.0,0.0,0.0,0.0,0.0,0.0,0.0,0.0,0.0,0.0,0.0,0.0,1.7822,1.7916,1.8135,1.8484,1.8778,1.9145,1.9599,1.9599,1.9679,1.9833,1.9813,1.98,1.9786,1.9499,1.9424,1.9424,1.9424,1.9424,1.9424,0.0,0.0,0.0,0.0,0.0,0.0,0.0,0.0,0.0,0.0,2.2207,2.3619,2.3165,0.0,0.0,0.0,0.0,0.0,2.3437,2.3574,2.3596,2.3083,2.3537,2.4014,2.3545,2.3237,0.0,0.0,0.0,0.0,0.0,2.417,2.4853,2.5986,2.7031,2.7978,2.8769,2.9043,2.9268,2.9597,2.9269,2.9058,2.9143,2.8169,2.7829,2.8614,2.6747,2.6427,2.8371,2.7212,2.7041,2.8247,2.8291,2.8291,2.8291,2.8291,2.8291,2.8291,2.8291,2.8291,2.8291,2.8291,2.8291,2.8291,2.8291,2.7803,2.7031,2.7266,2.6865,2.6113,2.6338,2.6376,2.6376,2.6376,2.6406,2.6387,0.0,0.0,0.0,0.0,0.0,0.0,0.0,0.0,0.0,0.0,0.0,0.0,0.0,0.0,0.0,0.0,0.0,0.0,0.0,0.0,1.8342,1.8604,1.8865,1.8904,1.8584,1.8878,1.9279,1.98,1.9867,2.0047,2.0327,1.9967,1.9833,1.9887,1.9526,1.9424,1.9424,1.9424,1.9424,1.9424,0.0,0.0,0.0,0.0,0.0,0.0,0.0,0.0,0.0,0.0,0.0,0.0,0.0,0.0,0.0,2.376,2.3398,2.312,2.3218,2.3315,2.3452,2.373,2.3955,2.4023,2.3672,2.3471,2.3452,2.3656,0.0,0.0,0.0,2.4842,2.5957,2.7601,2.8252,2.8662,2.8867,2.8896,2.9141,2.9861,2.9883,3.0146,3.083,3.0518,3.0412,3.0732,2.8823,2.8166,2.9378,2.7817,2.7342,2.8247,2.8291,2.8291,2.8291,2.8291,2.8291,2.8291,2.8291,2.8291,2.8291,2.8291,2.8291,2.8291,2.8291,2.7861,2.7197,2.7529,2.7217,2.6562,2.6894,2.7012,2.7021,2.7129,2.6894,2.6533,0.0,0.0,0.0,0.0,0.0,0.0,0.0,0.0,0.0,0.0,0.0,0.0,0.0,0.0,0.0,0.0,0.0,0.0,0.0,0.0,2.0073,2.0508,2.1447,2.101,1.8934,1.9185,1.9492,1.98,2.0067,2.0354,2.0635,2.0067,1.9947,2.018,1.9619,1.9424,1.9424,1.9424,1.9424,1.9424,1.9424,0.0,0.0,0.0,0.0,0.0,0.0,0.0,0.0,0.0,0.0,0.0,0.0,0.0,2.375,2.3276,2.312,2.3188,2.3633,2.4023,2.4238,2.3877,2.3506,2.3481,2.4668,2.4619,2.456,2.5333,2.5499,2.543,2.5049,2.5703,2.6719,2.8037,2.8935,2.9766,3.0586,3.0703,3.0732,3.0791,3.0791,3.082,3.0889,2.9471,2.905,3.0159,2.8319,2.7694,2.8875,2.8456,2.8213,2.8291,2.8291,2.8291,2.8291,2.8291,2.8291,2.8291,2.8291,2.8291,2.8291,2.8291,2.8291,2.8291,2.8291,2.8037,2.7669,2.7708,2.7393,2.6973,2.7002,2.7012,2.706,2.7471,2.7344,2.6973,0.0,0.0,0.0,0.0,0.0,0.0,0.0,0.0,0.0,0.0,0.0,0.0,0.0,0.0,0.0,0.0,0.0,0.0,0.0,0.0,2.0053,2.0693,2.1873,2.2352,2.1953,2.12,2.0651,2.0347,2.1661,2.2728,2.3528,2.22,2.1484,2.1258,1.9993,1.9424,1.9424,1.9424,1.9924,2.0759,2.0759,2.165,0.0,0.0,0.0,0.0,0.0,0.0,0.0,0.0,2.5025,2.5037,0.0,0.0,2.3711,2.3227,2.3091,2.313,2.334,2.3461,2.3608,2.3769,2.3467,2.3364,2.4434,2.4746,2.4844,2.4902,2.5566,2.6172,2.626,2.6982,2.791,2.8916,2.958,3.0176,3.0801,3.0889,3.0889,3.0889,3.0889,3.0889,3.0889,3.0333,3.0139,3.0577,2.9623,2.9126,2.9346,2.8916,2.8564,2.8301,2.8291,2.8291,2.8291,2.8291,2.8291,2.8291,2.8291,2.8291,2.8291,2.8291,2.8291,2.8291,2.8291,2.8057,2.7738,2.7949,2.7803,2.7441,2.7705,2.7812,2.7832,2.7998,2.7783,2.7422,0.0,0.0,0.0,0.0,0.0,0.0,0.0,0.0,0.0,0.0,0.0,0.0,0.0,0.0,0.0,0.0,0.0,0.0,1.8829,1.9587,2.0544,2.1651,2.2328,2.3299,2.4602,2.315,2.2299,2.2022,2.3588,2.4658,2.5245,2.3505,2.2756,2.284,2.0438,1.9754,2.0222,1.9631,1.9982,2.0923,2.1415,2.2476,0.0,0.0,0.0,0.0,0.0,0.0,0.0,0.0,2.5234,0.0,0.0,0.0,0.0,0.0,2.3091,2.3091,2.3091,2.3091,2.3169,2.3516,2.3467,2.3559,2.4553,2.5176,2.5557,2.5791,2.6348,2.6924,2.7344,2.7793,2.8379,2.9228,2.9834,3.0361,3.083,3.0889,3.0889,3.0889,3.0889,3.0889,3.0889,3.0889,3.0781,3.0498,3.0303,2.9893,2.9209,2.9014,2.873,2.8301,2.8291,2.8291,2.8291,2.8291,2.8291,2.8291,2.8291,2.8291,2.8291,2.8291,2.8291,2.8291,2.8291,2.8125,2.7891,2.8174,2.8125,2.7891,2.8174,2.8291,2.8291,2.8291,2.8115,2.7894,0.0,0.0,0.0,0.0,0.0,0.0,0.0,0.0,0.0,0.0,0.0,0.0,0.0,0.0,0.0,0.0,0.0,0.0,2.0597,2.0898,2.1944,2.3741,2.3137,2.3911,2.6464,2.4944,2.4376,2.4903,2.5621,2.5778,2.5296,2.3557,2.3512,2.4745,2.1104,2.0482,2.2092,2.0215,1.9424,1.9591,2.1031,2.254,2.3914,0.0,0.0,0.0,0.0,0.0,0.0,0.0,2.4785,0.0,0.0,0.0,0.0,0.0,2.3091,2.3091,2.3091,2.3091,2.3091,2.3101,2.3467,2.4141,2.5401,2.6074,2.6865,2.8564,2.8252,2.7793,2.8213,2.7949,2.7949,2.8779,2.9639,3.0351,3.083,3.0889,3.0889,3.0889,3.0889,3.0889,3.0889,3.0889,3.0527,2.9704,2.9961,2.9639,2.8369,2.8701,2.873,2.8301,2.8291,2.8291,2.8291,2.8291,2.8291,2.8291,2.8291,2.8291,2.8291,2.8291,2.8291,2.8291,2.8291,2.8291,2.8291,2.8291,2.8291,2.8291,2.8291,2.8291,2.8291,2.8291,2.8291,2.8232,0.0,0.0,0.0,0.0,0.0,0.0,0.0,0.0,0.0,0.0,0.0,0.0,0.0,0.0,0.0,0.0,0.0,0.0,2.2009,2.2864,2.3851,2.4994,2.5795,2.6689,2.7736,2.7583,2.6739,2.5156,2.6575,2.7477,2.78,2.6527,2.5851,2.5658,2.3796,2.3107,2.3295,2.2757,2.3103,2.4156,2.4599,2.5654,2.6941,0.0,0.0,0.0,0.0,0.0,0.0,0.0,0.0,0.0,0.0,0.0,0.0,2.3091,2.3091,2.3091,2.3091,2.3091,2.3169,2.3516,2.3916,2.458,2.5889,2.6055,0.0,0.0,2.8047,2.7793,2.8213,2.8193,2.8281,2.8828,2.9385,3.0019,3.0781,3.0889,3.0771,3.0439,3.0693,3.0762,3.043,3.0703,3.0781,3.0518,3.0312,2.9902,2.9228,2.9014,2.873,2.8301,2.8291,2.8291,2.8291,2.8291,2.8291,2.8291,2.8291,2.8291,2.8291,2.8291,2.8291,2.8291,2.8291,2.8291,2.8291,2.8291,2.8291,2.8291,2.8291,2.8291,2.8291,2.8291,2.8291,2.8271,0.0,0.0,0.0,0.0,0.0,0.0,0.0,0.0,0.0,0.0,0.0,0.0,0.0,0.0,0.0,0.0,0.0,0.0,0.0,2.3954,2.4589,2.5765,2.6421,2.6967,2.733,2.853,2.8071,2.5777,2.764,2.8672,2.8871,2.7799,2.7388,2.7437,2.5565,2.4914,2.5146,2.4384,2.4513,2.5261,2.5873,2.6608,2.7463,0.0,0.0,0.0,0.0,0.0,0.0,0.0,0.0,0.0,0.0,0.0,0.0,2.3091,2.3091,2.3091,2.3091,2.3091,2.3198,2.3682,2.4238,2.498,2.6133,2.6709,2.7344,2.8555,2.833,2.8047,2.8467,2.8271,2.8232,2.8818,2.9287,2.9756,3.0293,3.0508,3.0449,3.0,3.0195,3.0254,2.9971,3.0351,3.0547,3.0381,3.0264,2.9941,2.9346,2.9062,2.873,2.8301,2.8291,2.8291,2.8291,2.8291,2.8291,2.8291,2.8291,2.8291,2.8291,2.8291,2.8291,2.8291,2.8291,2.8291,2.8291,2.8291,2.8291,2.8291,2.8291,2.8291,2.8291,2.8291,2.8291,2.8271,0.0,0.0,0.0,0.0,0.0,0.0,0.0,0.0,0.0,0.0,0.0,0.0,0.0,0.0,0.0,0.0,0.0,0.0,0.0,0.0,2.4731,2.6036,2.5801,2.5792,2.6145,2.8327,2.8592,2.6715,2.863,2.9287,2.8813,2.7902,2.8211,2.94,2.6686,2.6218,2.7334,2.5613,2.4578,2.4322,2.5717,2.6318,2.6399,2.7367,0.0,0.0,0.0,0.0,0.0,0.0,0.0,0.0,2.3965,2.3525,2.3091,2.3091,2.3091,2.3091,2.3091,2.312,2.3257,2.374,2.4551,2.5527,2.6357,2.7754,2.8965,2.9326,2.8838,2.8467,2.8848,2.8262,2.7988,2.8789,2.9248,2.9521,2.956,2.9902,2.998,2.956,2.9541,2.9551,2.9512,2.9932,3.0019,2.96,2.9922,2.9785,2.8965,2.8887,2.8682,2.8301,2.8291,2.8291,2.8291,2.8291,2.8291,2.8291,2.8252,2.8232,2.8232,2.8271,2.8291,2.8291,2.8291,2.8291,2.8291,2.8291,2.8291,2.8291,2.8291,2.8291,2.8291,2.8291,2.8291,2.8232,0.0,0.0,0.0,0.0,0.0,0.0,0.0,0.0,0.0,0.0,0.0,0.0,0.0,0.0,0.0,0.0,0.0,0.0,0.0,0.0,2.6616,2.6136,2.7128,2.7847,2.826,2.847,2.8519,2.8358,2.8839,2.8848,2.8447,2.8868,2.9097,2.9017,2.8772,2.8622,2.8519,2.7815,2.7425,2.734,2.7672,2.7843,2.7833,2.8077,2.7744,0.0,0.0,0.0,0.0,0.0,0.0,0.0,2.4307,2.3715,2.3091,2.3091,2.3091,2.3091,2.3091,2.3389,2.375,2.418,2.5449,2.6826,2.7685,2.8164,2.8359,2.8125,2.8457,2.8809,2.8896,2.8506,2.833,2.8838,2.8994,2.918,2.9521,2.9648,2.9541,2.9111,2.9365,2.9434,2.9092,2.9746,3.0019,2.96,2.9658,2.9482,2.8945,2.8603,2.8389,2.8301,2.8291,2.8291,2.8291,2.8291,2.8291,2.8291,2.7959,2.7855,2.7812,2.8144,2.8291,2.8291,2.8291,2.8291,2.8291,2.8291,2.8291,2.8291,2.8291,2.8291,2.8291,2.8291,2.8291,2.8281,0.0,0.0,0.0,0.0,0.0,0.0,0.0,0.0,0.0,0.0,0.0,0.0,0.0,0.0,0.0,0.0,0.0,0.0,0.0,0.0,0.0,2.7159,2.808,2.8603,2.8613,2.8603,2.8603,2.8613,2.8613,2.8506,2.8301,2.8955,2.9141,2.8935,2.9375,2.9326,2.8906,2.8682,2.8476,2.8291,2.8291,2.8291,2.8291,2.8291,2.8018,2.7568,2.7158,0.0,0.0,0.0,0.0,0.0,0.0,0.0,2.3091,2.3091,2.3091,2.3091,2.3091,2.3457,2.3994,2.4834,2.6035,2.7187,2.7842,2.8144,2.8174,2.7806,2.8174,2.8613,2.8613,2.8437,2.8369,2.8584,2.8789,2.8926,2.8955,2.9131,2.9101,2.8672,2.8818,2.8867,2.8643,2.9209,2.9492,2.9277,2.9258,2.916,2.8926,2.8525,2.8291,2.8291,2.8291,2.8291,2.8291,2.8291,2.8291,2.8291,2.8066,2.7914,2.7728,2.7891,2.7988,2.7998,2.8203,2.8291,2.8291,2.8291,2.8291,2.8291,2.8291,2.8291,2.8291,2.8291,2.8291,2.8262,0.0,0.0,0.0,0.0,0.0,0.0,0.0,0.0,0.0,0.0,0.0,0.0,0.0,0.0,0.0,0.0,0.0,0.0,0.0,0.0,0.0,2.8237,2.8623,2.8682,2.8408,2.8672,2.8672,2.8398,2.833,2.8291,2.8301,2.8721,2.8916,2.8935,2.9297,2.9258,2.8916,2.8838,2.8613,2.8291,2.8291,2.8291,2.8291,2.8291,2.8203,2.7978,2.7275,2.6924,2.6689,2.5927,0.0,0.0,0.0,0.0,2.3091,2.3091,2.3091,2.3091,2.3091,2.3506,2.4199,2.5382,2.6387,2.7109,2.7471,2.7881,2.8066,2.7637,2.7891,2.8164,2.8086,2.8135,2.8184,2.8184,2.8535,2.8662,2.8242,2.8545,2.8662,2.8232,2.8252,2.8291,2.8291,2.8672,2.8887,2.8818,2.8877,2.8887,2.8818,2.8476,2.8291,2.8291,2.8291,2.8291,2.8291,2.8291,2.8262,2.8184,2.8037,2.7744,2.7334,2.7464,2.7581,2.7738,2.8115,2.8291,2.8291,2.8291,2.8291,2.8291,2.8291,2.8291,2.8291,2.8291,2.8291,2.8242,0.0,0.0,0.0,0.0,0.0,0.0,0.0,0.0,0.0,0.0,0.0,0.0,0.0,0.0,0.0,0.0,0.0,0.0,0.0,0.0,0.0,2.8237,2.834,2.8525,2.8828,2.8535,2.8525,2.8838,2.8467,2.8291,2.8301,2.8721,2.8916,2.8916,2.8984,2.8975,2.8896,2.8535,2.834,2.8291,2.8291,2.8291,2.8291,2.8291,2.7832,2.7168,2.7051,2.6483,2.584,2.5732,2.5099,0.0,0.0,0.0,2.3091,2.3091,2.3091,2.3091,2.3091,0.0,2.456,0.0,2.6387,2.7031,0.0,0.0,2.7627,2.7197,2.7441,2.7637,2.7256,2.75,2.7806,2.7806,2.8105,2.8232,2.7865,2.8115,2.8223,2.7855,2.8066,2.8291,2.8291,2.8672,2.8769,2.8398,2.8711,2.876,2.8398,2.832,2.8291,2.8291,2.8291,2.8291,2.8291,2.8291,2.8115,2.7796,2.6992,2.6416,2.5957,2.6387,2.6963,2.7738,2.8115,2.8291,2.8291,2.8291,2.8291,2.8291,2.8291,2.8291,2.8291,2.8291,2.8291,2.8281,0.0,0.0,0.0,0.0,0.0,0.0,0.0,0.0,0.0,0.0,0.0,0.0,0.0,0.0,0.0,0.0,0.0,0.0,0.0,0.0,0.0,0.0,2.8291,2.8379,2.8564,2.8389,2.8389,2.8564,2.8389,2.8291,2.8301,2.8476,2.8564,2.8564,2.8564,2.8564,2.8555,2.8369,2.8291,2.8291,2.8291,2.8144,2.7969,0.0,0.0,0.0,0.0,2.6621,2.6064,2.5771,2.5099,2.4414,2.4414,0.0,0.0,0.0,2.3091,2.3198,2.3686,2.3955,2.4336,0.0,2.5976,2.6317,2.6611,2.6992,2.7178,2.6758,2.6816,2.7041,2.7324,2.7539,2.7718,2.7718,2.7875,2.7793,2.7363,2.7461,2.7598,2.7708,2.7607,2.7764,2.8242,2.8252,2.8232,2.8291,2.8467,2.8486,2.8301,2.8291,2.8291,2.8291,2.8291,2.8291,2.8291,2.8057,2.7725,2.7295,2.6924,2.6514,2.6113,2.6543,2.6943,2.7324,2.7754,2.7939,2.7959,2.8193,2.8154,2.7969,2.8203,2.8291,2.8291,2.8291,2.8291,2.8291,0.0,0.0,0.0,0.0,0.0,0.0,0.0,0.0,0.0,0.0,0.0,0.0,0.0,0.0,0.0,0.0,0.0,0.0,0.0,0.0,0.0,0.0,0.0,2.8291,2.8291,2.8291,2.8291,2.8291,2.8291,2.8291,2.8291,2.8291,2.8291,2.8291,2.8291,2.8291,2.8291,2.8291,2.8291,2.8281,2.8174,2.7949,2.7738,0.0,2.75,0.0,0.0,2.6582,2.6172,2.5801,2.5225,2.456,2.4453,2.3861,0.0,0.0,0.0,2.3237,2.3871,0.0,2.4023,2.5,2.544,2.5742,0.0,0.0,2.6738,2.6309,2.6221,2.6455,2.7258,2.7395,2.7395,2.7395,2.7483,2.7344,2.6914,2.6943,2.709,2.7314,2.7148,2.7266,2.79,2.7783,2.7793,2.8105,2.8232,2.8291,2.8291,2.8291,2.8291,2.8291,2.8291,2.8291,2.8291,2.7764,2.7285,2.6855,2.6748,2.6523,2.623,2.6543,2.6748,2.6885,2.7432,2.7777,2.7904,2.8164,2.8105,2.7851,2.8174,2.8291,2.8291,2.8291,2.8291,2.8291,0.0,0.0,0.0,0.0,0.0,0.0,0.0,0.0,0.0,0.0,0.0,0.0,0.0,0.0,2.6771,2.8184,0.0,0.0,0.0,0.0,0.0,0.0,0.0,0.0,2.8291,2.8291,2.8291,2.8291,2.8291,2.8291,2.8291,2.8291,2.8291,2.8291,2.8291,2.8291,2.8291,2.8291,2.8291,2.8262,2.7861,2.7738,2.7679,2.7236,2.6807,2.6426,2.6426,2.6143,2.5713,2.5693,2.543,2.5008,2.4551,2.4111,2.3682,0.0,0.0,0.0,0.0,2.3496,0.0,2.3877,2.4824,2.5635,0.0,0.0,2.6299,2.581,2.5723,2.5908,2.6367,2.6455,2.6455,2.6455,2.6787,2.6904,2.6484,2.6768,2.6875,2.6494,2.6787,2.7031,2.708,2.7432,2.7728,2.7748,2.8066,2.8291,2.8291,2.8291,2.8291,2.8291,2.8291,2.8291,2.8291,2.7471,2.6836,2.6416,2.6006,2.5742,2.5723,2.5742,2.6035,2.6465,2.7305,2.7891,2.8262,2.8281,2.8281,2.8262,2.8281,2.8291,2.8291,2.8291,2.8291,2.8291,0.0,0.0,0.0,0.0,0.0,0.0,0.0,0.0,0.0,0.0,0.0,0.0,0.0,2.7843,2.7726,2.8237,2.8291,0.0,0.0,0.0,0.0,0.0,0.0,0.0,0.0,2.8291,2.8291,2.8291,2.8291,2.8291,2.8291,2.8291,2.8291,2.8291,2.8291,2.8291,2.8291,2.8291,2.8291,2.8252,2.7832,2.75,2.7236,2.707,2.6582,2.6006,2.6289,2.6113,2.5693,2.5693,2.5439,2.5086,2.4883,2.4541,2.4111,2.3682,0.0,0.0,0.0,0.0,0.0,2.4053,2.4541,2.4853,2.4687,2.5117,2.541,2.498,2.5117,2.5273,2.5146,2.581,2.6387,2.6387,2.6514,2.6367,2.5644,2.5918,2.6093,2.5986,2.6054,2.6416,2.6963,2.6914,2.707,2.7679,2.7855,2.8008,2.8281,2.8037,2.8018,2.8281,2.8027,2.7891,2.7891,2.7305,2.6807,2.6387,2.5947,2.5693,2.5703,2.6025,2.6387,2.6826,2.7412,2.7588,2.749,2.7773,2.7725,2.75,2.7783,2.7891,2.792,2.8193,2.8291,2.8291,0.0,0.0,0.0,0.0,0.0,0.0,0.0,0.0,0.0,0.0,0.0,0.0,0.0,0.0,2.8291,2.8291,2.8291,2.8291,2.8291,2.8291,0.0,0.0,0.0,0.0,0.0,2.8154,2.8144,2.8291,2.8144,2.8154,2.8291,2.8291,2.8291,2.8291,2.8291,2.8291,2.8301,2.8437,2.8418,2.8252,2.7832,2.749,2.7217,2.707,2.666,2.6201,2.6494,2.6406,2.6093,2.6006,2.5752,2.5507,2.5204,2.4766,2.4336,0.0,0.0,0.0,2.3525,0.0,0.0,0.0,2.4102,2.4209,2.4209,2.4541,2.4766,2.4473,2.4648,2.4756,2.4473,2.5137,2.5771,2.5928,2.5947,2.5742,2.5194,2.5195,2.5245,2.5245,2.5372,2.5732,2.6309,2.6377,2.6631,2.7197,2.7363,2.7568,2.7851,2.7598,2.7578,2.7861,2.7598,2.7383,2.7236,2.6953,2.6592,2.6162,2.583,2.5693,2.5703,2.6035,2.6406,2.6826,2.7109,2.7236,2.7256,2.7549,2.7412,2.706,2.75,2.7718,2.7767,2.8135,2.8291,2.8291,0.0,0.0,0.0,0.0,0.0,0.0,0.0,0.0,0.0,0.0,0.0,0.0,0.0,0.0,0.0,2.831,2.831,2.8301,2.8291,2.8291,0.0,0.0,0.0,0.0,0.0,2.7891,2.7933,2.8291,2.7933,2.7891,2.8291,2.8291,2.8291,2.8291,2.8301,2.8301,2.832,2.873,2.8662,2.8252,2.7875,2.7708,2.7669,2.7148,2.6992,2.7012,2.7002,2.6992,2.6934,2.6523,2.6387,2.6221,2.5361,2.4775,0.0,0.0,0.0,0.0,0.0,0.0,0.0,0.0,0.0,0.0,2.3769,0.0,2.4394,2.4385,2.4385,2.4394,2.4385,2.4394,2.4551,2.5008,2.5086,2.5096,2.5077,2.4678,2.4414,2.4394,2.4785,2.5106,2.5116,2.5898,2.6357,2.6387,2.6768,2.7002,2.7012,2.7012,2.7012,2.6992,2.7012,2.6816,2.6406,2.6396,2.6172,2.5703,2.5693,2.5693,2.5693,2.5713,2.5996,2.6387,2.6416,2.6885,2.7679,2.7679,2.7393,2.706,2.748,2.7708,2.7767,2.8135,2.8291,2.8291,0.0,0.0,0.0,0.0,0.0,0.0,0.0,0.0,0.0,0.0,0.0,0.0,2.8711,2.9023,2.9092,2.8769,2.875,2.8613,2.831,2.8291,2.8291,2.8291,2.8291,2.8291,2.8291,2.8174,2.8174,2.8291,2.8174,0.0,0.0,0.0,0.0,0.0,2.8613,2.8574,2.8301,2.8418,2.8398,2.8232,2.749,2.7383,2.7601,2.6494,2.6475,2.6973,2.667,2.6562,2.6543,2.6426,2.6182,2.583,2.5625,2.5029,0.0,0.0,0.0,0.0,2.313,0.0,0.0,0.0,0.0,0.0,2.3344,2.3652,2.3877,2.351,2.374,2.3867,2.351,2.3949,2.4355,2.417,2.4394,2.4492,2.4189,2.4297,2.4307,2.4004,2.4336,2.4717,2.5086,2.5341,2.5703,2.6338,2.6494,2.6699,2.6992,2.7012,2.6875,2.6572,2.6855,2.6963,2.6846,2.6543,2.6328,2.6201,2.584,2.5693,2.5713,2.6327,2.6562,2.6426,2.7041,2.71,2.6738,2.6738,2.6846,2.7021,2.7148,2.7393,2.7767,2.8135,2.8291,2.8291,0.0,0.0,0.0,0.0,0.0,0.0,0.0,0.0,0.0,0.0,0.0,0.0,2.8877,0.0,2.9199,2.8945,2.876,2.8555,2.831,2.8291,2.8291,2.8291,2.8291,2.8291,2.8291,2.8125,2.8115,0.0,0.0,0.0,0.0,0.0,0.0,0.0,0.0,0.0,2.8281,2.8105,2.8027,2.7988,2.749,2.7334,2.7314,2.6562,2.6582,2.6982,2.6738,2.6533,2.6387,2.6387,2.6103,2.5693,2.5693,2.5333,0.0,0.0,0.0,0.0,0.0,0.0,0.0,0.0,0.0,0.0,2.3149,2.3286,2.3447,2.3149,2.334,2.3437,2.314,2.35,2.3799,2.3555,2.3877,2.4072,2.3828,2.3848,2.3789,2.3545,2.3896,2.4258,2.4512,2.491,2.5331,2.5801,2.6006,2.6221,2.6475,2.6484,2.6367,2.6123,2.6357,2.6484,2.6484,2.624,2.6113,2.6113,2.581,2.5693,2.5713,2.6445,2.6621,2.6416,2.6914,2.6846,2.6387,2.6387,2.6533,2.6787,2.7148,2.7441,2.7767,2.8135,2.8291,2.8291,0.0,0.0,0.0,0.0,0.0,0.0,0.0,0.0,0.0,0.0,0.0,0.0,0.0,0.0,0.0,0.0,2.8682,2.8418,2.8369,2.832,2.8291,2.8291,2.8291,2.8291,2.8291,2.793,2.792,0.0,0.0,0.0,0.0,0.0,0.0,0.0,0.0,0.0,2.8193,2.7822,2.7689,2.764,2.7542,2.7246,2.6934,2.6836,2.6865,2.6943,2.6943,2.6709,2.6387,2.6338,2.6055,2.5693,2.5693,2.5693,2.5596,2.5205,2.4795,0.0,0.0,0.0,0.0,0.0,2.3169,0.0,2.311,2.3091,2.3091,2.3091,2.3091,2.3091,2.3091,2.3091,2.3091,2.3091,2.3506,2.3769,2.3721,2.3428,2.3169,2.3169,2.3516,2.375,2.3857,2.4548,2.5008,2.5106,2.5488,2.5693,2.5693,2.5693,2.5693,2.5693,2.5693,2.5693,2.5693,2.5693,2.5693,2.5693,2.5693,2.5693,2.5703,2.6191,2.6367,2.6328,2.6416,2.6435,2.6396,2.6494,2.6504,2.6543,2.7405,2.7748,2.7836,2.8154,2.8291,2.8291,0.0,0.0,0.0,0.0,0.0,0.0,0.0,0.0,0.0,0.0,0.0,0.0,0.0,0.0,0.0,0.0,0.0,0.0,0.0,2.8476,2.8291,2.8291,2.8291,2.8291,2.8291,2.8213,2.8213,0.0,0.0,0.0,0.0,0.0,0.0,0.0,0.0,0.0,0.0,2.7748,2.7461,2.708,2.6387,2.6269,2.6435,2.5723,2.5889,2.6514,2.6514,2.6455,2.6338,2.5977,2.5762,2.5693,2.5693,2.5693,2.5596,2.5205,2.5057,0.0,0.0,0.0,0.0,2.374,2.3662,0.0,2.3179,2.3091,2.3091,2.3091,2.3091,2.3091,2.3091,2.3091,2.3091,2.3091,2.3506,2.3662,2.3276,2.3496,2.3662,2.3662,2.3428,2.3491,2.4228,2.4141,2.4326,2.5067,2.5488,2.5693,2.5693,2.5693,2.5693,2.5693,2.5693,2.5693,2.5693,2.5693,2.5693,2.5693,2.5693,2.5693,2.5703,2.6191,2.6201,2.5908,2.6592,2.6699,2.6435,2.718,2.7207,2.6943,2.7471,2.7924,2.8174,2.8262,2.8291,2.8291,0.0,0.0,0.0,0.0,0.0,0.0,0.0,0.0,0.0,0.0,0.0,0.0,0.0,0.0,0.0,0.0,0.0,0.0,0.0,2.8721,2.8506,2.8301,2.8291,2.8291,2.8291,2.8291,2.8291,2.8291,0.0,0.0,0.0,0.0,0.0,0.0,0.0,0.0,0.0,2.7119,2.6904,2.667,2.624,2.5928,2.5684,2.5282,2.539,2.5703,2.5488,2.5547,2.5703,2.5478,2.5557,2.5723,2.5996,2.6064,2.6016,2.5791,2.5576,2.5303,2.4863,2.458,2.4316,2.3896,2.3789,0.0,0.0,2.3091,2.3091,2.3091,2.3091,2.3091,2.3091,2.3091,2.3091,2.3091,2.3682,2.3877,2.3188,2.3691,2.4102,2.4102,2.3906,2.3857,2.4082,2.4297,2.4697,2.5352,2.5605,2.5693,2.5693,2.5693,2.5693,2.5693,2.5693,2.5693,2.5693,2.5693,2.5693,2.5693,2.5693,2.5693,2.5703,2.6191,2.6152,2.5732,2.6641,2.6777,2.6455,2.7366,2.7539,2.7383,2.7812,2.8105,2.8291,2.8291,2.8291,2.8291,0.0,0.0,0.0,0.0,0.0,0.0,0.0,0.0,0.0,0.0,0.0,0.0,0.0,0.0,0.0,0.0,0.0,0.0,0.0,2.8896,2.8643,2.831,2.8369,2.8379,2.8291,2.8369,2.8369,2.8291,0.0,0.0,0.0,0.0,0.0,0.0,0.0,0.0,0.0,2.6562,2.6387,2.6387,2.6299,2.5732,2.4979,2.49,2.4871,2.4785,2.4512,2.4639,2.4988,2.4988,2.5185,2.5508,2.5996,2.625,2.6367,2.6289,2.6133,2.582,2.5342,2.4941,2.457,2.4141,2.4033,2.3896,0.0,0.0,0.0,2.311,2.3091,2.3091,0.0,2.3091,2.3091,2.3091,2.3789,2.4053,2.3315,2.3926,2.4414,2.4414,2.4414,2.4316,2.4062,2.4636,2.5127,2.5528,2.5557,2.5596,2.5684,2.5693,2.5693,2.5693,2.5693,2.5693,2.5693,2.5693,2.5693,2.5693,2.5693,2.5693,2.5703,2.6103,2.6074,2.5732,2.6641,2.6826,2.6572,2.7483,2.7836,2.7875,2.8164,2.8291,2.8291,2.8291,2.8291,2.8291,2.9434,2.957,0.0,0.0,0.0,0.0,0.0,0.0,0.0,0.0,0.0,0.0,3.081,3.04,3.0312,3.0771,2.9648,2.9082,2.9473,2.8789,2.834,2.8291,2.8652,2.8672,2.8301,2.8662,2.8662,2.8291,0.0,0.0,0.0,0.0,0.0,0.0,2.7718,2.7422,2.6982,2.6562,2.6387,2.6357,2.5967,2.5283,2.4443,2.4072,2.3935,2.3975,2.4307,2.4443,2.4492,2.4492,2.4521,2.4639,2.5078,2.5762,2.6309,2.5879,2.6318,2.6689,2.583,2.5577,2.5478,2.5029,2.4969,2.4763,2.3896,0.0,2.3603,2.3169,0.0,2.3091,2.3091,0.0,0.0,0.0,2.3545,2.3828,2.373,2.4121,2.4414,2.4414,2.4414,2.4551,2.494,2.4658,2.4668,2.5107,2.5194,2.5322,2.5664,2.5693,2.5693,2.5693,2.5693,2.5693,2.5693,2.5693,2.5693,2.5693,2.5693,2.5693,2.5693,2.5742,2.5732,2.5732,2.6641,2.6982,2.7012,2.7871,2.8223,2.8223,2.8271,2.8291,2.8291,2.8291,2.8291,2.8291,2.8789,2.9023,0.0,0.0,0.0,0.0,0.0,0.0,0.0,0.0,0.0,3.0889,3.0889,3.0478,3.0381,3.085,2.9912,2.9375,2.9616,2.8994,0.0,2.8662,2.8818,2.8838,2.8662,2.8828,2.8711,2.8291,2.8291,0.0,0.0,0.0,0.0,0.0,2.7402,2.7051,2.6602,2.5918,2.5673,2.5557,2.4883,2.4385,2.4062,2.4121,2.3848,2.3496,2.417,2.4258,2.4092,2.4336,2.5033,2.5863,2.5847,2.6604,2.7288,2.6645,2.6562,2.6514,2.5849,2.5918,2.5947,2.5292,2.5264,2.5225,2.4355,2.415,2.4033,2.3603,0.0,0.0,0.0,0.0,0.0,0.0,2.3506,2.3701,2.3447,2.3949,2.4414,2.4414,2.4414,2.4492,2.4668,2.4521,2.46,2.5077,2.5116,2.5371,2.6074,2.583,2.5801,2.6103,2.582,2.5693,2.5693,2.5693,2.5693,2.5693,2.5693,2.5693,2.5693,2.5693,2.5693,2.5723,2.6387,2.6787,2.706,2.7676,2.8066,2.8291,2.8291,2.8291,2.8291,2.8291,2.8291,2.8291,2.8291,0.0,0.0,0.0,0.0,0.0,0.0,0.0,0.0,3.0185,3.0488,3.0752,3.0879,3.0693,3.0644,3.0869,3.0303,2.9824,2.9646,2.9277,2.8994,2.876,2.9082,2.916,2.8926,2.9033,2.8887,2.8467,0.0,0.0,0.0,0.0,0.0,0.0,0.0,2.7147,2.7023,2.5809,2.5176,2.5047,2.4258,2.3896,2.3809,2.3994,2.3715,2.3344,2.3842,2.3945,2.3863,2.4346,2.5194,2.6161,2.6622,2.7356,2.8,2.7707,2.7371,2.6963,2.6346,2.6291,2.6201,2.5439,2.5498,2.5489,2.4775,2.459,2.4473,2.4043,2.3965,0.0,0.0,0.0,0.0,0.0,0.0,2.3682,0.0,2.375,2.4111,2.4228,2.4453,2.4648,2.4766,2.4668,2.4727,2.5086,2.5116,2.54,2.6172,2.6025,2.6113,2.6543,2.625,2.5986,2.5869,2.5869,2.581,2.5693,2.5693,2.5693,2.5693,2.5693,2.5693,2.5713,2.6318,2.6738,2.7051,2.7607,2.8018,2.8291,2.8291,2.8291,2.8291,2.8291,2.8291,2.8291,2.8291,2.8633,2.8789,2.8389,0.0,0.0,0.0,0.0,2.9736,3.0146,3.0205,3.0391,3.084,3.124,3.1318,3.0928,3.0859,3.0488,2.9685,2.9616,2.918,2.835,2.9502,2.9766,2.8935,2.9336,2.9336,2.8896,0.0,0.0,0.0,0.0,0.0,0.0,2.8431,2.8145,2.877,2.6594,2.5469,2.5077,2.458,2.415,2.374,2.3286,2.3428,2.3721,2.3276,2.3437,2.39,2.4557,2.4395,2.4337,2.7009,2.7722,2.7835,2.8991,2.9035,2.8575,2.7735,2.6992,2.6279,2.5781,2.5674,2.5567,2.5146,2.5096,2.4969,2.4492,2.4394,2.4394,2.4375,0.0,0.0,0.0,0.0,0.0,0.0,0.0,2.3296,2.376,2.4541,2.5215,2.5606,2.5303,2.5096,2.5116,2.5116,2.5273,2.5684,2.6143,2.6562,2.6982,2.6982,2.6777,2.6367,2.6367,2.6162,2.5693,2.5693,2.5693,2.5693,2.5693,2.5693,2.5732,2.6631,2.7002,2.708,2.793,2.8281,2.8291,2.8291,2.8291,2.8291,2.8291,2.8291,2.8291,2.946,2.9731,2.9475,2.8471,2.8525,2.8818,2.9101,2.9141,2.9609,3.0898,3.1074,3.1455,3.2461,3.2441,3.2197,3.1777,3.1221,3.0518,2.9685,2.9626,2.9316,2.873,2.9394,2.9512,2.8926,2.9062,2.9342,2.9833,2.882,0.0,0.0,0.0,0.0,0.0,0.0,2.9824,2.8919,2.7309,2.5845,2.458,2.3857,2.3909,2.4339,2.3446,2.3188,2.334,2.3149,2.3694,2.4502,2.4722,2.5849,2.7323,2.812,2.8868,2.9499,2.9733,2.8961,2.811,2.8628,2.7648,2.6468,2.6866,2.6562,2.6055,2.5615,2.5508,2.5381,2.4941,2.4844,2.4756,2.4473,0.0,0.0,0.0,0.0,0.0,0.0,0.0,2.4141,2.458,2.494,2.4949,2.4492,2.456,2.4521,2.4238,2.4482,2.5088,2.6113,2.6309,2.6709,2.7422,2.7168,2.6943,2.6807,2.6807,2.6592,2.6172,2.6172,2.6016,2.5693,2.5693,2.5693,2.5703,2.5996,2.6494,2.7041,2.7324,2.7783,2.8291,2.8291,2.8291,2.8291,2.8291,2.8291,2.8291,3.0856,3.1019,3.0721,2.9859,2.9899,3.0053,3.0113,3.0265,3.077,3.1864,3.1969,3.2285,3.3105,3.3223,3.2959,3.2226,3.1797,3.1289,3.0564,3.0214,2.9852,2.9403,2.9662,2.9521,2.8926,2.8916,2.9463,3.0569,2.9033,2.9207,0.0,0.0,0.0,0.0,0.0,3.1108,2.9596,2.8189,2.6408,2.4617,2.4103,2.438,2.4996,2.4716,2.4543,2.4543,2.4596,2.5039,2.5636,2.5883,2.6971,2.843,2.9324,2.9981,3.0474,3.0966,3.0147,2.9272,2.9863,2.8878,2.7693,2.761,2.7331,2.6784,2.5879,2.581,2.5928,2.5791,2.5518,2.5361,2.5537,0.0,0.0,0.0,0.0,0.0,0.0,2.4551,2.4756,2.5077,2.5116,2.4959,2.4521,2.458,2.4531,2.4268,2.4492,2.5156,2.6328,2.6533,2.7002,2.7914,2.7617,2.7402,2.7246,2.7246,2.7031,2.6611,2.6611,2.6387,2.5977,2.6123,2.5976,2.5703,2.6005,2.6504,2.7021,2.7178,2.7656,2.8291,2.8291,2.8291,2.8291,2.8291,2.8291,2.8291,3.2482,3.2431,3.2482,3.2482,3.2836,3.2953,3.2443,3.2836,3.318,3.3151,3.3014,3.2966,3.3034,3.3667,3.3574,3.2344,3.2559,3.2615,3.2298,3.1411,3.0721,3.0381,3.0304,2.9858,2.8922,2.9031,2.9769,3.1106,0.0,0.0,0.0,0.0,0.0,0.0,3.3044,0.0,3.1019,2.9257,2.7242,2.5226,2.5465,2.5565,2.5719,2.6969,2.7372,2.7285,2.7296,2.7231,2.7257,2.7887,2.7714,2.771,3.0495,3.094,3.0781,3.2543,3.2494,3.1774,3.141,3.0663,2.9604,2.8156,2.7999,2.7748,2.6181,2.6143,2.6504,2.6934,2.6317,2.6172,2.7383,0.0,0.0,0.0,0.0,0.0,0.0,0.0,2.5145,2.5145,2.5145,2.5254,2.5615,2.5322,2.5106,2.5086,2.5106,2.5497,0.0,2.6787,2.7412,2.8262,2.8291,2.8096,2.7748,2.7748,2.748,2.7041,2.7041,2.6826,2.6435,2.6816,2.6543,2.5762,2.6611,2.6973,2.7041,2.7461,2.7891,2.8291,2.8291,2.8291,2.8291,2.8291,2.8291,2.8291,3.3767,3.4654,3.5343,3.5343,3.3805,3.2611,3.2795,3.371,3.4803,3.609,3.5629,3.5562,3.6459,3.5126,3.3809,3.3154,3.2627,3.2495,3.2859,3.1649,3.0907,3.0895,3.1125,3.0648,2.9352,3.071,3.1887,3.2874,3.1766,0.0,3.3871,0.0,0.0,0.0,0.0,3.4486,3.2911,3.1089,2.8841,2.6475,2.7127,2.7653,2.811,2.9324,2.9708,2.95,2.7885,2.7508,2.7859,2.8051,2.8574,2.9294,3.0433,3.0957,3.1315,3.2181,3.192,3.1579,3.2376,3.1107,2.9656,3.0158,2.8989,2.7725,2.7569,2.6961,2.6504,2.6934,2.6836,2.6689,2.6709,2.6445,0.0,0.0,0.0,0.0,0.0,0.0,2.5566,2.5566,2.5566,2.5478,2.5264,2.5184,2.4979,2.4609,2.4883,2.5497,2.6338,2.6787,2.7412,2.8262,2.8291,2.8242,2.8135,2.8135,2.792,2.75,2.75,2.7275,2.6846,2.6641,2.6435,2.6211,2.6113,2.6376,2.7021,2.7139,2.7617,2.8291,2.8291,2.8291,2.8291,2.8291,2.8291,2.8291,3.5223,3.6056,3.6694,3.6455,3.5928,3.5455,3.5238,3.5556,3.6263,3.7462,3.71,3.6702,3.6572,3.5679,3.4696,3.352,3.2656,3.2793,3.4143,3.2758,3.219,3.2868,3.27,3.1876,3.0403,3.1423,3.2476,3.3517,3.2476,0.0,3.5271,0.0,0.0,0.0,0.0,3.5014,3.3208,3.1154,2.9429,2.805,2.8808,2.9308,0.0,3.0834,3.1124,3.081,2.9791,2.9342,2.9199,2.9199,2.9473,2.9967,3.0984,3.1348,3.1549,3.2353,3.2308,3.2196,3.2896,3.2064,3.1057,3.1178,2.9931,2.8537,2.8041,2.7146,2.6562,2.7168,2.7002,2.6894,2.7402,2.6885,0.0,0.0,0.0,0.0,0.0,2.5908,2.5947,2.5713,2.5908,2.585,2.54,2.5185,2.5049,2.4953,2.5225,2.5742,2.6621,2.707,2.7607,2.8271,2.8467,2.8476,2.8291,2.8476,2.8359,2.7939,2.7939,2.7715,2.7295,2.7246,2.7012,2.666,2.6602,2.6855,2.7305,2.7305,2.7695,2.8291,2.8291,2.8291,2.8291,2.8291,2.8291,2.8291,3.6619,3.6958,3.7098,3.6518,3.8216,3.9371,3.8379,3.8035,3.8048,3.8499,3.839,3.7564,3.5752,3.6207,3.5863,3.3951,3.2949,3.3348,3.5566,3.4103,3.3672,3.4976,3.4406,3.3298,3.1683,3.1912,3.2557,3.3672,3.2557,0.0,0.0,0.0,0.0,0.0,0.0,0.0,0.0,3.0824,2.9874,2.9783,3.0496,3.0726,3.0764,3.1898,3.1938,3.1461,3.2014,3.1574,3.0721,3.0721,3.0394,3.0244,3.1662,3.1825,3.1687,3.2679,3.3061,3.3124,3.3124,3.3124,3.284,3.1733,3.0822,2.9747,2.8256,2.7288,2.6891,2.7552,2.7119,2.707,2.8496,2.75,0.0,0.0,0.0,0.0,2.5927,2.6269,2.6348,2.5976,2.6269,0.0,2.582,2.542,2.5322,2.5664,2.5693,2.6064,2.6973,2.7373,2.7822,2.8359,2.873,2.8769,2.8457,2.8769,2.874,2.8369,2.832,2.8096,2.7806,2.8066,2.7803,2.7119,2.7441,2.7669,2.7718,2.7718,2.7963,2.8291,2.8291,2.8291,2.8291,2.8291,2.833,2.8369,3.7149,3.7475,3.755,3.6581,3.8216,3.9622,3.9433,4.0877,4.2022,4.2109,4.1338,4.0493,3.9686,3.8171,3.6905,3.6129,3.4413,3.4122,3.5781,3.4103,3.3394,3.4046,3.4924,3.4519,3.2535,3.3988,3.4691,3.4475,3.4691,0.0,0.0,0.0,0.0,0.0,0.0,0.0,3.2757,3.2991,3.2487,3.1511,3.2325,3.2319,3.1958,3.2657,3.229,3.1461,3.2014,3.18,3.1248,3.1248,3.1185,3.116,3.1449,3.1775,3.2102,3.2303,3.2704,3.3124,3.3124,3.3124,3.3038,3.284,3.1893,3.0751,2.9782,2.8956,2.8247,2.7809,2.7822,2.7939,2.7891,2.7353,2.6768,0.0,2.6279,2.6523,2.7226,2.709,2.7012,2.7295,2.708,2.6738,2.6318,2.5879,2.5606,2.5684,2.5693,2.6064,2.6973,2.709,2.7646,2.8779,2.8877,2.9053,2.9346,2.9062,2.8887,2.8809,2.8457,2.8252,2.8174,2.79,2.7748,2.7539,2.7256,2.7334,2.7718,2.7718,2.7963,2.8291,2.8291,2.8291,2.8291,2.8291,2.8516,2.876,3.7663,3.7826,3.8027,3.8078,3.9459,4.0739,4.1304,4.2534,4.3099,4.2246,4.1657,4.0942,3.9852,3.9101,3.8206,3.7101,3.5701,3.5499,3.6941,3.5738,3.5268,3.5943,3.6325,3.5673,3.379,3.4645,3.4944,3.468,3.4944,0.0,0.0,0.0,0.0,0.0,0.0,3.4587,0.0,0.0,3.3096,3.2563,3.2953,3.2918,3.2692,3.2968,3.2742,3.2303,3.2566,3.2491,3.2215,3.1913,3.1625,3.1486,3.2077,3.224,3.2277,3.2566,3.2855,3.3124,3.3124,3.3124,3.3124,3.3124,3.2152,3.0913,2.9929,2.9046,2.8289,2.7483,2.7666,2.791,2.7757,2.7314,2.6943,2.6748,2.6709,2.6934,2.763,2.7861,2.792,2.7748,2.7666,2.7334,2.6475,2.6201,2.5977,2.5703,2.5947,2.6348,2.6982,2.7226,2.7734,2.8564,2.9023,2.9248,2.9238,2.9248,2.9141,2.8916,2.8496,2.8291,2.8281,2.8086,2.7988,2.7978,2.7773,2.7793,2.7988,2.7988,2.8115,2.8291,2.8291,2.8291,2.832,2.8535,2.875,2.8857,3.8341,3.8454,3.8781,3.9559,4.0802,4.1894,4.2534,4.33,4.3338,4.1978,4.1702,4.1067,3.9556,3.985,3.9501,3.8022,3.6871,3.6736,3.7897,3.7191,3.6931,3.7506,3.7329,3.6408,3.4763,3.468,3.468,3.468,3.468,3.5165,0.0,0.0,0.0,0.0,0.0,0.0,3.4487,3.3495,3.3124,3.3124,3.3124,3.3124,3.3124,3.3124,3.3006,3.2918,3.3031,3.3006,3.2842,3.2503,3.2102,3.1901,3.2847,3.2767,3.2491,3.2943,3.3124,3.3124,3.3124,3.3124,3.3124,3.3124,3.2339,3.1303,3.0228,2.957,2.8875,2.7794,2.7698,2.7826,2.7738,2.7529,2.7363,2.7178,2.7305,2.7568,2.8061,2.8564,2.8711,2.8188,2.8125,2.7725,2.6631,2.6357,2.6113,2.5713,2.6055,2.6435,2.6865,2.7295,2.7764,2.8271,2.9033,2.9355,2.9189,2.9346,2.9307,2.9053,2.8535,2.8291,2.8291,2.8291,2.8291,2.8291,2.8291,2.8291,2.8291,2.8291,2.8291,2.8291,2.8291,2.8291,2.834,2.876,2.8975,2.9014,3.9433,3.9936,4.0162,3.976,4.143,4.2522,4.1576,4.2811,4.374,4.3589,4.3137,4.2379,4.1214,4.111,4.0736,3.9568,3.8152,3.7429,3.7536,3.7001,3.6506,3.6045,3.6752,3.6408,3.4763,3.468,3.468,3.468,3.468,3.4731,3.4901,0.0,0.0,0.0,3.4944,3.4449,3.3935,3.3332,3.3124,3.3124,3.3124,3.3124,3.3124,3.3124,3.2754,3.2365,3.288,3.2742,3.2365,3.283,3.2998,3.2973,3.3086,3.3043,3.3048,3.3056,3.3124,3.3124,3.3124,3.3124,3.3124,3.3124,3.3025,3.2748,3.1989,3.2064,3.1756,2.983,2.8792,2.8115,2.7787,2.8252,2.8486,2.7725,2.8242,2.8896,2.9336,2.9121,2.9033,2.9355,2.8462,2.7519,2.7002,2.621,2.5732,2.5693,2.5723,2.5986,2.6426,2.6846,2.7451,2.8271,2.874,2.9336,3.0068,2.9346,2.916,2.9502,2.8682,2.8291,2.8291,2.8291,2.8291,2.8291,2.8291,2.8291,2.8291,2.8291,2.8291,2.8291,2.8291,2.8291,2.834,2.876,2.917,2.9502,4.0576,4.0588,4.0752,4.153,4.1844,4.2183,4.2735,4.2811,4.2811,4.2811,4.2678,4.2195,4.1376,4.0987,4.0664,4.0224,3.9327,3.8804,3.8804,3.798,3.739,3.7131,3.6858,3.6069,3.4751,3.468,3.4562,3.4223,3.4562,3.4843,3.5194,0.0,0.0,3.5981,3.4763,3.4474,3.4756,3.3596,3.3269,3.3545,3.3206,3.3124,3.3124,3.3124,3.293,3.2767,3.2993,3.293,3.2717,3.2604,3.2792,3.3124,3.3124,3.3124,3.3124,3.3124,3.3124,3.3124,3.3124,3.3124,3.3124,3.3124,3.3124,3.2947,3.2241,3.2424,3.2359,3.1168,3.0157,2.9713,3.0333,3.0151,2.9801,2.9719,3.023,3.0474,3.0052,3.0039,2.9971,2.9665,2.9176,2.8491,2.75,2.6865,2.6504,2.6504,2.5976,2.5879,2.6367,2.6787,2.7295,2.79,2.8818,2.9346,2.9434,2.9346,2.9268,2.917,2.8574,2.8291,2.8291,2.8291,2.8428,2.8662,2.8398,2.8437,2.8652,2.8398,2.8291,2.8291,2.8291,2.8291,2.8369,2.9062,2.9424,2.9648,4.115,4.0974,4.1229,4.2723,4.2195,4.2032,4.3363,4.2622,4.1919,4.1919,4.1823,4.153,4.1087,4.0752,4.045,4.0287,3.9772,3.9446,3.9446,3.8391,3.7764,3.7764,3.6908,3.5889,3.4705,3.468,3.4449,3.3897,3.4286,3.4675,3.5019,3.5454,3.5764,3.5818,3.4487,3.4336,3.4931,3.3646,3.3307,3.3621,3.3232,3.3124,3.3124,3.3124,3.3124,3.3124,3.3124,3.3124,3.3018,3.2604,3.2742,3.3056,3.288,3.2943,3.3124,3.3124,3.3124,3.3124,3.3124,3.3124,3.3124,3.3124,3.3206,3.3227,3.2946,3.3228,3.3326,3.2621,3.1655,3.1173,3.2129,3.1702,3.1311,3.1591,3.1773,3.1688,3.0977,3.0756,3.041,2.9658,2.9346,2.8843,2.7816,2.7275,2.7012,2.7012,2.6405,2.625,2.6562,2.6973,2.7402,2.7832,2.9029,2.9424,2.9111,2.9287,2.9228,2.8916,2.8496,2.8291,2.8291,2.8291,2.8525,2.8896,2.8603,2.8643,2.8896,2.8603,2.8476,2.8476,2.8476,2.8476,2.8584,2.9443,2.9756,2.9863,4.1075,4.1275,4.1681,4.2785,4.2577,4.2389,4.2898,4.2057,4.13,4.13,4.0877,4.0538,4.0526,4.0513,4.03,3.9747,3.9195,3.8932,3.8932,3.7826,3.7199,3.7199,3.6707,3.5889,3.4705,3.468,3.4449,3.3897,3.3909,3.3909,3.3922,3.3922,3.4223,3.4713,3.4161,3.3909,3.3884,3.3319,3.3124,3.3124,3.3124,3.3124,3.3124,3.3124,3.3124,3.3124,3.3124,3.3124,3.3124,3.3111,3.3111,3.3023,3.2403,3.2616,3.3124,3.3124,3.3124,3.3124,3.3124,3.3124,3.3124,3.3124,3.3483,3.4035,3.4542,3.5094,3.526,3.451,3.3254,3.228,3.228,3.2683,3.3019,3.3144,3.262,3.2253,3.2374,3.113,3.0049,2.9675,2.8818,2.8135,2.7757,2.7275,2.7012,2.7012,2.7002,2.7002,2.7012,2.7422,2.7904,2.8271,2.9121,2.9626,2.956,2.9141,2.8926,2.8916,2.8496,2.8291,2.8291,2.8291,2.8525,2.8916,2.8916,2.8916,2.8916,2.8916,2.8916,2.8916,2.8916,2.8916,2.9014,2.9873,3.0185,3.0254,4.1756,4.2195,4.2559,4.2924,4.2891,4.2828,4.2949,4.2045,4.1288,4.1288,4.0526,3.9961,3.9961,3.9961,3.9885,3.971,3.9195,3.8919,3.8919,3.7814,3.7186,3.7186,3.6707,3.6019,3.5257,3.4868,3.4449,3.3897,3.4274,3.4605,3.4956,3.4248,3.4399,3.5194,3.4311,3.4324,3.4919,3.4035,3.3633,3.3608,3.3275,3.3307,3.3633,3.3633,3.3633,3.3633,3.3633,3.3395,3.3061,3.2616,3.2754,3.2968,3.239,3.2604,3.3124,3.3124,3.3124,3.3124,3.3124,3.3124,3.3124,3.3124,3.3483,3.4048,3.46,3.5441,3.605,3.5833,3.4666,3.4019,3.4945,3.4766,3.4458,3.442,3.3776,3.3031,3.2377,3.0868,2.9717,2.9646,2.9062,2.8555,2.8135,2.7705,2.7461,2.7461,2.7178,2.7012,2.7012,2.7705,2.8154,2.8291,2.9404,2.9717,2.9131,2.956,2.9502,2.8916,2.9082,2.916,2.916,2.916,2.9394,2.9775,2.9492,2.9531,2.9766,2.9482,2.9365,2.9365,2.9365,2.9365,2.9434,2.999,3.0195,3.0264,4.1743,4.2283,4.2728,4.2728,4.2497,4.2359,4.2359,4.143,4.0802,4.0949,4.0249,3.9697,3.9697,3.9697,3.9697,3.9697,3.8994,3.8542,3.8542,3.75,3.692,3.692,3.6593,3.6107,3.5508,3.4956,3.455,3.4211,3.455,3.4756,3.4868,3.4437,3.4462,3.4856,3.4211,3.4286,3.4818,3.3972,3.3583,3.3558,3.3219,3.3282,3.3583,3.3583,3.3583,3.3583,3.3583,3.337,3.3018,3.2667,3.278,3.3018,3.2654,3.278,3.3124,3.3124,3.3124,3.3124,3.3124,3.3275,3.3382,3.3382,3.396,3.4663,3.5215,3.5868,3.6405,3.6405,3.5875,3.566,3.6301,3.6307,3.6171,3.589,3.5106,3.4332,3.3678,3.1707,3.0304,3.0143,2.9401,2.875,2.833,2.8503,2.8448,2.7953,2.8296,2.8289,2.7725,2.8232,2.8682,2.8994,2.9951,3.0117,2.9404,2.9932,2.9853,2.917,2.9443,2.9658,2.9795,2.9648,2.9795,3.0185,2.9912,2.9951,3.0176,2.9912,2.9805,2.9805,2.9805,2.9805,2.9863,3.0293,3.0459,3.0498,4.1175,4.1743,4.2162,4.22,4.1706,4.1288,4.1288,4.0438,3.9936,4.045,4.0036,3.9697,3.9697,3.9697,3.9697,3.9697,3.8705,3.8052,3.8002,3.701,3.6455,3.6405,3.6405,3.6119,3.5558,3.4981,3.4655,3.4618,3.4625,3.4361,3.3909,3.4424,3.4412,3.396,3.396,3.396,3.3922,3.337,3.3106,3.3124,3.3124,3.3106,3.3174,3.3174,3.3174,3.3174,3.3174,3.3106,3.3124,3.3124,3.3124,3.3124,3.3124,3.3124,3.3124,3.3124,3.3124,3.3124,3.3124,3.3483,3.3897,3.3897,3.4726,3.5646,3.6279,3.6443,3.6468,3.6468,3.6908,3.7086,3.6619,3.7312,3.7826,3.7274,3.6378,3.5758,3.577,3.3351,3.1494,3.1169,2.9971,2.9031,2.853,2.9711,2.9911,2.8437,2.9974,3.037,2.901,2.8965,2.9346,3.0176,3.0644,3.0664,3.0205,3.0234,3.0049,2.9658,2.9658,2.9863,3.0234,2.9834,2.9873,3.0244,3.0244,3.0244,3.0244,3.0244,3.0244,3.0244,3.0244,3.0244,3.0293,3.0732,3.0889,3.0889,4.1175,4.1388,4.1668,4.2137,4.1706,4.1288,4.1288,4.0764,4.0375,4.0501,4.0036,3.9697,3.9697,3.9697,3.9697,3.9697,3.9069,3.8479,3.804,3.7362,3.6845,3.643,3.6405,3.6342,3.6169,3.5215,3.4512,3.4098,3.3671,3.3608,3.3897,3.4035,3.4248,3.4525,3.4525,3.4525,3.45,3.3935,3.3458,3.3124,3.3124,3.3332,3.3709,3.3709,3.3709,3.3709,3.3709,3.3432,3.3124,3.3124,3.3124,3.3124,3.3124,3.3124,3.3124,3.3124,3.3124,3.3124,3.3124,3.3483,3.3897,3.3897,3.4726,3.5646,3.6279,3.6732,3.6985,3.6985,3.7425,3.7764,3.7638,3.7839,3.7826,3.7274,3.6149,3.5313,3.5224,3.3436,3.2215,3.249,3.2304,3.1696,3.0503,3.1682,3.1473,2.8923,2.9799,3.0165,2.9486,2.9414,2.9658,3.0176,3.0644,3.0664,3.0205,3.0547,3.0674,3.0576,3.0576,3.0635,3.0723,3.0625,3.0635,3.0723,3.0723,3.0723,3.0723,3.0723,3.0723,3.0723,3.0723,3.0723,3.0742,3.085,3.0889,3.0889,4.0902,4.1112,4.13,4.1404,4.1153,4.0824,4.0626,4.0337,4.0136,4.0136,3.9885,3.9697,3.9697,3.9697,3.9697,3.9697,3.9195,3.863,3.804,3.7487,3.6935,3.643,3.6405,3.6292,3.5994,3.5152,3.4449,3.3897,3.3847,3.3985,3.4274,3.4274,3.4437,3.4668,3.4462,3.4349,3.4311,3.3759,3.3357,3.3124,3.3124,3.3257,3.352,3.352,3.352,3.352,3.352,3.3332,3.3124,3.3124,3.3124,3.3124,3.3124,3.3257,3.3407,3.3156,3.3124,3.3131,3.3382,3.3859,3.4399,3.4901,3.5479,3.6056,3.6656,3.6973,3.7262,3.7513,3.8015,3.8316,3.8052,3.8228,3.814,3.7312,3.6615,3.6015,3.5673,3.4282,3.345,3.3957,3.3504,3.2975,3.2452,3.3666,3.3472,3.1074,3.1689,3.1699,3.0565,3.0336,3.0273,3.0508,3.0762,3.0771,3.0518,3.0762,3.0889,3.0889,3.0889,3.0889,3.0889,3.0889,3.0889,3.0889,3.0889,3.0889,3.0889,3.0889,3.0889,3.0889,3.0889,3.0889,3.0889,3.0889,3.0889,3.0889,4.0501,4.0774,4.0912,4.0588,4.045,4.0237,3.9772,3.9697,3.9697,3.9697,3.9697,3.9697,3.9697,3.9697,3.9659,3.9584,3.9145,3.863,3.804,3.7487,3.6935,3.643,3.6405,3.6144,3.5633,3.5006,3.4412,3.3771,3.4248,3.4474,3.4474,3.4562,3.46,3.4575,3.411,3.3897,3.3859,3.3307,3.3124,3.3124,3.3124,3.3124,3.3124,3.3212,3.3206,3.3206,3.3206,3.3206,3.3194,3.3149,3.3124,3.3124,3.3124,3.3395,3.3684,3.3219,3.3174,3.3307,3.3771,3.4361,3.509,3.6153,3.6405,3.6556,3.7061,3.7249,3.7462,3.8015,3.8592,3.8843,3.8354,3.8592,3.858,3.7475,3.7236,3.6998,3.648,3.5489,3.4966,3.5471,3.4622,3.4045,3.4076,3.5489,3.5451,3.3033,3.3779,3.3507,3.1594,3.1067,3.082,3.0889,3.0889,3.0889,3.0889,3.0889,3.0889,3.0889,3.0889,3.0889,3.0889,3.0889,3.0889,3.0889,3.0889,3.0889,3.0889,3.0889,3.0889,3.0889,3.0889,3.0889,3.0889,3.0889,3.0889,3.0889,4.0425,4.0212,4.0074,4.045,4.0136,3.9798,3.971,3.9697,3.9697,3.9697,3.9697,3.9697,3.9697,3.9697,3.9509,3.9032,3.8969,3.863,3.804,3.7487,3.6935,3.643,3.6405,3.6367,3.6279,3.524,3.4223,3.3206,3.3294,3.3332,3.3345,3.3809,3.4022,3.4022,3.3935,3.3897,3.3859,3.3307,3.3124,3.3124,3.3124,3.3124,3.3174,3.3596,3.3771,3.3771,3.3771,3.3771,3.3709,3.3232,3.3124,3.3124,3.3124,3.3174,3.3224,3.3106,3.3407,3.3796,3.3872,3.4638,3.552,3.6254,3.6405,3.6556,3.7061,3.755,3.804,3.8617,3.9182,3.9534,3.9446,3.912,3.8655,3.799,3.7487,3.6998,3.648,3.6603,3.6783,3.687,3.7556,3.7031,3.4564,3.6845,3.6466,3.1606,3.2877,3.303,3.1087,3.0554,3.0488,3.0879,3.0889,3.0889,3.0889,3.0889,3.0889,3.0889,3.0889,3.0889,3.0889,3.0889,3.0889,3.0889,3.0889,3.0889,3.0889,3.0889,3.0889,3.0889,3.0889,3.0889,3.0889,3.0889,3.0889,3.0889,4.0023,3.9873,3.9772,4.0036,3.986,3.9697,3.9697,3.9697,3.9697,3.9697,3.9697,3.9697,3.9697,3.9697,3.9471,3.8969,3.858,3.8165,3.76,3.7324,3.6935,3.643,3.6405,3.6128,3.5491,3.4688,3.3884,3.3124,3.3124,3.3275,3.352,3.3483,3.3608,3.3884,3.3583,3.3458,3.3458,3.3508,3.352,3.3545,3.3847,3.396,3.3985,3.4248,3.4349,3.4349,3.4349,3.4161,3.3859,3.3608,3.3319,3.3124,3.3124,3.3282,3.352,3.352,3.3909,3.4412,3.4655,3.5378,3.6044,3.6342,3.6631,3.6996,3.75,3.8065,3.863,3.9195,3.9521,3.9697,3.9697,3.8994,3.8417,3.8467,3.75,3.6807,3.6845,3.7023,3.7299,3.76,3.8366,3.8499,3.7359,3.7827,3.6991,3.4241,3.3627,3.2899,3.1659,3.094,3.0674,3.0889,3.0889,3.0889,3.0889,3.0889,3.0889,3.0889,3.0889,3.0889,3.0889,3.0889,3.0889,3.0889,3.0889,3.0889,3.0889,3.0889,3.0889,3.0889,3.0889,3.0889,3.0889,3.0889,3.0889,3.0889,3.9697,3.9697,3.9697,3.9697,3.9697,3.9697,3.9697,3.9697,3.9697,3.9697,3.9697,3.9697,3.9697,3.9584,3.9283,3.8718,3.814,3.7575,3.7023,3.6998,3.6857,3.643,3.6405,3.5889,3.4705,3.4311,3.3759,3.3124,3.3124,3.3294,3.3709,3.3269,3.3307,3.3696,3.3269,3.3156,3.3294,3.3721,3.3972,3.4123,3.455,3.468,3.4693,3.4818,3.4793,3.4738,3.4818,3.4562,3.4073,3.3935,3.3709,3.342,3.3156,3.3545,3.406,3.3935,3.4474,3.5228,3.5734,3.6232,3.6631,3.6757,3.7061,3.7525,3.8078,3.8555,3.9032,3.9584,3.9697,3.9697,3.9697,3.8881,3.8354,3.8793,3.7725,3.6933,3.7312,3.75,3.7739,3.8153,3.8718,3.9118,3.9208,3.8465,3.7575,3.6473,3.4725,3.3406,3.2588,3.1712,3.1143,3.1035,3.0947,3.0889,3.0889,3.0889,3.0889,3.0889,3.0889,3.0889,3.0889,3.0889,3.0889,3.0889,3.0889,3.0889,3.0889,3.0889,3.0889,3.0889,3.0889,3.0889,3.0889,3.0889,3.0889,3.0889,3.9697,3.9697,3.9697,3.9697,3.9697,3.9697,3.9697,3.9697,3.9697,3.9697,3.9697,3.9697,3.9697,3.9245,3.8693,3.8115,3.7563,3.701,3.6505,3.6468,3.6455,3.6405,3.6405,3.5889,3.4705,3.4675,3.4135,3.3124,3.3124,3.3106,3.3174,3.3136,3.3106,3.3174,3.3136,3.3357,3.3847,3.3884,3.4198,3.4618,3.4655,3.468,3.4731,3.5245,3.5119,3.4788,3.5257,3.5094,3.4587,3.4073,3.4211,3.4424,3.3395,3.3809,3.4562,3.4048,3.5014,3.6405,3.691,3.7098,3.7249,3.7764,3.7914,3.8103,3.868,3.8894,3.9032,3.9584,3.9697,3.9697,3.9697,3.9207,3.8869,3.8906,3.8316,3.7902,3.7939,3.8404,3.8806,3.8856,3.9295,3.9144,3.7796,3.8804,3.8413,3.5627,3.5569,3.5093,3.3644,3.2624,3.1885,3.1484,3.1094,3.0889,3.0889,3.0889,3.0889,3.0889,3.0889,3.0889,3.0889,3.0889,3.0889,3.0889,3.0889,3.0889,3.0889,3.0889,3.0889,3.0889,3.0889,3.0889,3.0889,3.0889,3.0889,3.0889,3.9697,3.9697,3.9697,3.9697,3.9697,3.9697,3.9697,3.9697,3.9697,3.9697,3.9697,3.9697,3.9697,3.9195,3.8642,3.8052,3.75,3.6948,3.6443,3.6405,3.6405,3.6405,3.6405,3.5889,3.4705,3.468,3.4173,3.3124,3.3124,3.3124,3.3124,3.3124,3.3257,3.3583,3.3583,3.3884,3.4437,3.4731,3.4994,3.5219,3.5604,3.5742,3.5768,3.5968,3.5918,3.5768,3.5981,3.5692,3.5157,3.4944,3.4826,3.465,3.4223,3.4625,3.5282,3.5793,3.6621,3.7513,3.8078,3.7965,3.7751,3.7952,3.8278,3.8605,3.8869,3.9132,3.9433,3.9647,3.9697,3.9697,3.9697,3.9245,3.8981,3.932,3.8605,3.814,3.8492,3.8781,3.9045,3.9346,3.9873,4.0115,3.9882,3.9519,3.844,3.6308,3.5441,3.4355,3.2824,3.2423,3.2425,3.2987,3.308,3.2428,3.0898,3.0889,3.0889,3.0889,3.0889,3.0889,3.0947,3.1883,3.1767,3.0947,3.1883,3.1767,3.0889,3.0889,3.0889,3.0889,3.0889,3.0889,3.0889,3.0889,3.0889,3.0889,3.9697,3.9697,3.9697,3.9697,3.9697,3.9697,3.9697,3.9697,3.9697,3.9697,3.9697,3.9697,3.9697,3.9195,3.8642,3.8052,3.75,3.6948,3.6443,3.6405,3.6405,3.6405,3.6405,3.5931,3.4956,3.4768,3.4274,3.3332,3.3156,3.3124,3.3124,3.3257,3.3533,3.3909,3.4085,3.4462,3.4956,3.5332,3.5596,3.583,3.6207,3.6405,3.6405,3.6405,3.6304,3.6119,3.6342,3.6006,3.5495,3.5495,3.547,3.5429,3.5044,3.5433,3.6245,3.7174,3.7839,3.8366,3.8768,3.8705,3.853,3.853,3.8831,3.9132,3.9132,3.9421,3.9697,3.9697,3.9697,3.9697,3.9697,3.9383,3.9245,3.9634,3.9044,3.873,3.9308,3.9383,3.9597,4.0149,4.0538,4.0927,4.125,4.0402,3.9133,3.753,3.6187,3.4546,3.2672,3.2559,3.2882,3.3526,3.4122,3.3617,3.1814,3.2258,3.2465,3.2275,3.2465,3.2465,3.2332,3.3007,3.2721,3.1662,3.2644,3.253,3.1604,3.2102,3.1988,3.1604,3.1604,3.1334,3.0889,3.0889,3.0889,3.0889,3.9697,3.9697,3.9697,3.9697,3.9697,3.9697,3.9697,3.9697,3.9697,3.9697,3.9697,3.9697,3.9697,3.9195,3.8642,3.8052,3.75,3.6948,3.6443,3.6405,3.6405,3.6405,3.6405,3.6107,3.5508,3.4969,3.4462,3.3897,3.3357,3.3124,3.3136,3.3646,3.3909,3.3935,3.4487,3.4994,3.5508,3.5508,3.5868,3.6417,3.6417,3.6417,3.6417,3.6417,3.6031,3.5583,3.6169,3.6019,3.5508,3.5508,3.6282,3.6998,3.5871,3.632,3.7312,3.7864,3.8429,3.8932,3.8932,3.927,3.9697,3.9697,3.9697,3.9697,3.9697,3.9697,3.9697,3.9697,3.9697,3.9697,3.9697,3.9697,3.9697,3.9697,3.9697,3.9885,4.0438,4.0513,4.0727,4.1225,4.13,4.1288,4.13,4.13,4.0602,3.9011,3.7954,3.6226,3.3515,3.3418,3.3223,3.2874,3.3889,3.4232,3.376,3.5294,3.5837,3.5311,3.5792,3.577,3.5267,3.4339,3.3622,3.3134,3.3134,3.3134,3.3237,3.4681,3.4459,3.3134,3.3077,3.2207,3.0889,3.0889,3.0889,3.0889,3.9697,3.9697,3.9697,3.9697,3.9697,3.9697,3.9697,3.9697,3.9697,3.9697,3.9697,3.9697,3.9697,3.9195,3.8642,3.8052,3.75,3.6948,3.6443,3.6405,3.6405,3.6405,3.6405,3.6107,3.5508,3.5332,3.4793,3.3897,3.3734,3.3658,3.3658,3.3822,3.4311,3.5019,3.5182,3.5604,3.6144,3.6533,3.6797,3.6973,3.7362,3.7287,3.6935,3.6935,3.6596,3.6144,3.6355,3.6304,3.6169,3.6558,3.691,3.7262,3.7726,3.8103,3.8479,3.9032,3.932,3.9446,3.9446,3.9572,3.9697,3.9697,3.9697,3.9697,3.9697,3.9697,3.9697,3.9697,3.9697,3.9697,3.9697,3.9697,3.9697,3.9697,4.0023,4.0325,4.0488,4.0799,4.1291,4.1844,4.1907,4.1648,4.0866,4.0789,3.9647,3.6925,3.5411,3.4111,3.3051,3.3262,3.4244,3.6113,3.6741,3.789,3.9635,3.6171,3.4923,3.5871,3.3822,3.4143,3.6387,3.5357,3.5,3.5222,3.5918,3.5606,3.4681,3.5123,3.5013,3.4515,3.3519,3.2804,3.2311,3.1276,3.0889,3.0889,3.9697,3.9697,3.9697,3.9697,3.9697,3.9697,3.9697,3.9697,3.9697,3.9697,3.9697,3.9697,3.9697,3.9396,3.8969,3.8391,3.7638,3.7048,3.6757,3.6531,3.6405,3.6405,3.6405,3.6207,3.5868,3.5608,3.5169,3.455,3.4336,3.4223,3.4223,3.4449,3.4856,3.5508,3.5768,3.6056,3.643,3.6769,3.6985,3.7211,3.755,3.7475,3.7186,3.7186,3.6973,3.6732,3.6732,3.6822,3.7061,3.74,3.7663,3.8015,3.8919,3.9195,3.927,3.9597,3.9697,3.9697,3.9697,3.9697,3.9697,3.9697,3.9697,3.9697,3.9697,3.9697,3.9697,3.9697,3.9697,3.976,3.9986,4.0023,4.0086,4.0312,4.0626,4.0915,4.1141,4.1455,4.1869,4.2476,4.2539,4.2252,4.1635,4.1545,4.0233,3.7013,3.4684,3.3542,3.3939,3.4232,3.5395,3.7739,3.8464,3.9613,4.1213,3.7849,3.6487,3.7207,3.5536,3.5684,3.7378,3.6987,3.6757,3.6709,3.7274,3.6972,3.6217,3.6769,3.6715,3.5999,3.457,3.3968,3.38,3.2311,3.1767,3.1767,3.9697,3.9697,3.9697,3.9697,3.9697,3.9697,3.9697,3.9697,3.9697,3.9697,3.9697,3.9697,3.9697,3.9697,3.9471,3.8969,3.7877,3.7236,3.7186,3.6757,3.6455,3.6405,3.6405,3.6405,3.6405,3.5868,3.5545,3.5495,3.4994,3.4756,3.4756,3.5257,3.552,3.5596,3.6132,3.6405,3.6405,3.6455,3.6769,3.7199,3.7299,3.7299,3.7262,3.7312,3.7299,3.7262,3.7262,3.7575,3.8015,3.8065,3.8467,3.9032,3.9534,3.9697,3.9697,3.9697,3.9697,3.9697,3.9697,3.9697,3.9697,3.9697,3.9697,3.971,3.976,3.9722,3.971,3.976,3.9772,3.9923,4.0425,4.0563,4.0752,4.12,4.1326,4.158,4.2137,4.225,4.2476,4.2924,4.2974,4.2918,4.2793,4.2557,4.1121,3.8223,3.5283,3.4258,3.5745,3.5928,3.6771,3.8331,3.9371,3.9947,4.006,3.9947,3.9549,3.8971,3.9412,3.9152,3.833,3.8844,3.8621,3.7821,3.7773,3.7725,3.7796,3.9141,3.8908,3.7571,3.6054,3.5508,3.5343,3.3845,3.3304,3.3304,3.9697,3.9697,3.9697,3.9697,3.9697,3.9697,3.9697,3.9697,3.9697,3.9697,3.9697,3.9697,3.9697,3.9697,3.9471,3.8969,3.8228,3.7651,3.7211,3.7073,3.6857,3.643,3.6405,3.6405,3.6405,3.6292,3.5968,3.5495,3.537,3.532,3.532,3.5445,3.5768,3.6194,3.6355,3.6405,3.643,3.687,3.7073,3.7262,3.814,3.8228,3.7877,3.8329,3.8228,3.7826,3.7826,3.7902,3.8078,3.853,3.9057,3.9534,3.9647,3.9697,3.9697,3.9697,3.9697,3.9697,3.9697,3.9697,3.9697,3.9697,3.9697,3.981,4.0237,4.0011,3.9823,4.0249,4.0337,4.0375,4.0488,4.0811,4.115,4.1263,4.1706,4.2074,4.2187,4.2577,4.2848,4.2961,4.2974,4.25,4.1248,3.8853,3.7062,3.6345,3.5683,3.5448,3.5806,3.7013,3.8391,4.0059,4.0312,4.101,4.2258,4.1079,4.0164,3.9584,3.8551,3.8758,4.0057,3.9399,3.9588,4.0447,4.0012,3.9591,3.9245,3.9581,3.953,3.9077,3.7583,3.7026,3.6811,3.5398,3.4792,3.4792,3.9697,3.9697,3.9697,3.9697,3.9697,3.9697,3.9697,3.9697,3.9697,3.9697,3.9697,3.9697,3.9697,3.9697,3.9584,3.9295,3.8743,3.8178,3.7613,3.7324,3.6935,3.643,3.6405,3.6405,3.6405,3.6405,3.6267,3.5931,3.5931,3.5931,3.5931,3.5931,3.6094,3.6405,3.6405,3.6556,3.682,3.7061,3.7337,3.7626,3.8216,3.8278,3.804,3.8341,3.8442,3.8417,3.8417,3.858,3.8856,3.917,3.9459,3.9697,3.9697,3.9697,3.9697,3.9697,3.9697,3.9697,3.9697,3.9697,3.9697,3.9697,3.9885,4.0162,4.045,4.0287,4.0237,4.0802,4.0862,4.099,4.1254,4.153,4.1806,4.2082,4.2359,4.2602,4.2602,4.2798,4.2974,4.2974,4.2974,4.2681,4.1842,3.9511,3.8082,3.8082,3.7363,3.7303,3.8071,3.8864,4.0059,4.1672,4.1728,4.2137,4.2974,4.2137,4.1229,4.0188,3.8605,3.8324,3.9082,3.9302,4.0129,4.125,4.0752,4.035,4.0061,3.9798,3.9697,3.953,3.8084,3.7914,3.836,3.6876,3.6325,3.6325,3.9697,3.9697,3.9697,3.9697,3.9697,3.9697,3.9697,3.9697,3.9697,3.9697,3.9697,3.9697,3.9697,3.9697,3.9697,3.9697,3.927,3.873,3.8052,3.7575,3.7036,3.643,3.6405,3.6405,3.6405,3.6405,3.6405,3.6405,3.6405,3.6405,3.6405,3.6405,3.6405,3.6405,3.6405,3.6719,3.7186,3.7186,3.75,3.8002,3.8002,3.8065,3.8153,3.8153,3.8517,3.9057,3.9057,3.9308,3.9697,3.9697,3.9697,3.9697,3.9697,3.9697,3.9697,3.9697,3.9697,3.9697,3.9697,3.976,3.9835,3.9835,4.0249,4.0676,4.0777,4.0727,4.0814,4.1367,4.148,4.1618,4.2125,4.2288,4.2502,4.2898,4.2974,4.2974,4.2974,4.2974,4.2974,4.2974,4.2974,4.2974,4.2974,4.1545,4.0592,4.0592,3.9347,3.917,4.0534,4.0834,4.1602,4.2974,4.2974,4.2974,4.2974,4.2974,4.2024,4.0175,3.8817,3.7951,3.7607,3.9103,4.0229,4.0902,4.058,4.0463,4.0337,3.9885,3.9697,3.9581,3.8348,3.8635,3.953,3.836,3.7849,3.7849,3.9697,3.9697,3.9697,3.9697,3.9697,3.9697,3.9697,3.9697,3.9697,3.9697,3.9697,3.9697,3.9697,3.9697,3.9697,3.9697,3.9622,3.9132,3.8078,3.7939,3.7437,3.6455,3.6405,3.6405,3.6405,3.6405,3.6405,3.6405,3.6405,3.6405,3.6405,3.6405,3.6405,3.6405,3.6405,3.6719,3.7186,3.7186,3.75,3.8002,3.8002,3.8304,3.8806,3.8806,3.9094,3.9584,3.9584,3.9634,3.9697,3.9697,3.9697,3.9697,3.9697,3.9697,3.9697,3.9697,3.9697,3.9697,3.9697,4.0036,4.04,4.04,4.0827,4.1354,4.1819,4.1568,4.1379,4.1986,4.2099,4.2125,4.2187,4.2602,4.2942,4.2974,4.2974,4.2974,4.2974,4.2974,4.2974,4.2974,4.2974,4.2974,4.2974,4.1545,4.0592,4.0592,4.0419,4.0361,4.0592,4.1911,4.2793,4.2974,4.2974,4.2974,4.2974,4.2974,4.1488,3.8521,3.8283,3.819,3.8111,3.9254,3.9578,3.9263,4.0116,4.0249,3.9798,3.9722,3.9697,3.9685,3.9465,3.953,3.9697,3.9465,3.9413,3.9413,3.9697,3.9697,3.9697,3.9697,3.9697,3.9697,3.9697,3.9697,3.9697,3.9697,3.9697,3.9697,3.9697,3.9421,3.9233,3.9233,3.9233,3.8881,3.8052,3.8316,3.799,3.692,3.687,3.6719,3.6417,3.6707,3.687,3.687,3.687,3.687,3.6822,3.7136,3.7274,3.7274,3.7274,3.76,3.8128,3.8128,3.8266,3.8492,3.8492,3.8642,3.8919,3.8919,3.922,3.9697,3.9697,3.9697,3.9697,3.9697,3.9697,3.9697,3.9697,3.9697,3.9697,3.9697,3.991,4.0162,4.0162,4.0563,4.0924,4.0924,4.1392,4.1856,4.215,4.2208,4.2321,4.2615,4.2678,4.2678,4.2678,4.3074,4.3438,4.3438,4.3438,4.3438,4.3438,4.3175,4.2974,4.2974,4.325,4.3313,4.3011,4.2933,4.2618,4.2004,4.2238,4.2287,4.198,4.2613,4.2974,4.2974,4.2974,4.2974,4.2974,4.2974,4.1842,3.9522,3.8639,3.7602,3.6551,3.7877,3.8662,3.9042,4.0063,4.0375,4.0124,3.9823,3.9697,3.9697,3.9697,3.9697,3.9697,3.9697,3.9697,3.9697]}]]